<?xml version="1.0" encoding="UTF-8" standalone="no" ?>
<gpx xmlns="http://www.topografix.com/GPX/1/1" xmlns:xsi="http://www.w3.org/2001/XMLSchema-instance" xsi:schemaLocation="http://www.topografix.com/GPX/1/1 http://www.topografix.com/GPX/1/1/gpx.xsd" version="1.1" creator="VisuGPX - https://www.visugpx.com">
  <metadata>
    <name>  RANDO CHANTEUGES 27 KM</name>
    <desc><![CDATA[RANDO CHANTEUGES CHARRAIX 27 KM.DEPART ARRIVEE ABBAYE .FROMENTY.LA BRETAGNOLLES.PEBRAC.LA BOURLADE. CHARRAIX.ST JULIEN DES CHAZES.BOURLEYRE]]></desc>
  </metadata>
  <trk>
    <name><![CDATA[31-OCT-21 16:05:56]]></name>
    <extensions>
      <line xmlns="http://www.topografix.com/GPX/gpx_style/0/2">
        <color>0000FF</color>
        <width>4</width>
      </line>
    </extensions>
    <trkseg>
      <trkpt lat="45.07327" lon="3.53283">
        <ele>576.45</ele>
        <time>2021-10-31T08:08:36Z</time>
      </trkpt>
      <trkpt lat="45.07326" lon="3.53285">
        <ele>575.49</ele>
        <time>2021-10-31T08:08:38Z</time>
      </trkpt>
      <trkpt lat="45.07312" lon="3.53305">
        <ele>570.2</ele>
        <time>2021-10-31T08:08:54Z</time>
      </trkpt>
      <trkpt lat="45.07303" lon="3.53321">
        <ele>565.87</ele>
        <time>2021-10-31T08:09:05Z</time>
      </trkpt>
      <trkpt lat="45.07295" lon="3.53334">
        <ele>561.55</ele>
        <time>2021-10-31T08:09:21Z</time>
      </trkpt>
      <trkpt lat="45.07289" lon="3.53342">
        <ele>562.03</ele>
        <time>2021-10-31T08:09:34Z</time>
      </trkpt>
      <trkpt lat="45.07285" lon="3.53345">
        <ele>561.55</ele>
        <time>2021-10-31T08:09:39Z</time>
      </trkpt>
      <trkpt lat="45.07281" lon="3.53345">
        <ele>561.55</ele>
        <time>2021-10-31T08:09:42Z</time>
      </trkpt>
      <trkpt lat="45.07277" lon="3.53344">
        <ele>561.07</ele>
        <time>2021-10-31T08:09:46Z</time>
      </trkpt>
      <trkpt lat="45.07277" lon="3.53339">
        <ele>561.07</ele>
        <time>2021-10-31T08:09:50Z</time>
      </trkpt>
      <trkpt lat="45.07283" lon="3.5333">
        <ele>560.11</ele>
        <time>2021-10-31T08:09:57Z</time>
      </trkpt>
      <trkpt lat="45.07283" lon="3.53327">
        <ele>559.14</ele>
        <time>2021-10-31T08:09:59Z</time>
      </trkpt>
      <trkpt lat="45.07279" lon="3.53328">
        <ele>556.26</ele>
        <time>2021-10-31T08:10:05Z</time>
      </trkpt>
      <trkpt lat="45.07264" lon="3.5333">
        <ele>554.34</ele>
        <time>2021-10-31T08:10:21Z</time>
      </trkpt>
      <trkpt lat="45.07261" lon="3.53332">
        <ele>553.86</ele>
        <time>2021-10-31T08:10:24Z</time>
      </trkpt>
      <trkpt lat="45.07254" lon="3.5333">
        <ele>553.86</ele>
        <time>2021-10-31T08:10:30Z</time>
      </trkpt>
      <trkpt lat="45.0725" lon="3.53329">
        <ele>554.82</ele>
        <time>2021-10-31T08:10:33Z</time>
      </trkpt>
      <trkpt lat="45.07241" lon="3.53335">
        <ele>553.86</ele>
        <time>2021-10-31T08:10:42Z</time>
      </trkpt>
      <trkpt lat="45.07234" lon="3.53343">
        <ele>549.53</ele>
        <time>2021-10-31T08:10:51Z</time>
      </trkpt>
      <trkpt lat="45.07232" lon="3.53343">
        <ele>548.57</ele>
        <time>2021-10-31T08:10:55Z</time>
      </trkpt>
      <trkpt lat="45.07231" lon="3.53339">
        <ele>547.13</ele>
        <time>2021-10-31T08:10:59Z</time>
      </trkpt>
      <trkpt lat="45.07236" lon="3.53333">
        <ele>544.72</ele>
        <time>2021-10-31T08:11:08Z</time>
      </trkpt>
      <trkpt lat="45.07239" lon="3.53322">
        <ele>541.36</ele>
        <time>2021-10-31T08:11:18Z</time>
      </trkpt>
      <trkpt lat="45.07235" lon="3.53316">
        <ele>539.44</ele>
        <time>2021-10-31T08:11:23Z</time>
      </trkpt>
      <trkpt lat="45.07214" lon="3.53289">
        <ele>538.96</ele>
        <time>2021-10-31T08:11:42Z</time>
      </trkpt>
      <trkpt lat="45.07206" lon="3.53262">
        <ele>537.03</ele>
        <time>2021-10-31T08:11:59Z</time>
      </trkpt>
      <trkpt lat="45.07205" lon="3.53247">
        <ele>536.07</ele>
        <time>2021-10-31T08:12:08Z</time>
      </trkpt>
      <trkpt lat="45.07207" lon="3.5324">
        <ele>536.55</ele>
        <time>2021-10-31T08:12:12Z</time>
      </trkpt>
      <trkpt lat="45.07208" lon="3.53235">
        <ele>536.07</ele>
        <time>2021-10-31T08:12:15Z</time>
      </trkpt>
      <trkpt lat="45.07193" lon="3.5321">
        <ele>535.11</ele>
        <time>2021-10-31T08:12:32Z</time>
      </trkpt>
      <trkpt lat="45.07175" lon="3.53187">
        <ele>536.55</ele>
        <time>2021-10-31T08:12:50Z</time>
      </trkpt>
      <trkpt lat="45.07162" lon="3.53166">
        <ele>536.07</ele>
        <time>2021-10-31T08:13:07Z</time>
      </trkpt>
      <trkpt lat="45.07145" lon="3.53141">
        <ele>535.59</ele>
        <time>2021-10-31T08:13:27Z</time>
      </trkpt>
      <trkpt lat="45.07133" lon="3.53116">
        <ele>537.03</ele>
        <time>2021-10-31T08:13:45Z</time>
      </trkpt>
      <trkpt lat="45.07123" lon="3.53105">
        <ele>538.48</ele>
        <time>2021-10-31T08:13:56Z</time>
      </trkpt>
      <trkpt lat="45.07115" lon="3.53093">
        <ele>538.96</ele>
        <time>2021-10-31T08:14:05Z</time>
      </trkpt>
      <trkpt lat="45.07115" lon="3.53059">
        <ele>540.4</ele>
        <time>2021-10-31T08:14:22Z</time>
      </trkpt>
      <trkpt lat="45.07128" lon="3.53033">
        <ele>540.4</ele>
        <time>2021-10-31T08:14:39Z</time>
      </trkpt>
      <trkpt lat="45.07132" lon="3.53025">
        <ele>540.88</ele>
        <time>2021-10-31T08:14:44Z</time>
      </trkpt>
      <trkpt lat="45.07142" lon="3.53">
        <ele>542.32</ele>
        <time>2021-10-31T08:15:00Z</time>
      </trkpt>
      <trkpt lat="45.07151" lon="3.52976">
        <ele>545.2</ele>
        <time>2021-10-31T08:15:16Z</time>
      </trkpt>
      <trkpt lat="45.07154" lon="3.5297">
        <ele>545.69</ele>
        <time>2021-10-31T08:15:20Z</time>
      </trkpt>
      <trkpt lat="45.07159" lon="3.52957">
        <ele>548.09</ele>
        <time>2021-10-31T08:15:29Z</time>
      </trkpt>
      <trkpt lat="45.07162" lon="3.52948">
        <ele>549.53</ele>
        <time>2021-10-31T08:15:37Z</time>
      </trkpt>
      <trkpt lat="45.07167" lon="3.52923">
        <ele>553.38</ele>
        <time>2021-10-31T08:15:53Z</time>
      </trkpt>
      <trkpt lat="45.07168" lon="3.52919">
        <ele>554.34</ele>
        <time>2021-10-31T08:15:56Z</time>
      </trkpt>
      <trkpt lat="45.07168" lon="3.52916">
        <ele>554.82</ele>
        <time>2021-10-31T08:15:58Z</time>
      </trkpt>
      <trkpt lat="45.07175" lon="3.52891">
        <ele>561.07</ele>
        <time>2021-10-31T08:16:15Z</time>
      </trkpt>
      <trkpt lat="45.0718" lon="3.52877">
        <ele>563.95</ele>
        <time>2021-10-31T08:16:24Z</time>
      </trkpt>
      <trkpt lat="45.07183" lon="3.52857">
        <ele>565.39</ele>
        <time>2021-10-31T08:16:36Z</time>
      </trkpt>
      <trkpt lat="45.0718" lon="3.52845">
        <ele>567.32</ele>
        <time>2021-10-31T08:16:46Z</time>
      </trkpt>
      <trkpt lat="45.07168" lon="3.52825">
        <ele>572.12</ele>
        <time>2021-10-31T08:17:04Z</time>
      </trkpt>
      <trkpt lat="45.07159" lon="3.52807">
        <ele>578.85</ele>
        <time>2021-10-31T08:17:21Z</time>
      </trkpt>
      <trkpt lat="45.07158" lon="3.52793">
        <ele>581.25</ele>
        <time>2021-10-31T08:17:29Z</time>
      </trkpt>
      <trkpt lat="45.0716" lon="3.52785">
        <ele>582.7</ele>
        <time>2021-10-31T08:17:34Z</time>
      </trkpt>
      <trkpt lat="45.07167" lon="3.52762">
        <ele>584.62</ele>
        <time>2021-10-31T08:17:49Z</time>
      </trkpt>
      <trkpt lat="45.07173" lon="3.52735">
        <ele>587.98</ele>
        <time>2021-10-31T08:18:05Z</time>
      </trkpt>
      <trkpt lat="45.07176" lon="3.52718">
        <ele>589.43</ele>
        <time>2021-10-31T08:18:15Z</time>
      </trkpt>
      <trkpt lat="45.07179" lon="3.52704">
        <ele>590.87</ele>
        <time>2021-10-31T08:18:24Z</time>
      </trkpt>
      <trkpt lat="45.07182" lon="3.52684">
        <ele>590.87</ele>
        <time>2021-10-31T08:18:38Z</time>
      </trkpt>
      <trkpt lat="45.07185" lon="3.5266">
        <ele>593.27</ele>
        <time>2021-10-31T08:18:52Z</time>
      </trkpt>
      <trkpt lat="45.0719" lon="3.52636">
        <ele>599.52</ele>
        <time>2021-10-31T08:19:07Z</time>
      </trkpt>
      <trkpt lat="45.0719" lon="3.52634">
        <ele>599.52</ele>
        <time>2021-10-31T08:19:08Z</time>
      </trkpt>
      <trkpt lat="45.07193" lon="3.52609">
        <ele>602.4</ele>
        <time>2021-10-31T08:19:24Z</time>
      </trkpt>
      <trkpt lat="45.07193" lon="3.52594">
        <ele>605.29</ele>
        <time>2021-10-31T08:19:35Z</time>
      </trkpt>
      <trkpt lat="45.07194" lon="3.52579">
        <ele>607.21</ele>
        <time>2021-10-31T08:19:45Z</time>
      </trkpt>
      <trkpt lat="45.07197" lon="3.52567">
        <ele>607.21</ele>
        <time>2021-10-31T08:19:53Z</time>
      </trkpt>
      <trkpt lat="45.07211" lon="3.52554">
        <ele>610.57</ele>
        <time>2021-10-31T08:20:07Z</time>
      </trkpt>
      <trkpt lat="45.07226" lon="3.52548">
        <ele>612.98</ele>
        <time>2021-10-31T08:20:21Z</time>
      </trkpt>
      <trkpt lat="45.07244" lon="3.52548">
        <ele>616.34</ele>
        <time>2021-10-31T08:20:35Z</time>
      </trkpt>
      <trkpt lat="45.07254" lon="3.52549">
        <ele>617.3</ele>
        <time>2021-10-31T08:20:43Z</time>
      </trkpt>
      <trkpt lat="45.07274" lon="3.52548">
        <ele>620.19</ele>
        <time>2021-10-31T08:21:00Z</time>
      </trkpt>
      <trkpt lat="45.07296" lon="3.5254">
        <ele>623.55</ele>
        <time>2021-10-31T08:21:18Z</time>
      </trkpt>
      <trkpt lat="45.07301" lon="3.52537">
        <ele>624.03</ele>
        <time>2021-10-31T08:21:22Z</time>
      </trkpt>
      <trkpt lat="45.07317" lon="3.52526">
        <ele>622.59</ele>
        <time>2021-10-31T08:21:37Z</time>
      </trkpt>
      <trkpt lat="45.07327" lon="3.52517">
        <ele>622.11</ele>
        <time>2021-10-31T08:21:48Z</time>
      </trkpt>
      <trkpt lat="45.07339" lon="3.52504">
        <ele>623.07</ele>
        <time>2021-10-31T08:22:01Z</time>
      </trkpt>
      <trkpt lat="45.07353" lon="3.5249">
        <ele>624.51</ele>
        <time>2021-10-31T08:22:15Z</time>
      </trkpt>
      <trkpt lat="45.07368" lon="3.52479">
        <ele>624.51</ele>
        <time>2021-10-31T08:22:28Z</time>
      </trkpt>
      <trkpt lat="45.07376" lon="3.52473">
        <ele>620.67</ele>
        <time>2021-10-31T08:22:35Z</time>
      </trkpt>
      <trkpt lat="45.07378" lon="3.52471">
        <ele>620.67</ele>
        <time>2021-10-31T08:22:37Z</time>
      </trkpt>
      <trkpt lat="45.07382" lon="3.5247">
        <ele>620.67</ele>
        <time>2021-10-31T08:22:40Z</time>
      </trkpt>
      <trkpt lat="45.07395" lon="3.5246">
        <ele>622.11</ele>
        <time>2021-10-31T08:22:52Z</time>
      </trkpt>
      <trkpt lat="45.07401" lon="3.52454">
        <ele>622.11</ele>
        <time>2021-10-31T08:22:59Z</time>
      </trkpt>
      <trkpt lat="45.07403" lon="3.52453">
        <ele>621.63</ele>
        <time>2021-10-31T08:23:01Z</time>
      </trkpt>
      <trkpt lat="45.07419" lon="3.52441">
        <ele>620.67</ele>
        <time>2021-10-31T08:23:17Z</time>
      </trkpt>
      <trkpt lat="45.07445" lon="3.52427">
        <ele>622.59</ele>
        <time>2021-10-31T08:23:38Z</time>
      </trkpt>
      <trkpt lat="45.07458" lon="3.52408">
        <ele>622.11</ele>
        <time>2021-10-31T08:23:55Z</time>
      </trkpt>
      <trkpt lat="45.07463" lon="3.52377">
        <ele>623.07</ele>
        <time>2021-10-31T08:24:14Z</time>
      </trkpt>
      <trkpt lat="45.07465" lon="3.52346">
        <ele>631.24</ele>
        <time>2021-10-31T08:24:31Z</time>
      </trkpt>
      <trkpt lat="45.07464" lon="3.52313">
        <ele>634.13</ele>
        <time>2021-10-31T08:24:48Z</time>
      </trkpt>
      <trkpt lat="45.07462" lon="3.52281">
        <ele>632.68</ele>
        <time>2021-10-31T08:25:05Z</time>
      </trkpt>
      <trkpt lat="45.07459" lon="3.52249">
        <ele>628.36</ele>
        <time>2021-10-31T08:25:21Z</time>
      </trkpt>
      <trkpt lat="45.07459" lon="3.52219">
        <ele>624.03</ele>
        <time>2021-10-31T08:25:36Z</time>
      </trkpt>
      <trkpt lat="45.07458" lon="3.5219">
        <ele>620.67</ele>
        <time>2021-10-31T08:25:51Z</time>
      </trkpt>
      <trkpt lat="45.07454" lon="3.52158">
        <ele>617.3</ele>
        <time>2021-10-31T08:26:07Z</time>
      </trkpt>
      <trkpt lat="45.07451" lon="3.52139">
        <ele>615.38</ele>
        <time>2021-10-31T08:26:17Z</time>
      </trkpt>
      <trkpt lat="45.07451" lon="3.5213">
        <ele>614.9</ele>
        <time>2021-10-31T08:26:22Z</time>
      </trkpt>
      <trkpt lat="45.0745" lon="3.52096">
        <ele>612.98</ele>
        <time>2021-10-31T08:26:40Z</time>
      </trkpt>
      <trkpt lat="45.07443" lon="3.52065">
        <ele>612.5</ele>
        <time>2021-10-31T08:26:57Z</time>
      </trkpt>
      <trkpt lat="45.07429" lon="3.52044">
        <ele>611.54</ele>
        <time>2021-10-31T08:27:12Z</time>
      </trkpt>
      <trkpt lat="45.07408" lon="3.52038">
        <ele>613.46</ele>
        <time>2021-10-31T08:27:28Z</time>
      </trkpt>
      <trkpt lat="45.07407" lon="3.52039">
        <ele>613.94</ele>
        <time>2021-10-31T08:27:29Z</time>
      </trkpt>
      <trkpt lat="45.07398" lon="3.52038">
        <ele>615.38</ele>
        <time>2021-10-31T08:27:36Z</time>
      </trkpt>
      <trkpt lat="45.07394" lon="3.52039">
        <ele>614.9</ele>
        <time>2021-10-31T08:27:39Z</time>
      </trkpt>
      <trkpt lat="45.07391" lon="3.52039">
        <ele>615.38</ele>
        <time>2021-10-31T08:27:43Z</time>
      </trkpt>
      <trkpt lat="45.07382" lon="3.5204">
        <ele>616.82</ele>
        <time>2021-10-31T08:27:51Z</time>
      </trkpt>
      <trkpt lat="45.07373" lon="3.52041">
        <ele>618.26</ele>
        <time>2021-10-31T08:28:06Z</time>
      </trkpt>
      <trkpt lat="45.07371" lon="3.52041">
        <ele>619.23</ele>
        <time>2021-10-31T08:28:24Z</time>
      </trkpt>
      <trkpt lat="45.07367" lon="3.52041">
        <ele>620.19</ele>
        <time>2021-10-31T08:28:28Z</time>
      </trkpt>
      <trkpt lat="45.07357" lon="3.52043">
        <ele>621.63</ele>
        <time>2021-10-31T08:28:41Z</time>
      </trkpt>
      <trkpt lat="45.07343" lon="3.52043">
        <ele>622.59</ele>
        <time>2021-10-31T08:28:54Z</time>
      </trkpt>
      <trkpt lat="45.0734" lon="3.52043">
        <ele>622.59</ele>
        <time>2021-10-31T08:28:56Z</time>
      </trkpt>
      <trkpt lat="45.07335" lon="3.52046">
        <ele>623.07</ele>
        <time>2021-10-31T08:29:01Z</time>
      </trkpt>
      <trkpt lat="45.07317" lon="3.52049">
        <ele>625.96</ele>
        <time>2021-10-31T08:29:18Z</time>
      </trkpt>
      <trkpt lat="45.07301" lon="3.52051">
        <ele>628.84</ele>
        <time>2021-10-31T08:29:32Z</time>
      </trkpt>
      <trkpt lat="45.07297" lon="3.52051">
        <ele>629.8</ele>
        <time>2021-10-31T08:29:36Z</time>
      </trkpt>
      <trkpt lat="45.0728" lon="3.52052">
        <ele>633.17</ele>
        <time>2021-10-31T08:29:52Z</time>
      </trkpt>
      <trkpt lat="45.07269" lon="3.52054">
        <ele>633.65</ele>
        <time>2021-10-31T08:30:02Z</time>
      </trkpt>
      <trkpt lat="45.07249" lon="3.52057">
        <ele>637.01</ele>
        <time>2021-10-31T08:30:19Z</time>
      </trkpt>
      <trkpt lat="45.0723" lon="3.5206">
        <ele>638.93</ele>
        <time>2021-10-31T08:30:36Z</time>
      </trkpt>
      <trkpt lat="45.07209" lon="3.52063">
        <ele>641.34</ele>
        <time>2021-10-31T08:30:53Z</time>
      </trkpt>
      <trkpt lat="45.07201" lon="3.52063">
        <ele>642.3</ele>
        <time>2021-10-31T08:30:59Z</time>
      </trkpt>
      <trkpt lat="45.07199" lon="3.52065">
        <ele>642.78</ele>
        <time>2021-10-31T08:31:01Z</time>
      </trkpt>
      <trkpt lat="45.07177" lon="3.52071">
        <ele>644.22</ele>
        <time>2021-10-31T08:31:20Z</time>
      </trkpt>
      <trkpt lat="45.07158" lon="3.52082">
        <ele>646.62</ele>
        <time>2021-10-31T08:31:37Z</time>
      </trkpt>
      <trkpt lat="45.07141" lon="3.52102">
        <ele>648.07</ele>
        <time>2021-10-31T08:31:55Z</time>
      </trkpt>
      <trkpt lat="45.07133" lon="3.52114">
        <ele>649.03</ele>
        <time>2021-10-31T08:32:04Z</time>
      </trkpt>
      <trkpt lat="45.07127" lon="3.5212">
        <ele>650.47</ele>
        <time>2021-10-31T08:32:10Z</time>
      </trkpt>
      <trkpt lat="45.07119" lon="3.52123">
        <ele>650.95</ele>
        <time>2021-10-31T08:32:16Z</time>
      </trkpt>
      <trkpt lat="45.07106" lon="3.52127">
        <ele>653.83</ele>
        <time>2021-10-31T08:32:29Z</time>
      </trkpt>
      <trkpt lat="45.0709" lon="3.52138">
        <ele>655.28</ele>
        <time>2021-10-31T08:32:45Z</time>
      </trkpt>
      <trkpt lat="45.07069" lon="3.52155">
        <ele>658.64</ele>
        <time>2021-10-31T08:33:05Z</time>
      </trkpt>
      <trkpt lat="45.0705" lon="3.52164">
        <ele>661.52</ele>
        <time>2021-10-31T08:33:22Z</time>
      </trkpt>
      <trkpt lat="45.07033" lon="3.52172">
        <ele>663.93</ele>
        <time>2021-10-31T08:33:39Z</time>
      </trkpt>
      <trkpt lat="45.07015" lon="3.52182">
        <ele>666.81</ele>
        <time>2021-10-31T08:33:59Z</time>
      </trkpt>
      <trkpt lat="45.06994" lon="3.52189">
        <ele>671.14</ele>
        <time>2021-10-31T08:34:16Z</time>
      </trkpt>
      <trkpt lat="45.06984" lon="3.52192">
        <ele>671.14</ele>
        <time>2021-10-31T08:34:28Z</time>
      </trkpt>
      <trkpt lat="45.0697" lon="3.52197">
        <ele>670.18</ele>
        <time>2021-10-31T08:34:44Z</time>
      </trkpt>
      <trkpt lat="45.06955" lon="3.52199">
        <ele>672.58</ele>
        <time>2021-10-31T08:34:58Z</time>
      </trkpt>
      <trkpt lat="45.0694" lon="3.522">
        <ele>677.39</ele>
        <time>2021-10-31T08:35:11Z</time>
      </trkpt>
      <trkpt lat="45.06922" lon="3.52208">
        <ele>683.63</ele>
        <time>2021-10-31T08:35:29Z</time>
      </trkpt>
      <trkpt lat="45.06911" lon="3.5221">
        <ele>686.52</ele>
        <time>2021-10-31T08:35:43Z</time>
      </trkpt>
      <trkpt lat="45.06898" lon="3.52214">
        <ele>687.48</ele>
        <time>2021-10-31T08:35:58Z</time>
      </trkpt>
      <trkpt lat="45.06884" lon="3.52217">
        <ele>687.48</ele>
        <time>2021-10-31T08:36:12Z</time>
      </trkpt>
      <trkpt lat="45.0687" lon="3.52218">
        <ele>687.96</ele>
        <time>2021-10-31T08:36:26Z</time>
      </trkpt>
      <trkpt lat="45.06856" lon="3.52217">
        <ele>694.21</ele>
        <time>2021-10-31T08:36:41Z</time>
      </trkpt>
      <trkpt lat="45.06841" lon="3.52216">
        <ele>702.86</ele>
        <time>2021-10-31T08:36:56Z</time>
      </trkpt>
      <trkpt lat="45.06825" lon="3.52218">
        <ele>708.15</ele>
        <time>2021-10-31T08:37:10Z</time>
      </trkpt>
      <trkpt lat="45.06809" lon="3.52216">
        <ele>709.11</ele>
        <time>2021-10-31T08:37:25Z</time>
      </trkpt>
      <trkpt lat="45.06794" lon="3.52215">
        <ele>709.11</ele>
        <time>2021-10-31T08:37:38Z</time>
      </trkpt>
      <trkpt lat="45.06779" lon="3.52215">
        <ele>712.47</ele>
        <time>2021-10-31T08:37:53Z</time>
      </trkpt>
      <trkpt lat="45.06761" lon="3.52214">
        <ele>716.8</ele>
        <time>2021-10-31T08:38:09Z</time>
      </trkpt>
      <trkpt lat="45.06746" lon="3.52214">
        <ele>720.16</ele>
        <time>2021-10-31T08:38:25Z</time>
      </trkpt>
      <trkpt lat="45.06731" lon="3.52216">
        <ele>723.53</ele>
        <time>2021-10-31T08:38:40Z</time>
      </trkpt>
      <trkpt lat="45.06716" lon="3.52218">
        <ele>725.45</ele>
        <time>2021-10-31T08:38:53Z</time>
      </trkpt>
      <trkpt lat="45.06712" lon="3.52221">
        <ele>727.86</ele>
        <time>2021-10-31T08:39:04Z</time>
      </trkpt>
      <trkpt lat="45.06711" lon="3.52221">
        <ele>730.74</ele>
        <time>2021-10-31T08:39:37Z</time>
      </trkpt>
      <trkpt lat="45.0671" lon="3.52222">
        <ele>732.18</ele>
        <time>2021-10-31T08:40:23Z</time>
      </trkpt>
      <trkpt lat="45.0671" lon="3.52222">
        <ele>732.18</ele>
        <time>2021-10-31T08:41:06Z</time>
      </trkpt>
      <trkpt lat="45.0671" lon="3.52222">
        <ele>733.14</ele>
        <time>2021-10-31T08:41:46Z</time>
      </trkpt>
      <trkpt lat="45.0671" lon="3.52222">
        <ele>733.14</ele>
        <time>2021-10-31T08:42:26Z</time>
      </trkpt>
      <trkpt lat="45.06709" lon="3.52221">
        <ele>735.07</ele>
        <time>2021-10-31T08:43:03Z</time>
      </trkpt>
      <trkpt lat="45.06711" lon="3.5222">
        <ele>736.51</ele>
        <time>2021-10-31T08:43:40Z</time>
      </trkpt>
      <trkpt lat="45.06711" lon="3.52219">
        <ele>736.51</ele>
        <time>2021-10-31T08:43:55Z</time>
      </trkpt>
      <trkpt lat="45.06711" lon="3.52215">
        <ele>736.99</ele>
        <time>2021-10-31T08:44:07Z</time>
      </trkpt>
      <trkpt lat="45.06712" lon="3.52216">
        <ele>736.51</ele>
        <time>2021-10-31T08:44:19Z</time>
      </trkpt>
      <trkpt lat="45.06712" lon="3.52217">
        <ele>736.51</ele>
        <time>2021-10-31T08:44:29Z</time>
      </trkpt>
      <trkpt lat="45.06711" lon="3.52218">
        <ele>736.03</ele>
        <time>2021-10-31T08:44:39Z</time>
      </trkpt>
      <trkpt lat="45.06711" lon="3.52219">
        <ele>736.03</ele>
        <time>2021-10-31T08:44:53Z</time>
      </trkpt>
      <trkpt lat="45.06706" lon="3.52216">
        <ele>737.47</ele>
        <time>2021-10-31T08:45:06Z</time>
      </trkpt>
      <trkpt lat="45.06692" lon="3.52216">
        <ele>740.83</ele>
        <time>2021-10-31T08:45:21Z</time>
      </trkpt>
      <trkpt lat="45.06678" lon="3.52218">
        <ele>743.72</ele>
        <time>2021-10-31T08:45:34Z</time>
      </trkpt>
      <trkpt lat="45.06657" lon="3.52216">
        <ele>746.12</ele>
        <time>2021-10-31T08:45:50Z</time>
      </trkpt>
      <trkpt lat="45.06641" lon="3.52214">
        <ele>747.56</ele>
        <time>2021-10-31T08:46:02Z</time>
      </trkpt>
      <trkpt lat="45.0662" lon="3.52216">
        <ele>747.08</ele>
        <time>2021-10-31T08:46:19Z</time>
      </trkpt>
      <trkpt lat="45.06601" lon="3.52214">
        <ele>747.56</ele>
        <time>2021-10-31T08:46:33Z</time>
      </trkpt>
      <trkpt lat="45.06582" lon="3.52208">
        <ele>750.93</ele>
        <time>2021-10-31T08:46:49Z</time>
      </trkpt>
      <trkpt lat="45.06563" lon="3.52202">
        <ele>754.77</ele>
        <time>2021-10-31T08:47:04Z</time>
      </trkpt>
      <trkpt lat="45.06559" lon="3.52201">
        <ele>755.25</ele>
        <time>2021-10-31T08:47:07Z</time>
      </trkpt>
      <trkpt lat="45.06535" lon="3.52196">
        <ele>756.21</ele>
        <time>2021-10-31T08:47:22Z</time>
      </trkpt>
      <trkpt lat="45.06517" lon="3.52191">
        <ele>757.66</ele>
        <time>2021-10-31T08:47:35Z</time>
      </trkpt>
      <trkpt lat="45.06494" lon="3.52183">
        <ele>758.62</ele>
        <time>2021-10-31T08:47:52Z</time>
      </trkpt>
      <trkpt lat="45.06479" lon="3.52174">
        <ele>761.5</ele>
        <time>2021-10-31T08:48:06Z</time>
      </trkpt>
      <trkpt lat="45.06477" lon="3.52172">
        <ele>761.98</ele>
        <time>2021-10-31T08:48:08Z</time>
      </trkpt>
      <trkpt lat="45.06472" lon="3.52166">
        <ele>762.94</ele>
        <time>2021-10-31T08:48:15Z</time>
      </trkpt>
      <trkpt lat="45.0647" lon="3.52164">
        <ele>762.94</ele>
        <time>2021-10-31T08:48:20Z</time>
      </trkpt>
      <trkpt lat="45.06461" lon="3.52155">
        <ele>766.79</ele>
        <time>2021-10-31T08:48:33Z</time>
      </trkpt>
      <trkpt lat="45.06448" lon="3.52143">
        <ele>768.71</ele>
        <time>2021-10-31T08:48:47Z</time>
      </trkpt>
      <trkpt lat="45.06437" lon="3.52127">
        <ele>774</ele>
        <time>2021-10-31T08:49:02Z</time>
      </trkpt>
      <trkpt lat="45.06431" lon="3.52113">
        <ele>777.36</ele>
        <time>2021-10-31T08:49:13Z</time>
      </trkpt>
      <trkpt lat="45.06417" lon="3.52099">
        <ele>778.32</ele>
        <time>2021-10-31T08:49:28Z</time>
      </trkpt>
      <trkpt lat="45.06406" lon="3.52081">
        <ele>782.17</ele>
        <time>2021-10-31T08:49:42Z</time>
      </trkpt>
      <trkpt lat="45.06393" lon="3.52062">
        <ele>785.53</ele>
        <time>2021-10-31T08:49:56Z</time>
      </trkpt>
      <trkpt lat="45.06382" lon="3.52048">
        <ele>785.53</ele>
        <time>2021-10-31T08:50:07Z</time>
      </trkpt>
      <trkpt lat="45.06367" lon="3.52034">
        <ele>786.98</ele>
        <time>2021-10-31T08:50:21Z</time>
      </trkpt>
      <trkpt lat="45.06351" lon="3.52017">
        <ele>788.9</ele>
        <time>2021-10-31T08:50:38Z</time>
      </trkpt>
      <trkpt lat="45.06331" lon="3.52001">
        <ele>786.98</ele>
        <time>2021-10-31T08:50:55Z</time>
      </trkpt>
      <trkpt lat="45.06312" lon="3.5199">
        <ele>784.57</ele>
        <time>2021-10-31T08:51:11Z</time>
      </trkpt>
      <trkpt lat="45.0629" lon="3.5197">
        <ele>779.29</ele>
        <time>2021-10-31T08:51:28Z</time>
      </trkpt>
      <trkpt lat="45.06265" lon="3.5195">
        <ele>777.84</ele>
        <time>2021-10-31T08:51:49Z</time>
      </trkpt>
      <trkpt lat="45.06242" lon="3.51942">
        <ele>778.81</ele>
        <time>2021-10-31T08:52:07Z</time>
      </trkpt>
      <trkpt lat="45.06217" lon="3.51935">
        <ele>780.25</ele>
        <time>2021-10-31T08:52:26Z</time>
      </trkpt>
      <trkpt lat="45.06211" lon="3.51932">
        <ele>780.25</ele>
        <time>2021-10-31T08:52:31Z</time>
      </trkpt>
      <trkpt lat="45.06205" lon="3.51929">
        <ele>781.21</ele>
        <time>2021-10-31T08:52:36Z</time>
      </trkpt>
      <trkpt lat="45.062" lon="3.51925">
        <ele>781.21</ele>
        <time>2021-10-31T08:52:40Z</time>
      </trkpt>
      <trkpt lat="45.0618" lon="3.51903">
        <ele>781.21</ele>
        <time>2021-10-31T08:52:59Z</time>
      </trkpt>
      <trkpt lat="45.06166" lon="3.51875">
        <ele>782.65</ele>
        <time>2021-10-31T08:53:17Z</time>
      </trkpt>
      <trkpt lat="45.06156" lon="3.51843">
        <ele>784.57</ele>
        <time>2021-10-31T08:53:35Z</time>
      </trkpt>
      <trkpt lat="45.06149" lon="3.51824">
        <ele>786.02</ele>
        <time>2021-10-31T08:53:46Z</time>
      </trkpt>
      <trkpt lat="45.0614" lon="3.518">
        <ele>789.86</ele>
        <time>2021-10-31T08:54:02Z</time>
      </trkpt>
      <trkpt lat="45.06131" lon="3.51779">
        <ele>793.71</ele>
        <time>2021-10-31T08:54:17Z</time>
      </trkpt>
      <trkpt lat="45.06122" lon="3.51749">
        <ele>795.63</ele>
        <time>2021-10-31T08:54:34Z</time>
      </trkpt>
      <trkpt lat="45.06117" lon="3.51718">
        <ele>798.99</ele>
        <time>2021-10-31T08:54:51Z</time>
      </trkpt>
      <trkpt lat="45.06113" lon="3.51691">
        <ele>800.44</ele>
        <time>2021-10-31T08:55:07Z</time>
      </trkpt>
      <trkpt lat="45.06114" lon="3.51664">
        <ele>803.32</ele>
        <time>2021-10-31T08:55:23Z</time>
      </trkpt>
      <trkpt lat="45.06116" lon="3.51649">
        <ele>803.8</ele>
        <time>2021-10-31T08:55:32Z</time>
      </trkpt>
      <trkpt lat="45.06121" lon="3.51626">
        <ele>805.24</ele>
        <time>2021-10-31T08:55:48Z</time>
      </trkpt>
      <trkpt lat="45.06129" lon="3.51606">
        <ele>806.2</ele>
        <time>2021-10-31T08:56:02Z</time>
      </trkpt>
      <trkpt lat="45.06141" lon="3.51584">
        <ele>806.68</ele>
        <time>2021-10-31T08:56:18Z</time>
      </trkpt>
      <trkpt lat="45.06155" lon="3.51563">
        <ele>809.09</ele>
        <time>2021-10-31T08:56:35Z</time>
      </trkpt>
      <trkpt lat="45.06157" lon="3.51561">
        <ele>810.05</ele>
        <time>2021-10-31T08:56:37Z</time>
      </trkpt>
      <trkpt lat="45.06161" lon="3.51554">
        <ele>811.97</ele>
        <time>2021-10-31T08:56:42Z</time>
      </trkpt>
      <trkpt lat="45.0617" lon="3.51531">
        <ele>816.78</ele>
        <time>2021-10-31T08:56:57Z</time>
      </trkpt>
      <trkpt lat="45.06174" lon="3.5152">
        <ele>820.14</ele>
        <time>2021-10-31T08:57:04Z</time>
      </trkpt>
      <trkpt lat="45.06174" lon="3.51518">
        <ele>821.58</ele>
        <time>2021-10-31T08:57:06Z</time>
      </trkpt>
      <trkpt lat="45.06183" lon="3.51495">
        <ele>825.43</ele>
        <time>2021-10-31T08:57:22Z</time>
      </trkpt>
      <trkpt lat="45.06192" lon="3.51471">
        <ele>830.24</ele>
        <time>2021-10-31T08:57:38Z</time>
      </trkpt>
      <trkpt lat="45.062" lon="3.51451">
        <ele>832.16</ele>
        <time>2021-10-31T08:57:52Z</time>
      </trkpt>
      <trkpt lat="45.06205" lon="3.51429">
        <ele>836.96</ele>
        <time>2021-10-31T08:58:05Z</time>
      </trkpt>
      <trkpt lat="45.06212" lon="3.514">
        <ele>836.96</ele>
        <time>2021-10-31T08:58:19Z</time>
      </trkpt>
      <trkpt lat="45.06213" lon="3.51396">
        <ele>836.96</ele>
        <time>2021-10-31T08:58:21Z</time>
      </trkpt>
      <trkpt lat="45.06224" lon="3.51363">
        <ele>838.89</ele>
        <time>2021-10-31T08:58:40Z</time>
      </trkpt>
      <trkpt lat="45.06228" lon="3.51334">
        <ele>836.96</ele>
        <time>2021-10-31T08:58:55Z</time>
      </trkpt>
      <trkpt lat="45.06228" lon="3.51332">
        <ele>836.96</ele>
        <time>2021-10-31T08:58:56Z</time>
      </trkpt>
      <trkpt lat="45.06229" lon="3.51298">
        <ele>838.41</ele>
        <time>2021-10-31T08:59:13Z</time>
      </trkpt>
      <trkpt lat="45.0623" lon="3.51261">
        <ele>837.45</ele>
        <time>2021-10-31T08:59:30Z</time>
      </trkpt>
      <trkpt lat="45.06227" lon="3.51234">
        <ele>836.48</ele>
        <time>2021-10-31T08:59:45Z</time>
      </trkpt>
      <trkpt lat="45.06222" lon="3.51214">
        <ele>830.24</ele>
        <time>2021-10-31T08:59:57Z</time>
      </trkpt>
      <trkpt lat="45.06216" lon="3.51199">
        <ele>824.47</ele>
        <time>2021-10-31T09:00:08Z</time>
      </trkpt>
      <trkpt lat="45.06206" lon="3.5118">
        <ele>820.14</ele>
        <time>2021-10-31T09:00:23Z</time>
      </trkpt>
      <trkpt lat="45.06192" lon="3.51162">
        <ele>818.7</ele>
        <time>2021-10-31T09:00:38Z</time>
      </trkpt>
      <trkpt lat="45.06171" lon="3.51143">
        <ele>817.26</ele>
        <time>2021-10-31T09:00:57Z</time>
      </trkpt>
      <trkpt lat="45.06162" lon="3.51133">
        <ele>817.26</ele>
        <time>2021-10-31T09:01:06Z</time>
      </trkpt>
      <trkpt lat="45.06145" lon="3.51113">
        <ele>816.78</ele>
        <time>2021-10-31T09:01:23Z</time>
      </trkpt>
      <trkpt lat="45.06129" lon="3.51094">
        <ele>817.26</ele>
        <time>2021-10-31T09:01:38Z</time>
      </trkpt>
      <trkpt lat="45.06128" lon="3.51093">
        <ele>817.74</ele>
        <time>2021-10-31T09:01:39Z</time>
      </trkpt>
      <trkpt lat="45.06122" lon="3.51087">
        <ele>818.22</ele>
        <time>2021-10-31T09:01:44Z</time>
      </trkpt>
      <trkpt lat="45.06106" lon="3.51067">
        <ele>818.22</ele>
        <time>2021-10-31T09:02:01Z</time>
      </trkpt>
      <trkpt lat="45.06093" lon="3.5105">
        <ele>816.3</ele>
        <time>2021-10-31T09:02:17Z</time>
      </trkpt>
      <trkpt lat="45.06083" lon="3.51042">
        <ele>814.37</ele>
        <time>2021-10-31T09:02:26Z</time>
      </trkpt>
      <trkpt lat="45.0608" lon="3.5104">
        <ele>813.89</ele>
        <time>2021-10-31T09:02:29Z</time>
      </trkpt>
      <trkpt lat="45.06073" lon="3.51035">
        <ele>812.93</ele>
        <time>2021-10-31T09:02:35Z</time>
      </trkpt>
      <trkpt lat="45.06069" lon="3.51032">
        <ele>811.97</ele>
        <time>2021-10-31T09:02:39Z</time>
      </trkpt>
      <trkpt lat="45.06059" lon="3.51026">
        <ele>810.53</ele>
        <time>2021-10-31T09:02:47Z</time>
      </trkpt>
      <trkpt lat="45.0604" lon="3.51015">
        <ele>807.64</ele>
        <time>2021-10-31T09:03:04Z</time>
      </trkpt>
      <trkpt lat="45.0604" lon="3.51015">
        <ele>806.68</ele>
        <time>2021-10-31T09:03:13Z</time>
      </trkpt>
      <trkpt lat="45.06039" lon="3.51015">
        <ele>805.72</ele>
        <time>2021-10-31T09:03:27Z</time>
      </trkpt>
      <trkpt lat="45.06038" lon="3.51013">
        <ele>806.2</ele>
        <time>2021-10-31T09:03:30Z</time>
      </trkpt>
      <trkpt lat="45.06033" lon="3.5101">
        <ele>806.2</ele>
        <time>2021-10-31T09:03:42Z</time>
      </trkpt>
      <trkpt lat="45.06032" lon="3.51009">
        <ele>806.2</ele>
        <time>2021-10-31T09:03:47Z</time>
      </trkpt>
      <trkpt lat="45.06023" lon="3.51003">
        <ele>805.24</ele>
        <time>2021-10-31T09:03:56Z</time>
      </trkpt>
      <trkpt lat="45.06008" lon="3.50996">
        <ele>804.28</ele>
        <time>2021-10-31T09:04:09Z</time>
      </trkpt>
      <trkpt lat="45.05985" lon="3.50986">
        <ele>804.28</ele>
        <time>2021-10-31T09:04:27Z</time>
      </trkpt>
      <trkpt lat="45.05968" lon="3.50976">
        <ele>803.32</ele>
        <time>2021-10-31T09:04:42Z</time>
      </trkpt>
      <trkpt lat="45.05955" lon="3.50973">
        <ele>803.8</ele>
        <time>2021-10-31T09:04:53Z</time>
      </trkpt>
      <trkpt lat="45.05937" lon="3.50955">
        <ele>805.72</ele>
        <time>2021-10-31T09:05:11Z</time>
      </trkpt>
      <trkpt lat="45.05917" lon="3.50951">
        <ele>803.8</ele>
        <time>2021-10-31T09:05:27Z</time>
      </trkpt>
      <trkpt lat="45.05895" lon="3.50955">
        <ele>805.24</ele>
        <time>2021-10-31T09:05:44Z</time>
      </trkpt>
      <trkpt lat="45.05876" lon="3.5096">
        <ele>808.13</ele>
        <time>2021-10-31T09:06:00Z</time>
      </trkpt>
      <trkpt lat="45.05865" lon="3.50972">
        <ele>810.53</ele>
        <time>2021-10-31T09:06:13Z</time>
      </trkpt>
      <trkpt lat="45.05849" lon="3.5098">
        <ele>813.41</ele>
        <time>2021-10-31T09:06:29Z</time>
      </trkpt>
      <trkpt lat="45.05844" lon="3.50981">
        <ele>814.85</ele>
        <time>2021-10-31T09:06:34Z</time>
      </trkpt>
      <trkpt lat="45.0583" lon="3.50973">
        <ele>817.74</ele>
        <time>2021-10-31T09:06:50Z</time>
      </trkpt>
      <trkpt lat="45.0582" lon="3.50963">
        <ele>820.14</ele>
        <time>2021-10-31T09:07:04Z</time>
      </trkpt>
      <trkpt lat="45.05812" lon="3.50954">
        <ele>821.58</ele>
        <time>2021-10-31T09:07:15Z</time>
      </trkpt>
      <trkpt lat="45.05807" lon="3.50948">
        <ele>822.06</ele>
        <time>2021-10-31T09:07:21Z</time>
      </trkpt>
      <trkpt lat="45.05804" lon="3.50943">
        <ele>823.03</ele>
        <time>2021-10-31T09:07:25Z</time>
      </trkpt>
      <trkpt lat="45.05789" lon="3.50916">
        <ele>824.95</ele>
        <time>2021-10-31T09:07:43Z</time>
      </trkpt>
      <trkpt lat="45.05786" lon="3.5091">
        <ele>824.95</ele>
        <time>2021-10-31T09:07:47Z</time>
      </trkpt>
      <trkpt lat="45.05776" lon="3.50886">
        <ele>825.43</ele>
        <time>2021-10-31T09:08:03Z</time>
      </trkpt>
      <trkpt lat="45.0577" lon="3.50874">
        <ele>825.91</ele>
        <time>2021-10-31T09:08:11Z</time>
      </trkpt>
      <trkpt lat="45.05765" lon="3.50867">
        <ele>826.39</ele>
        <time>2021-10-31T09:08:16Z</time>
      </trkpt>
      <trkpt lat="45.05752" lon="3.50842">
        <ele>829.27</ele>
        <time>2021-10-31T09:08:33Z</time>
      </trkpt>
      <trkpt lat="45.05746" lon="3.50831">
        <ele>830.24</ele>
        <time>2021-10-31T09:08:40Z</time>
      </trkpt>
      <trkpt lat="45.05743" lon="3.50825">
        <ele>830.24</ele>
        <time>2021-10-31T09:08:44Z</time>
      </trkpt>
      <trkpt lat="45.05728" lon="3.50803">
        <ele>830.24</ele>
        <time>2021-10-31T09:09:00Z</time>
      </trkpt>
      <trkpt lat="45.05722" lon="3.50795">
        <ele>832.16</ele>
        <time>2021-10-31T09:09:06Z</time>
      </trkpt>
      <trkpt lat="45.05713" lon="3.50782">
        <ele>832.64</ele>
        <time>2021-10-31T09:09:15Z</time>
      </trkpt>
      <trkpt lat="45.05705" lon="3.50768">
        <ele>833.12</ele>
        <time>2021-10-31T09:09:24Z</time>
      </trkpt>
      <trkpt lat="45.05686" lon="3.50742">
        <ele>833.12</ele>
        <time>2021-10-31T09:09:42Z</time>
      </trkpt>
      <trkpt lat="45.05668" lon="3.50724">
        <ele>832.16</ele>
        <time>2021-10-31T09:09:58Z</time>
      </trkpt>
      <trkpt lat="45.05644" lon="3.50705">
        <ele>831.68</ele>
        <time>2021-10-31T09:10:17Z</time>
      </trkpt>
      <trkpt lat="45.05622" lon="3.50694">
        <ele>832.16</ele>
        <time>2021-10-31T09:10:33Z</time>
      </trkpt>
      <trkpt lat="45.05598" lon="3.50689">
        <ele>833.6</ele>
        <time>2021-10-31T09:10:51Z</time>
      </trkpt>
      <trkpt lat="45.05575" lon="3.50686">
        <ele>835.04</ele>
        <time>2021-10-31T09:11:08Z</time>
      </trkpt>
      <trkpt lat="45.05549" lon="3.5069">
        <ele>836.48</ele>
        <time>2021-10-31T09:11:27Z</time>
      </trkpt>
      <trkpt lat="45.05527" lon="3.50699">
        <ele>837.93</ele>
        <time>2021-10-31T09:11:44Z</time>
      </trkpt>
      <trkpt lat="45.05504" lon="3.50713">
        <ele>836</ele>
        <time>2021-10-31T09:12:02Z</time>
      </trkpt>
      <trkpt lat="45.05478" lon="3.50729">
        <ele>836</ele>
        <time>2021-10-31T09:12:22Z</time>
      </trkpt>
      <trkpt lat="45.05452" lon="3.50737">
        <ele>834.56</ele>
        <time>2021-10-31T09:12:42Z</time>
      </trkpt>
      <trkpt lat="45.05428" lon="3.50737">
        <ele>832.64</ele>
        <time>2021-10-31T09:13:00Z</time>
      </trkpt>
      <trkpt lat="45.05402" lon="3.50728">
        <ele>832.16</ele>
        <time>2021-10-31T09:13:20Z</time>
      </trkpt>
      <trkpt lat="45.05375" lon="3.50715">
        <ele>833.6</ele>
        <time>2021-10-31T09:13:42Z</time>
      </trkpt>
      <trkpt lat="45.05354" lon="3.50703">
        <ele>833.6</ele>
        <time>2021-10-31T09:13:59Z</time>
      </trkpt>
      <trkpt lat="45.0533" lon="3.50692">
        <ele>831.68</ele>
        <time>2021-10-31T09:14:17Z</time>
      </trkpt>
      <trkpt lat="45.05302" lon="3.50672">
        <ele>829.76</ele>
        <time>2021-10-31T09:14:38Z</time>
      </trkpt>
      <trkpt lat="45.0528" lon="3.50655">
        <ele>827.83</ele>
        <time>2021-10-31T09:14:55Z</time>
      </trkpt>
      <trkpt lat="45.05257" lon="3.50634">
        <ele>825.91</ele>
        <time>2021-10-31T09:15:13Z</time>
      </trkpt>
      <trkpt lat="45.05234" lon="3.5061">
        <ele>827.83</ele>
        <time>2021-10-31T09:15:32Z</time>
      </trkpt>
      <trkpt lat="45.05216" lon="3.50592">
        <ele>828.79</ele>
        <time>2021-10-31T09:15:49Z</time>
      </trkpt>
      <trkpt lat="45.05214" lon="3.5059">
        <ele>828.31</ele>
        <time>2021-10-31T09:15:51Z</time>
      </trkpt>
      <trkpt lat="45.05208" lon="3.50585">
        <ele>828.31</ele>
        <time>2021-10-31T09:15:56Z</time>
      </trkpt>
      <trkpt lat="45.05188" lon="3.50567">
        <ele>827.83</ele>
        <time>2021-10-31T09:16:13Z</time>
      </trkpt>
      <trkpt lat="45.05172" lon="3.50552">
        <ele>827.83</ele>
        <time>2021-10-31T09:16:29Z</time>
      </trkpt>
      <trkpt lat="45.05166" lon="3.50542">
        <ele>826.87</ele>
        <time>2021-10-31T09:16:36Z</time>
      </trkpt>
      <trkpt lat="45.05151" lon="3.50526">
        <ele>824.95</ele>
        <time>2021-10-31T09:16:50Z</time>
      </trkpt>
      <trkpt lat="45.05134" lon="3.50505">
        <ele>824.95</ele>
        <time>2021-10-31T09:17:07Z</time>
      </trkpt>
      <trkpt lat="45.05133" lon="3.50504">
        <ele>825.43</ele>
        <time>2021-10-31T09:17:08Z</time>
      </trkpt>
      <trkpt lat="45.05128" lon="3.50498">
        <ele>824.95</ele>
        <time>2021-10-31T09:17:13Z</time>
      </trkpt>
      <trkpt lat="45.05113" lon="3.50476">
        <ele>823.03</ele>
        <time>2021-10-31T09:17:29Z</time>
      </trkpt>
      <trkpt lat="45.051" lon="3.50449">
        <ele>819.66</ele>
        <time>2021-10-31T09:17:46Z</time>
      </trkpt>
      <trkpt lat="45.05095" lon="3.50439">
        <ele>819.66</ele>
        <time>2021-10-31T09:17:53Z</time>
      </trkpt>
      <trkpt lat="45.0509" lon="3.50429">
        <ele>819.66</ele>
        <time>2021-10-31T09:18:00Z</time>
      </trkpt>
      <trkpt lat="45.05076" lon="3.50409">
        <ele>817.74</ele>
        <time>2021-10-31T09:18:14Z</time>
      </trkpt>
      <trkpt lat="45.0506" lon="3.50425">
        <ele>816.78</ele>
        <time>2021-10-31T09:18:29Z</time>
      </trkpt>
      <trkpt lat="45.05054" lon="3.50427">
        <ele>816.3</ele>
        <time>2021-10-31T09:18:35Z</time>
      </trkpt>
      <trkpt lat="45.05045" lon="3.50428">
        <ele>817.26</ele>
        <time>2021-10-31T09:18:43Z</time>
      </trkpt>
      <trkpt lat="45.05028" lon="3.50433">
        <ele>819.66</ele>
        <time>2021-10-31T09:18:58Z</time>
      </trkpt>
      <trkpt lat="45.05008" lon="3.50434">
        <ele>818.22</ele>
        <time>2021-10-31T09:19:13Z</time>
      </trkpt>
      <trkpt lat="45.04997" lon="3.50436">
        <ele>817.74</ele>
        <time>2021-10-31T09:19:22Z</time>
      </trkpt>
      <trkpt lat="45.0498" lon="3.50434">
        <ele>816.78</ele>
        <time>2021-10-31T09:19:36Z</time>
      </trkpt>
      <trkpt lat="45.04962" lon="3.50439">
        <ele>820.14</ele>
        <time>2021-10-31T09:19:50Z</time>
      </trkpt>
      <trkpt lat="45.04947" lon="3.50449">
        <ele>818.7</ele>
        <time>2021-10-31T09:20:05Z</time>
      </trkpt>
      <trkpt lat="45.04934" lon="3.50456">
        <ele>818.22</ele>
        <time>2021-10-31T09:20:16Z</time>
      </trkpt>
      <trkpt lat="45.04913" lon="3.50461">
        <ele>813.89</ele>
        <time>2021-10-31T09:20:32Z</time>
      </trkpt>
      <trkpt lat="45.04895" lon="3.50468">
        <ele>813.41</ele>
        <time>2021-10-31T09:20:46Z</time>
      </trkpt>
      <trkpt lat="45.04875" lon="3.50475">
        <ele>812.45</ele>
        <time>2021-10-31T09:21:01Z</time>
      </trkpt>
      <trkpt lat="45.04863" lon="3.50479">
        <ele>811.97</ele>
        <time>2021-10-31T09:21:11Z</time>
      </trkpt>
      <trkpt lat="45.04857" lon="3.50479">
        <ele>811.49</ele>
        <time>2021-10-31T09:21:16Z</time>
      </trkpt>
      <trkpt lat="45.04836" lon="3.50476">
        <ele>808.13</ele>
        <time>2021-10-31T09:21:31Z</time>
      </trkpt>
      <trkpt lat="45.04827" lon="3.50472">
        <ele>805.72</ele>
        <time>2021-10-31T09:21:39Z</time>
      </trkpt>
      <trkpt lat="45.04813" lon="3.50465">
        <ele>804.76</ele>
        <time>2021-10-31T09:21:51Z</time>
      </trkpt>
      <trkpt lat="45.04796" lon="3.50461">
        <ele>804.76</ele>
        <time>2021-10-31T09:22:03Z</time>
      </trkpt>
      <trkpt lat="45.04783" lon="3.50463">
        <ele>805.72</ele>
        <time>2021-10-31T09:22:17Z</time>
      </trkpt>
      <trkpt lat="45.04781" lon="3.50466">
        <ele>805.72</ele>
        <time>2021-10-31T09:22:19Z</time>
      </trkpt>
      <trkpt lat="45.04778" lon="3.5047">
        <ele>806.68</ele>
        <time>2021-10-31T09:22:23Z</time>
      </trkpt>
      <trkpt lat="45.04768" lon="3.50488">
        <ele>804.76</ele>
        <time>2021-10-31T09:22:37Z</time>
      </trkpt>
      <trkpt lat="45.04764" lon="3.50497">
        <ele>799.47</ele>
        <time>2021-10-31T09:22:50Z</time>
      </trkpt>
      <trkpt lat="45.04761" lon="3.50499">
        <ele>797.07</ele>
        <time>2021-10-31T09:22:53Z</time>
      </trkpt>
      <trkpt lat="45.04754" lon="3.50506">
        <ele>796.11</ele>
        <time>2021-10-31T09:23:01Z</time>
      </trkpt>
      <trkpt lat="45.04749" lon="3.50509">
        <ele>795.63</ele>
        <time>2021-10-31T09:23:06Z</time>
      </trkpt>
      <trkpt lat="45.04733" lon="3.50521">
        <ele>793.71</ele>
        <time>2021-10-31T09:23:20Z</time>
      </trkpt>
      <trkpt lat="45.04721" lon="3.50527">
        <ele>789.86</ele>
        <time>2021-10-31T09:23:30Z</time>
      </trkpt>
      <trkpt lat="45.04705" lon="3.50537">
        <ele>786.98</ele>
        <time>2021-10-31T09:23:44Z</time>
      </trkpt>
      <trkpt lat="45.04691" lon="3.50541">
        <ele>786.5</ele>
        <time>2021-10-31T09:23:56Z</time>
      </trkpt>
      <trkpt lat="45.04687" lon="3.50543">
        <ele>786.02</ele>
        <time>2021-10-31T09:23:59Z</time>
      </trkpt>
      <trkpt lat="45.04673" lon="3.5055">
        <ele>784.57</ele>
        <time>2021-10-31T09:24:12Z</time>
      </trkpt>
      <trkpt lat="45.04658" lon="3.5056">
        <ele>783.61</ele>
        <time>2021-10-31T09:24:25Z</time>
      </trkpt>
      <trkpt lat="45.04644" lon="3.50573">
        <ele>782.17</ele>
        <time>2021-10-31T09:24:38Z</time>
      </trkpt>
      <trkpt lat="45.04633" lon="3.5059">
        <ele>780.25</ele>
        <time>2021-10-31T09:24:52Z</time>
      </trkpt>
      <trkpt lat="45.04632" lon="3.50591">
        <ele>780.25</ele>
        <time>2021-10-31T09:24:53Z</time>
      </trkpt>
      <trkpt lat="45.04619" lon="3.50602">
        <ele>776.4</ele>
        <time>2021-10-31T09:25:05Z</time>
      </trkpt>
      <trkpt lat="45.04602" lon="3.50619">
        <ele>769.67</ele>
        <time>2021-10-31T09:25:20Z</time>
      </trkpt>
      <trkpt lat="45.04585" lon="3.50631">
        <ele>764.39</ele>
        <time>2021-10-31T09:25:34Z</time>
      </trkpt>
      <trkpt lat="45.04564" lon="3.50641">
        <ele>754.29</ele>
        <time>2021-10-31T09:25:48Z</time>
      </trkpt>
      <trkpt lat="45.04559" lon="3.50641">
        <ele>752.37</ele>
        <time>2021-10-31T09:25:51Z</time>
      </trkpt>
      <trkpt lat="45.04549" lon="3.50639">
        <ele>748.04</ele>
        <time>2021-10-31T09:25:59Z</time>
      </trkpt>
      <trkpt lat="45.04535" lon="3.50633">
        <ele>744.2</ele>
        <time>2021-10-31T09:26:09Z</time>
      </trkpt>
      <trkpt lat="45.04531" lon="3.50632">
        <ele>743.24</ele>
        <time>2021-10-31T09:26:12Z</time>
      </trkpt>
      <trkpt lat="45.04524" lon="3.50629">
        <ele>741.31</ele>
        <time>2021-10-31T09:26:17Z</time>
      </trkpt>
      <trkpt lat="45.04511" lon="3.50623">
        <ele>737.47</ele>
        <time>2021-10-31T09:26:29Z</time>
      </trkpt>
      <trkpt lat="45.04493" lon="3.5062">
        <ele>736.51</ele>
        <time>2021-10-31T09:26:44Z</time>
      </trkpt>
      <trkpt lat="45.04479" lon="3.50613">
        <ele>734.58</ele>
        <time>2021-10-31T09:26:55Z</time>
      </trkpt>
      <trkpt lat="45.04465" lon="3.50605">
        <ele>730.74</ele>
        <time>2021-10-31T09:27:08Z</time>
      </trkpt>
      <trkpt lat="45.04461" lon="3.50605">
        <ele>729.78</ele>
        <time>2021-10-31T09:27:11Z</time>
      </trkpt>
      <trkpt lat="45.04446" lon="3.50595">
        <ele>726.41</ele>
        <time>2021-10-31T09:27:24Z</time>
      </trkpt>
      <trkpt lat="45.04436" lon="3.50587">
        <ele>724.01</ele>
        <time>2021-10-31T09:27:33Z</time>
      </trkpt>
      <trkpt lat="45.04418" lon="3.50574">
        <ele>721.61</ele>
        <time>2021-10-31T09:27:48Z</time>
      </trkpt>
      <trkpt lat="45.04405" lon="3.50564">
        <ele>718.72</ele>
        <time>2021-10-31T09:28:00Z</time>
      </trkpt>
      <trkpt lat="45.04394" lon="3.50552">
        <ele>717.76</ele>
        <time>2021-10-31T09:28:11Z</time>
      </trkpt>
      <trkpt lat="45.04386" lon="3.50541">
        <ele>718.72</ele>
        <time>2021-10-31T09:28:23Z</time>
      </trkpt>
      <trkpt lat="45.04373" lon="3.50522">
        <ele>716.8</ele>
        <time>2021-10-31T09:28:39Z</time>
      </trkpt>
      <trkpt lat="45.04372" lon="3.50521">
        <ele>716.8</ele>
        <time>2021-10-31T09:28:40Z</time>
      </trkpt>
      <trkpt lat="45.04367" lon="3.50516">
        <ele>717.28</ele>
        <time>2021-10-31T09:28:46Z</time>
      </trkpt>
      <trkpt lat="45.04355" lon="3.50521">
        <ele>721.13</ele>
        <time>2021-10-31T09:29:00Z</time>
      </trkpt>
      <trkpt lat="45.04346" lon="3.50527">
        <ele>724.01</ele>
        <time>2021-10-31T09:29:13Z</time>
      </trkpt>
      <trkpt lat="45.0434" lon="3.50533">
        <ele>723.53</ele>
        <time>2021-10-31T09:29:25Z</time>
      </trkpt>
      <trkpt lat="45.0433" lon="3.50543">
        <ele>722.09</ele>
        <time>2021-10-31T09:29:40Z</time>
      </trkpt>
      <trkpt lat="45.04328" lon="3.50544">
        <ele>722.09</ele>
        <time>2021-10-31T09:29:43Z</time>
      </trkpt>
      <trkpt lat="45.0432" lon="3.50556">
        <ele>721.13</ele>
        <time>2021-10-31T09:29:55Z</time>
      </trkpt>
      <trkpt lat="45.04308" lon="3.50564">
        <ele>717.28</ele>
        <time>2021-10-31T09:30:08Z</time>
      </trkpt>
      <trkpt lat="45.04307" lon="3.50565">
        <ele>716.8</ele>
        <time>2021-10-31T09:30:09Z</time>
      </trkpt>
      <trkpt lat="45.043" lon="3.50569">
        <ele>714.88</ele>
        <time>2021-10-31T09:30:14Z</time>
      </trkpt>
      <trkpt lat="45.0428" lon="3.50581">
        <ele>707.19</ele>
        <time>2021-10-31T09:30:28Z</time>
      </trkpt>
      <trkpt lat="45.0426" lon="3.5059">
        <ele>701.9</ele>
        <time>2021-10-31T09:30:44Z</time>
      </trkpt>
      <trkpt lat="45.04258" lon="3.50591">
        <ele>700.94</ele>
        <time>2021-10-31T09:30:45Z</time>
      </trkpt>
      <trkpt lat="45.04252" lon="3.50591">
        <ele>697.09</ele>
        <time>2021-10-31T09:30:49Z</time>
      </trkpt>
      <trkpt lat="45.04243" lon="3.50589">
        <ele>691.33</ele>
        <time>2021-10-31T09:30:55Z</time>
      </trkpt>
      <trkpt lat="45.04226" lon="3.50583">
        <ele>685.08</ele>
        <time>2021-10-31T09:31:07Z</time>
      </trkpt>
      <trkpt lat="45.04215" lon="3.5058">
        <ele>683.63</ele>
        <time>2021-10-31T09:31:15Z</time>
      </trkpt>
      <trkpt lat="45.04196" lon="3.50573">
        <ele>679.31</ele>
        <time>2021-10-31T09:31:28Z</time>
      </trkpt>
      <trkpt lat="45.04178" lon="3.50567">
        <ele>676.91</ele>
        <time>2021-10-31T09:31:42Z</time>
      </trkpt>
      <trkpt lat="45.0417" lon="3.50564">
        <ele>674.98</ele>
        <time>2021-10-31T09:31:49Z</time>
      </trkpt>
      <trkpt lat="45.04159" lon="3.50562">
        <ele>673.54</ele>
        <time>2021-10-31T09:31:57Z</time>
      </trkpt>
      <trkpt lat="45.04146" lon="3.50557">
        <ele>669.7</ele>
        <time>2021-10-31T09:32:07Z</time>
      </trkpt>
      <trkpt lat="45.04142" lon="3.50554">
        <ele>668.73</ele>
        <time>2021-10-31T09:32:11Z</time>
      </trkpt>
      <trkpt lat="45.0412" lon="3.50543">
        <ele>665.37</ele>
        <time>2021-10-31T09:32:27Z</time>
      </trkpt>
      <trkpt lat="45.04105" lon="3.50533">
        <ele>664.41</ele>
        <time>2021-10-31T09:32:41Z</time>
      </trkpt>
      <trkpt lat="45.04103" lon="3.5053">
        <ele>663.93</ele>
        <time>2021-10-31T09:32:44Z</time>
      </trkpt>
      <trkpt lat="45.04086" lon="3.50521">
        <ele>663.45</ele>
        <time>2021-10-31T09:32:58Z</time>
      </trkpt>
      <trkpt lat="45.04062" lon="3.50514">
        <ele>658.64</ele>
        <time>2021-10-31T09:33:13Z</time>
      </trkpt>
      <trkpt lat="45.04047" lon="3.50507">
        <ele>656.72</ele>
        <time>2021-10-31T09:33:26Z</time>
      </trkpt>
      <trkpt lat="45.0404" lon="3.50504">
        <ele>655.28</ele>
        <time>2021-10-31T09:33:31Z</time>
      </trkpt>
      <trkpt lat="45.04021" lon="3.50494">
        <ele>653.35</ele>
        <time>2021-10-31T09:33:46Z</time>
      </trkpt>
      <trkpt lat="45.04013" lon="3.50487">
        <ele>651.91</ele>
        <time>2021-10-31T09:33:52Z</time>
      </trkpt>
      <trkpt lat="45.04002" lon="3.50481">
        <ele>651.43</ele>
        <time>2021-10-31T09:34:00Z</time>
      </trkpt>
      <trkpt lat="45.03995" lon="3.50471">
        <ele>650.47</ele>
        <time>2021-10-31T09:34:07Z</time>
      </trkpt>
      <trkpt lat="45.03981" lon="3.5045">
        <ele>650.47</ele>
        <time>2021-10-31T09:34:24Z</time>
      </trkpt>
      <trkpt lat="45.03976" lon="3.50443">
        <ele>650.47</ele>
        <time>2021-10-31T09:34:29Z</time>
      </trkpt>
      <trkpt lat="45.03961" lon="3.50422">
        <ele>647.59</ele>
        <time>2021-10-31T09:34:42Z</time>
      </trkpt>
      <trkpt lat="45.0395" lon="3.50414">
        <ele>644.22</ele>
        <time>2021-10-31T09:34:50Z</time>
      </trkpt>
      <trkpt lat="45.03943" lon="3.50405">
        <ele>640.86</ele>
        <time>2021-10-31T09:34:59Z</time>
      </trkpt>
      <trkpt lat="45.03931" lon="3.50403">
        <ele>637.01</ele>
        <time>2021-10-31T09:35:12Z</time>
      </trkpt>
      <trkpt lat="45.03921" lon="3.50408">
        <ele>636.05</ele>
        <time>2021-10-31T09:35:21Z</time>
      </trkpt>
      <trkpt lat="45.03915" lon="3.50411">
        <ele>635.09</ele>
        <time>2021-10-31T09:35:26Z</time>
      </trkpt>
      <trkpt lat="45.0391" lon="3.50415">
        <ele>635.09</ele>
        <time>2021-10-31T09:35:31Z</time>
      </trkpt>
      <trkpt lat="45.03899" lon="3.50435">
        <ele>639.89</ele>
        <time>2021-10-31T09:35:46Z</time>
      </trkpt>
      <trkpt lat="45.03899" lon="3.50458">
        <ele>643.26</ele>
        <time>2021-10-31T09:35:59Z</time>
      </trkpt>
      <trkpt lat="45.03896" lon="3.50474">
        <ele>637.97</ele>
        <time>2021-10-31T09:36:11Z</time>
      </trkpt>
      <trkpt lat="45.03891" lon="3.50502">
        <ele>634.61</ele>
        <time>2021-10-31T09:36:25Z</time>
      </trkpt>
      <trkpt lat="45.03891" lon="3.50503">
        <ele>634.61</ele>
        <time>2021-10-31T09:36:26Z</time>
      </trkpt>
      <trkpt lat="45.03887" lon="3.50515">
        <ele>633.17</ele>
        <time>2021-10-31T09:36:33Z</time>
      </trkpt>
      <trkpt lat="45.03876" lon="3.50526">
        <ele>633.17</ele>
        <time>2021-10-31T09:36:47Z</time>
      </trkpt>
      <trkpt lat="45.03868" lon="3.50531">
        <ele>633.17</ele>
        <time>2021-10-31T09:36:54Z</time>
      </trkpt>
      <trkpt lat="45.03849" lon="3.50528">
        <ele>623.55</ele>
        <time>2021-10-31T09:37:08Z</time>
      </trkpt>
      <trkpt lat="45.03848" lon="3.50528">
        <ele>623.07</ele>
        <time>2021-10-31T09:37:09Z</time>
      </trkpt>
      <trkpt lat="45.0384" lon="3.50526">
        <ele>621.15</ele>
        <time>2021-10-31T09:37:15Z</time>
      </trkpt>
      <trkpt lat="45.03822" lon="3.50525">
        <ele>619.23</ele>
        <time>2021-10-31T09:37:27Z</time>
      </trkpt>
      <trkpt lat="45.038" lon="3.5052">
        <ele>615.38</ele>
        <time>2021-10-31T09:37:42Z</time>
      </trkpt>
      <trkpt lat="45.03778" lon="3.5052">
        <ele>612.02</ele>
        <time>2021-10-31T09:37:58Z</time>
      </trkpt>
      <trkpt lat="45.03755" lon="3.50518">
        <ele>609.13</ele>
        <time>2021-10-31T09:38:13Z</time>
      </trkpt>
      <trkpt lat="45.03732" lon="3.5051">
        <ele>610.57</ele>
        <time>2021-10-31T09:38:29Z</time>
      </trkpt>
      <trkpt lat="45.03711" lon="3.50501">
        <ele>613.46</ele>
        <time>2021-10-31T09:38:44Z</time>
      </trkpt>
      <trkpt lat="45.03688" lon="3.50488">
        <ele>614.42</ele>
        <time>2021-10-31T09:39:00Z</time>
      </trkpt>
      <trkpt lat="45.03667" lon="3.5048">
        <ele>613.46</ele>
        <time>2021-10-31T09:39:16Z</time>
      </trkpt>
      <trkpt lat="45.03647" lon="3.50479">
        <ele>612.5</ele>
        <time>2021-10-31T09:39:30Z</time>
      </trkpt>
      <trkpt lat="45.03633" lon="3.505">
        <ele>611.54</ele>
        <time>2021-10-31T09:39:45Z</time>
      </trkpt>
      <trkpt lat="45.03625" lon="3.50508">
        <ele>610.09</ele>
        <time>2021-10-31T09:39:51Z</time>
      </trkpt>
      <trkpt lat="45.0361" lon="3.50525">
        <ele>606.25</ele>
        <time>2021-10-31T09:40:04Z</time>
      </trkpt>
      <trkpt lat="45.03591" lon="3.50539">
        <ele>605.29</ele>
        <time>2021-10-31T09:40:19Z</time>
      </trkpt>
      <trkpt lat="45.0358" lon="3.50538">
        <ele>602.88</ele>
        <time>2021-10-31T09:40:31Z</time>
      </trkpt>
      <trkpt lat="45.03565" lon="3.50533">
        <ele>606.25</ele>
        <time>2021-10-31T09:40:45Z</time>
      </trkpt>
      <trkpt lat="45.03553" lon="3.5053">
        <ele>609.13</ele>
        <time>2021-10-31T09:40:56Z</time>
      </trkpt>
      <trkpt lat="45.03548" lon="3.50533">
        <ele>611.06</ele>
        <time>2021-10-31T09:41:03Z</time>
      </trkpt>
      <trkpt lat="45.03543" lon="3.50544">
        <ele>612.02</ele>
        <time>2021-10-31T09:41:12Z</time>
      </trkpt>
      <trkpt lat="45.03541" lon="3.50546">
        <ele>612.02</ele>
        <time>2021-10-31T09:41:14Z</time>
      </trkpt>
      <trkpt lat="45.03521" lon="3.50536">
        <ele>614.9</ele>
        <time>2021-10-31T09:41:32Z</time>
      </trkpt>
      <trkpt lat="45.0351" lon="3.5053">
        <ele>618.26</ele>
        <time>2021-10-31T09:41:43Z</time>
      </trkpt>
      <trkpt lat="45.03497" lon="3.50525">
        <ele>622.11</ele>
        <time>2021-10-31T09:41:57Z</time>
      </trkpt>
      <trkpt lat="45.03482" lon="3.50515">
        <ele>623.55</ele>
        <time>2021-10-31T09:42:11Z</time>
      </trkpt>
      <trkpt lat="45.03478" lon="3.50511">
        <ele>624.03</ele>
        <time>2021-10-31T09:42:13Z</time>
      </trkpt>
      <trkpt lat="45.03466" lon="3.50502">
        <ele>628.36</ele>
        <time>2021-10-31T09:42:25Z</time>
      </trkpt>
      <trkpt lat="45.03452" lon="3.50488">
        <ele>633.65</ele>
        <time>2021-10-31T09:42:42Z</time>
      </trkpt>
      <trkpt lat="45.03437" lon="3.50472">
        <ele>636.05</ele>
        <time>2021-10-31T09:42:56Z</time>
      </trkpt>
      <trkpt lat="45.03423" lon="3.50463">
        <ele>636.05</ele>
        <time>2021-10-31T09:43:08Z</time>
      </trkpt>
      <trkpt lat="45.03408" lon="3.50452">
        <ele>642.78</ele>
        <time>2021-10-31T09:43:23Z</time>
      </trkpt>
      <trkpt lat="45.03394" lon="3.50443">
        <ele>645.66</ele>
        <time>2021-10-31T09:43:36Z</time>
      </trkpt>
      <trkpt lat="45.03382" lon="3.5044">
        <ele>651.91</ele>
        <time>2021-10-31T09:43:52Z</time>
      </trkpt>
      <trkpt lat="45.03366" lon="3.50443">
        <ele>662.01</ele>
        <time>2021-10-31T09:44:07Z</time>
      </trkpt>
      <trkpt lat="45.03343" lon="3.5045">
        <ele>669.7</ele>
        <time>2021-10-31T09:44:22Z</time>
      </trkpt>
      <trkpt lat="45.03332" lon="3.50457">
        <ele>673.06</ele>
        <time>2021-10-31T09:44:34Z</time>
      </trkpt>
      <trkpt lat="45.03317" lon="3.50467">
        <ele>678.83</ele>
        <time>2021-10-31T09:44:48Z</time>
      </trkpt>
      <trkpt lat="45.03302" lon="3.50477">
        <ele>679.79</ele>
        <time>2021-10-31T09:44:59Z</time>
      </trkpt>
      <trkpt lat="45.03295" lon="3.50484">
        <ele>679.31</ele>
        <time>2021-10-31T09:45:06Z</time>
      </trkpt>
      <trkpt lat="45.03292" lon="3.50488">
        <ele>679.31</ele>
        <time>2021-10-31T09:45:09Z</time>
      </trkpt>
      <trkpt lat="45.03278" lon="3.50499">
        <ele>678.35</ele>
        <time>2021-10-31T09:45:22Z</time>
      </trkpt>
      <trkpt lat="45.03275" lon="3.50503">
        <ele>677.87</ele>
        <time>2021-10-31T09:45:26Z</time>
      </trkpt>
      <trkpt lat="45.03272" lon="3.50507">
        <ele>676.91</ele>
        <time>2021-10-31T09:45:31Z</time>
      </trkpt>
      <trkpt lat="45.03262" lon="3.50514">
        <ele>674.98</ele>
        <time>2021-10-31T09:45:40Z</time>
      </trkpt>
      <trkpt lat="45.03246" lon="3.50533">
        <ele>668.73</ele>
        <time>2021-10-31T09:45:55Z</time>
      </trkpt>
      <trkpt lat="45.03237" lon="3.50548">
        <ele>660.56</ele>
        <time>2021-10-31T09:46:03Z</time>
      </trkpt>
      <trkpt lat="45.03232" lon="3.50574">
        <ele>652.39</ele>
        <time>2021-10-31T09:46:18Z</time>
      </trkpt>
      <trkpt lat="45.03231" lon="3.50599">
        <ele>644.22</ele>
        <time>2021-10-31T09:46:33Z</time>
      </trkpt>
      <trkpt lat="45.03233" lon="3.50611">
        <ele>642.3</ele>
        <time>2021-10-31T09:46:43Z</time>
      </trkpt>
      <trkpt lat="45.03236" lon="3.50613">
        <ele>642.78</ele>
        <time>2021-10-31T09:46:47Z</time>
      </trkpt>
      <trkpt lat="45.03242" lon="3.50619">
        <ele>643.74</ele>
        <time>2021-10-31T09:46:54Z</time>
      </trkpt>
      <trkpt lat="45.03244" lon="3.50621">
        <ele>644.22</ele>
        <time>2021-10-31T09:46:56Z</time>
      </trkpt>
      <trkpt lat="45.03248" lon="3.50628">
        <ele>646.62</ele>
        <time>2021-10-31T09:47:02Z</time>
      </trkpt>
      <trkpt lat="45.03257" lon="3.50636">
        <ele>650.47</ele>
        <time>2021-10-31T09:47:12Z</time>
      </trkpt>
      <trkpt lat="45.03258" lon="3.50646">
        <ele>650.95</ele>
        <time>2021-10-31T09:47:17Z</time>
      </trkpt>
      <trkpt lat="45.03251" lon="3.5066">
        <ele>654.8</ele>
        <time>2021-10-31T09:47:31Z</time>
      </trkpt>
      <trkpt lat="45.03235" lon="3.50663">
        <ele>662.01</ele>
        <time>2021-10-31T09:47:48Z</time>
      </trkpt>
      <trkpt lat="45.03223" lon="3.50664">
        <ele>671.62</ele>
        <time>2021-10-31T09:47:59Z</time>
      </trkpt>
      <trkpt lat="45.0322" lon="3.50668">
        <ele>676.42</ele>
        <time>2021-10-31T09:48:03Z</time>
      </trkpt>
      <trkpt lat="45.03211" lon="3.50676">
        <ele>682.67</ele>
        <time>2021-10-31T09:48:10Z</time>
      </trkpt>
      <trkpt lat="45.0321" lon="3.50678">
        <ele>683.63</ele>
        <time>2021-10-31T09:48:12Z</time>
      </trkpt>
      <trkpt lat="45.03196" lon="3.50691">
        <ele>690.84</ele>
        <time>2021-10-31T09:48:26Z</time>
      </trkpt>
      <trkpt lat="45.03183" lon="3.50704">
        <ele>696.61</ele>
        <time>2021-10-31T09:48:39Z</time>
      </trkpt>
      <trkpt lat="45.03167" lon="3.50719">
        <ele>702.86</ele>
        <time>2021-10-31T09:48:54Z</time>
      </trkpt>
      <trkpt lat="45.03145" lon="3.50741">
        <ele>689.4</ele>
        <time>2021-10-31T09:49:10Z</time>
      </trkpt>
      <trkpt lat="45.03143" lon="3.5076">
        <ele>682.19</ele>
        <time>2021-10-31T09:49:23Z</time>
      </trkpt>
      <trkpt lat="45.0315" lon="3.50786">
        <ele>679.79</ele>
        <time>2021-10-31T09:49:39Z</time>
      </trkpt>
      <trkpt lat="45.03153" lon="3.50799">
        <ele>678.35</ele>
        <time>2021-10-31T09:49:47Z</time>
      </trkpt>
      <trkpt lat="45.03151" lon="3.50828">
        <ele>674.02</ele>
        <time>2021-10-31T09:50:03Z</time>
      </trkpt>
      <trkpt lat="45.03151" lon="3.50853">
        <ele>671.14</ele>
        <time>2021-10-31T09:50:18Z</time>
      </trkpt>
      <trkpt lat="45.03157" lon="3.50875">
        <ele>673.54</ele>
        <time>2021-10-31T09:50:34Z</time>
      </trkpt>
      <trkpt lat="45.03156" lon="3.50877">
        <ele>673.54</ele>
        <time>2021-10-31T09:50:36Z</time>
      </trkpt>
      <trkpt lat="45.03154" lon="3.50879">
        <ele>674.02</ele>
        <time>2021-10-31T09:50:38Z</time>
      </trkpt>
      <trkpt lat="45.03143" lon="3.50893">
        <ele>676.91</ele>
        <time>2021-10-31T09:50:51Z</time>
      </trkpt>
      <trkpt lat="45.03131" lon="3.50895">
        <ele>678.83</ele>
        <time>2021-10-31T09:51:04Z</time>
      </trkpt>
      <trkpt lat="45.03114" lon="3.50906">
        <ele>682.67</ele>
        <time>2021-10-31T09:51:22Z</time>
      </trkpt>
      <trkpt lat="45.03098" lon="3.50908">
        <ele>686.52</ele>
        <time>2021-10-31T09:51:37Z</time>
      </trkpt>
      <trkpt lat="45.03087" lon="3.509">
        <ele>693.25</ele>
        <time>2021-10-31T09:51:53Z</time>
      </trkpt>
      <trkpt lat="45.03076" lon="3.50895">
        <ele>688.44</ele>
        <time>2021-10-31T09:52:09Z</time>
      </trkpt>
      <trkpt lat="45.03074" lon="3.50894">
        <ele>691.33</ele>
        <time>2021-10-31T09:52:20Z</time>
      </trkpt>
      <trkpt lat="45.03064" lon="3.50893">
        <ele>691.81</ele>
        <time>2021-10-31T09:52:32Z</time>
      </trkpt>
      <trkpt lat="45.03063" lon="3.5089">
        <ele>689.88</ele>
        <time>2021-10-31T09:52:42Z</time>
      </trkpt>
      <trkpt lat="45.03063" lon="3.50888">
        <ele>690.36</ele>
        <time>2021-10-31T09:52:53Z</time>
      </trkpt>
      <trkpt lat="45.03062" lon="3.50887">
        <ele>689.88</ele>
        <time>2021-10-31T09:53:07Z</time>
      </trkpt>
      <trkpt lat="45.03061" lon="3.50888">
        <ele>690.36</ele>
        <time>2021-10-31T09:53:18Z</time>
      </trkpt>
      <trkpt lat="45.03057" lon="3.5089">
        <ele>693.73</ele>
        <time>2021-10-31T09:53:32Z</time>
      </trkpt>
      <trkpt lat="45.03052" lon="3.50891">
        <ele>699.02</ele>
        <time>2021-10-31T09:53:43Z</time>
      </trkpt>
      <trkpt lat="45.03037" lon="3.50885">
        <ele>702.86</ele>
        <time>2021-10-31T09:53:57Z</time>
      </trkpt>
      <trkpt lat="45.03032" lon="3.50887">
        <ele>703.34</ele>
        <time>2021-10-31T09:54:07Z</time>
      </trkpt>
      <trkpt lat="45.03026" lon="3.50893">
        <ele>704.78</ele>
        <time>2021-10-31T09:54:17Z</time>
      </trkpt>
      <trkpt lat="45.03021" lon="3.50896">
        <ele>706.23</ele>
        <time>2021-10-31T09:54:24Z</time>
      </trkpt>
      <trkpt lat="45.03018" lon="3.50909">
        <ele>705.75</ele>
        <time>2021-10-31T09:54:38Z</time>
      </trkpt>
      <trkpt lat="45.03012" lon="3.50912">
        <ele>704.78</ele>
        <time>2021-10-31T09:54:52Z</time>
      </trkpt>
      <trkpt lat="45.03009" lon="3.5091">
        <ele>702.86</ele>
        <time>2021-10-31T09:55:04Z</time>
      </trkpt>
      <trkpt lat="45.03006" lon="3.50911">
        <ele>702.86</ele>
        <time>2021-10-31T09:55:18Z</time>
      </trkpt>
      <trkpt lat="45.03005" lon="3.50912">
        <ele>701.42</ele>
        <time>2021-10-31T09:55:36Z</time>
      </trkpt>
      <trkpt lat="45.03006" lon="3.50912">
        <ele>700.46</ele>
        <time>2021-10-31T09:55:52Z</time>
      </trkpt>
      <trkpt lat="45.03005" lon="3.50912">
        <ele>699.98</ele>
        <time>2021-10-31T09:56:07Z</time>
      </trkpt>
      <trkpt lat="45.03006" lon="3.50911">
        <ele>699.02</ele>
        <time>2021-10-31T09:56:20Z</time>
      </trkpt>
      <trkpt lat="45.0301" lon="3.50913">
        <ele>699.02</ele>
        <time>2021-10-31T09:56:35Z</time>
      </trkpt>
      <trkpt lat="45.03009" lon="3.50906">
        <ele>700.94</ele>
        <time>2021-10-31T09:56:49Z</time>
      </trkpt>
      <trkpt lat="45.03009" lon="3.50902">
        <ele>702.86</ele>
        <time>2021-10-31T09:56:54Z</time>
      </trkpt>
      <trkpt lat="45.03022" lon="3.50894">
        <ele>704.3</ele>
        <time>2021-10-31T09:57:07Z</time>
      </trkpt>
      <trkpt lat="45.03023" lon="3.50893">
        <ele>704.3</ele>
        <time>2021-10-31T09:57:08Z</time>
      </trkpt>
      <trkpt lat="45.03036" lon="3.50887">
        <ele>706.23</ele>
        <time>2021-10-31T09:57:24Z</time>
      </trkpt>
      <trkpt lat="45.03041" lon="3.50886">
        <ele>705.75</ele>
        <time>2021-10-31T09:57:29Z</time>
      </trkpt>
      <trkpt lat="45.03047" lon="3.50888">
        <ele>705.26</ele>
        <time>2021-10-31T09:57:42Z</time>
      </trkpt>
      <trkpt lat="45.03047" lon="3.50888">
        <ele>705.26</ele>
        <time>2021-10-31T09:57:43Z</time>
      </trkpt>
      <trkpt lat="45.03055" lon="3.5089">
        <ele>700.94</ele>
        <time>2021-10-31T09:57:50Z</time>
      </trkpt>
      <trkpt lat="45.03059" lon="3.5089">
        <ele>699.5</ele>
        <time>2021-10-31T09:57:53Z</time>
      </trkpt>
      <trkpt lat="45.03072" lon="3.50898">
        <ele>693.25</ele>
        <time>2021-10-31T09:58:04Z</time>
      </trkpt>
      <trkpt lat="45.03073" lon="3.50899">
        <ele>692.77</ele>
        <time>2021-10-31T09:58:05Z</time>
      </trkpt>
      <trkpt lat="45.03074" lon="3.50923">
        <ele>691.33</ele>
        <time>2021-10-31T09:58:20Z</time>
      </trkpt>
      <trkpt lat="45.03074" lon="3.50933">
        <ele>691.81</ele>
        <time>2021-10-31T09:58:27Z</time>
      </trkpt>
      <trkpt lat="45.03074" lon="3.50939">
        <ele>691.81</ele>
        <time>2021-10-31T09:58:31Z</time>
      </trkpt>
      <trkpt lat="45.03077" lon="3.50961">
        <ele>693.25</ele>
        <time>2021-10-31T09:58:45Z</time>
      </trkpt>
      <trkpt lat="45.03086" lon="3.50972">
        <ele>695.65</ele>
        <time>2021-10-31T09:58:55Z</time>
      </trkpt>
      <trkpt lat="45.03089" lon="3.50974">
        <ele>697.09</ele>
        <time>2021-10-31T09:58:58Z</time>
      </trkpt>
      <trkpt lat="45.03095" lon="3.50976">
        <ele>699.02</ele>
        <time>2021-10-31T09:59:03Z</time>
      </trkpt>
      <trkpt lat="45.03112" lon="3.50973">
        <ele>707.19</ele>
        <time>2021-10-31T09:59:19Z</time>
      </trkpt>
      <trkpt lat="45.0313" lon="3.50969">
        <ele>712.47</ele>
        <time>2021-10-31T09:59:34Z</time>
      </trkpt>
      <trkpt lat="45.03149" lon="3.50976">
        <ele>713.92</ele>
        <time>2021-10-31T09:59:50Z</time>
      </trkpt>
      <trkpt lat="45.03152" lon="3.50979">
        <ele>713.44</ele>
        <time>2021-10-31T09:59:53Z</time>
      </trkpt>
      <trkpt lat="45.03155" lon="3.50987">
        <ele>713.44</ele>
        <time>2021-10-31T09:59:58Z</time>
      </trkpt>
      <trkpt lat="45.03154" lon="3.50995">
        <ele>713.92</ele>
        <time>2021-10-31T10:00:04Z</time>
      </trkpt>
      <trkpt lat="45.03145" lon="3.51011">
        <ele>718.24</ele>
        <time>2021-10-31T10:00:18Z</time>
      </trkpt>
      <trkpt lat="45.03143" lon="3.51016">
        <ele>718.72</ele>
        <time>2021-10-31T10:00:22Z</time>
      </trkpt>
      <trkpt lat="45.03147" lon="3.51032">
        <ele>721.61</ele>
        <time>2021-10-31T10:00:37Z</time>
      </trkpt>
      <trkpt lat="45.03152" lon="3.51038">
        <ele>721.61</ele>
        <time>2021-10-31T10:00:43Z</time>
      </trkpt>
      <trkpt lat="45.03158" lon="3.51045">
        <ele>722.57</ele>
        <time>2021-10-31T10:00:50Z</time>
      </trkpt>
      <trkpt lat="45.03163" lon="3.51049">
        <ele>723.53</ele>
        <time>2021-10-31T10:00:55Z</time>
      </trkpt>
      <trkpt lat="45.03167" lon="3.51051">
        <ele>723.53</ele>
        <time>2021-10-31T10:00:58Z</time>
      </trkpt>
      <trkpt lat="45.03176" lon="3.51059">
        <ele>725.45</ele>
        <time>2021-10-31T10:01:09Z</time>
      </trkpt>
      <trkpt lat="45.03183" lon="3.51082">
        <ele>725.93</ele>
        <time>2021-10-31T10:01:24Z</time>
      </trkpt>
      <trkpt lat="45.03185" lon="3.5111">
        <ele>726.89</ele>
        <time>2021-10-31T10:01:41Z</time>
      </trkpt>
      <trkpt lat="45.03185" lon="3.51112">
        <ele>727.37</ele>
        <time>2021-10-31T10:01:43Z</time>
      </trkpt>
      <trkpt lat="45.03188" lon="3.51129">
        <ele>730.26</ele>
        <time>2021-10-31T10:01:52Z</time>
      </trkpt>
      <trkpt lat="45.03194" lon="3.51126">
        <ele>733.62</ele>
        <time>2021-10-31T10:02:05Z</time>
      </trkpt>
      <trkpt lat="45.03207" lon="3.51109">
        <ele>736.03</ele>
        <time>2021-10-31T10:02:22Z</time>
      </trkpt>
      <trkpt lat="45.03228" lon="3.51092">
        <ele>737.47</ele>
        <time>2021-10-31T10:02:40Z</time>
      </trkpt>
      <trkpt lat="45.03251" lon="3.51083">
        <ele>737.95</ele>
        <time>2021-10-31T10:02:58Z</time>
      </trkpt>
      <trkpt lat="45.03273" lon="3.51083">
        <ele>740.35</ele>
        <time>2021-10-31T10:03:14Z</time>
      </trkpt>
      <trkpt lat="45.03295" lon="3.51078">
        <ele>740.83</ele>
        <time>2021-10-31T10:03:30Z</time>
      </trkpt>
      <trkpt lat="45.03303" lon="3.51076">
        <ele>741.79</ele>
        <time>2021-10-31T10:03:37Z</time>
      </trkpt>
      <trkpt lat="45.03305" lon="3.51077">
        <ele>741.79</ele>
        <time>2021-10-31T10:03:39Z</time>
      </trkpt>
      <trkpt lat="45.03328" lon="3.5107">
        <ele>743.72</ele>
        <time>2021-10-31T10:03:56Z</time>
      </trkpt>
      <trkpt lat="45.03341" lon="3.51065">
        <ele>745.64</ele>
        <time>2021-10-31T10:04:07Z</time>
      </trkpt>
      <trkpt lat="45.03359" lon="3.5106">
        <ele>748.52</ele>
        <time>2021-10-31T10:04:22Z</time>
      </trkpt>
      <trkpt lat="45.03377" lon="3.51056">
        <ele>750.93</ele>
        <time>2021-10-31T10:04:36Z</time>
      </trkpt>
      <trkpt lat="45.03397" lon="3.51052">
        <ele>751.41</ele>
        <time>2021-10-31T10:04:51Z</time>
      </trkpt>
      <trkpt lat="45.03414" lon="3.51051">
        <ele>754.29</ele>
        <time>2021-10-31T10:05:05Z</time>
      </trkpt>
      <trkpt lat="45.03434" lon="3.51058">
        <ele>756.69</ele>
        <time>2021-10-31T10:05:21Z</time>
      </trkpt>
      <trkpt lat="45.03452" lon="3.5107">
        <ele>755.73</ele>
        <time>2021-10-31T10:05:37Z</time>
      </trkpt>
      <trkpt lat="45.03469" lon="3.51083">
        <ele>757.18</ele>
        <time>2021-10-31T10:05:53Z</time>
      </trkpt>
      <trkpt lat="45.03481" lon="3.51099">
        <ele>758.62</ele>
        <time>2021-10-31T10:06:07Z</time>
      </trkpt>
      <trkpt lat="45.03488" lon="3.51107">
        <ele>760.06</ele>
        <time>2021-10-31T10:06:13Z</time>
      </trkpt>
      <trkpt lat="45.03504" lon="3.51124">
        <ele>763.42</ele>
        <time>2021-10-31T10:06:30Z</time>
      </trkpt>
      <trkpt lat="45.0352" lon="3.51142">
        <ele>766.31</ele>
        <time>2021-10-31T10:06:46Z</time>
      </trkpt>
      <trkpt lat="45.03522" lon="3.51144">
        <ele>766.79</ele>
        <time>2021-10-31T10:06:48Z</time>
      </trkpt>
      <trkpt lat="45.03526" lon="3.5115">
        <ele>766.79</ele>
        <time>2021-10-31T10:06:52Z</time>
      </trkpt>
      <trkpt lat="45.03538" lon="3.51172">
        <ele>769.67</ele>
        <time>2021-10-31T10:07:08Z</time>
      </trkpt>
      <trkpt lat="45.03549" lon="3.51191">
        <ele>773.52</ele>
        <time>2021-10-31T10:07:21Z</time>
      </trkpt>
      <trkpt lat="45.03555" lon="3.51202">
        <ele>774.48</ele>
        <time>2021-10-31T10:07:28Z</time>
      </trkpt>
      <trkpt lat="45.03573" lon="3.51221">
        <ele>775.92</ele>
        <time>2021-10-31T10:07:45Z</time>
      </trkpt>
      <trkpt lat="45.0359" lon="3.5124">
        <ele>778.81</ele>
        <time>2021-10-31T10:08:01Z</time>
      </trkpt>
      <trkpt lat="45.03601" lon="3.51267">
        <ele>781.69</ele>
        <time>2021-10-31T10:08:18Z</time>
      </trkpt>
      <trkpt lat="45.03608" lon="3.51302">
        <ele>783.13</ele>
        <time>2021-10-31T10:08:36Z</time>
      </trkpt>
      <trkpt lat="45.03608" lon="3.51311">
        <ele>783.61</ele>
        <time>2021-10-31T10:08:41Z</time>
      </trkpt>
      <trkpt lat="45.0361" lon="3.51323">
        <ele>784.09</ele>
        <time>2021-10-31T10:08:48Z</time>
      </trkpt>
      <trkpt lat="45.03615" lon="3.51355">
        <ele>786.5</ele>
        <time>2021-10-31T10:09:06Z</time>
      </trkpt>
      <trkpt lat="45.03618" lon="3.51386">
        <ele>787.46</ele>
        <time>2021-10-31T10:09:23Z</time>
      </trkpt>
      <trkpt lat="45.03622" lon="3.51411">
        <ele>789.38</ele>
        <time>2021-10-31T10:09:40Z</time>
      </trkpt>
      <trkpt lat="45.0363" lon="3.51417">
        <ele>788.9</ele>
        <time>2021-10-31T10:09:53Z</time>
      </trkpt>
      <trkpt lat="45.03643" lon="3.51417">
        <ele>787.46</ele>
        <time>2021-10-31T10:10:07Z</time>
      </trkpt>
      <trkpt lat="45.03664" lon="3.51418">
        <ele>785.05</ele>
        <time>2021-10-31T10:10:26Z</time>
      </trkpt>
      <trkpt lat="45.03672" lon="3.51419">
        <ele>784.09</ele>
        <time>2021-10-31T10:10:34Z</time>
      </trkpt>
      <trkpt lat="45.03679" lon="3.51418">
        <ele>782.17</ele>
        <time>2021-10-31T10:10:47Z</time>
      </trkpt>
      <trkpt lat="45.03704" lon="3.51421">
        <ele>776.88</ele>
        <time>2021-10-31T10:11:08Z</time>
      </trkpt>
      <trkpt lat="45.03708" lon="3.51421">
        <ele>776.4</ele>
        <time>2021-10-31T10:11:11Z</time>
      </trkpt>
      <trkpt lat="45.03715" lon="3.51422">
        <ele>775.44</ele>
        <time>2021-10-31T10:11:17Z</time>
      </trkpt>
      <trkpt lat="45.03729" lon="3.51427">
        <ele>772.08</ele>
        <time>2021-10-31T10:11:30Z</time>
      </trkpt>
      <trkpt lat="45.0375" lon="3.51435">
        <ele>769.67</ele>
        <time>2021-10-31T10:11:47Z</time>
      </trkpt>
      <trkpt lat="45.03772" lon="3.51441">
        <ele>766.79</ele>
        <time>2021-10-31T10:12:05Z</time>
      </trkpt>
      <trkpt lat="45.03796" lon="3.51449">
        <ele>764.87</ele>
        <time>2021-10-31T10:12:25Z</time>
      </trkpt>
      <trkpt lat="45.03817" lon="3.51461">
        <ele>764.87</ele>
        <time>2021-10-31T10:12:44Z</time>
      </trkpt>
      <trkpt lat="45.0383" lon="3.51472">
        <ele>763.9</ele>
        <time>2021-10-31T10:12:57Z</time>
      </trkpt>
      <trkpt lat="45.03854" lon="3.51493">
        <ele>760.54</ele>
        <time>2021-10-31T10:13:17Z</time>
      </trkpt>
      <trkpt lat="45.03877" lon="3.51502">
        <ele>757.66</ele>
        <time>2021-10-31T10:13:35Z</time>
      </trkpt>
      <trkpt lat="45.03901" lon="3.51509">
        <ele>757.66</ele>
        <time>2021-10-31T10:13:53Z</time>
      </trkpt>
      <trkpt lat="45.03926" lon="3.5151">
        <ele>757.66</ele>
        <time>2021-10-31T10:14:11Z</time>
      </trkpt>
      <trkpt lat="45.03956" lon="3.51511">
        <ele>756.69</ele>
        <time>2021-10-31T10:14:32Z</time>
      </trkpt>
      <trkpt lat="45.03984" lon="3.51513">
        <ele>755.73</ele>
        <time>2021-10-31T10:14:53Z</time>
      </trkpt>
      <trkpt lat="45.04011" lon="3.51518">
        <ele>753.33</ele>
        <time>2021-10-31T10:15:12Z</time>
      </trkpt>
      <trkpt lat="45.04036" lon="3.51523">
        <ele>751.89</ele>
        <time>2021-10-31T10:15:31Z</time>
      </trkpt>
      <trkpt lat="45.04054" lon="3.51535">
        <ele>751.89</ele>
        <time>2021-10-31T10:15:48Z</time>
      </trkpt>
      <trkpt lat="45.04057" lon="3.51541">
        <ele>751.41</ele>
        <time>2021-10-31T10:15:52Z</time>
      </trkpt>
      <trkpt lat="45.04069" lon="3.51558">
        <ele>746.6</ele>
        <time>2021-10-31T10:16:05Z</time>
      </trkpt>
      <trkpt lat="45.04088" lon="3.51587">
        <ele>741.31</ele>
        <time>2021-10-31T10:16:24Z</time>
      </trkpt>
      <trkpt lat="45.04106" lon="3.51616">
        <ele>736.51</ele>
        <time>2021-10-31T10:16:43Z</time>
      </trkpt>
      <trkpt lat="45.04124" lon="3.51644">
        <ele>730.74</ele>
        <time>2021-10-31T10:17:00Z</time>
      </trkpt>
      <trkpt lat="45.04146" lon="3.51658">
        <ele>725.45</ele>
        <time>2021-10-31T10:17:16Z</time>
      </trkpt>
      <trkpt lat="45.04166" lon="3.51673">
        <ele>722.09</ele>
        <time>2021-10-31T10:17:32Z</time>
      </trkpt>
      <trkpt lat="45.04187" lon="3.51681">
        <ele>716.8</ele>
        <time>2021-10-31T10:17:49Z</time>
      </trkpt>
      <trkpt lat="45.04188" lon="3.51681">
        <ele>716.32</ele>
        <time>2021-10-31T10:17:50Z</time>
      </trkpt>
      <trkpt lat="45.04201" lon="3.51687">
        <ele>714.4</ele>
        <time>2021-10-31T10:18:02Z</time>
      </trkpt>
      <trkpt lat="45.04205" lon="3.51691">
        <ele>714.4</ele>
        <time>2021-10-31T10:18:06Z</time>
      </trkpt>
      <trkpt lat="45.04211" lon="3.51694">
        <ele>714.4</ele>
        <time>2021-10-31T10:18:11Z</time>
      </trkpt>
      <trkpt lat="45.04231" lon="3.51707">
        <ele>712.47</ele>
        <time>2021-10-31T10:18:28Z</time>
      </trkpt>
      <trkpt lat="45.04251" lon="3.51723">
        <ele>709.59</ele>
        <time>2021-10-31T10:18:46Z</time>
      </trkpt>
      <trkpt lat="45.04256" lon="3.51726">
        <ele>709.11</ele>
        <time>2021-10-31T10:18:50Z</time>
      </trkpt>
      <trkpt lat="45.0426" lon="3.5173">
        <ele>708.63</ele>
        <time>2021-10-31T10:18:54Z</time>
      </trkpt>
      <trkpt lat="45.0427" lon="3.51739">
        <ele>707.67</ele>
        <time>2021-10-31T10:19:04Z</time>
      </trkpt>
      <trkpt lat="45.04274" lon="3.5175">
        <ele>706.23</ele>
        <time>2021-10-31T10:19:10Z</time>
      </trkpt>
      <trkpt lat="45.04265" lon="3.51787">
        <ele>704.3</ele>
        <time>2021-10-31T10:19:30Z</time>
      </trkpt>
      <trkpt lat="45.04269" lon="3.51809">
        <ele>704.3</ele>
        <time>2021-10-31T10:19:45Z</time>
      </trkpt>
      <trkpt lat="45.04286" lon="3.51826">
        <ele>706.23</ele>
        <time>2021-10-31T10:20:02Z</time>
      </trkpt>
      <trkpt lat="45.04309" lon="3.51845">
        <ele>707.67</ele>
        <time>2021-10-31T10:20:20Z</time>
      </trkpt>
      <trkpt lat="45.04316" lon="3.51853">
        <ele>708.15</ele>
        <time>2021-10-31T10:20:26Z</time>
      </trkpt>
      <trkpt lat="45.04327" lon="3.51874">
        <ele>708.15</ele>
        <time>2021-10-31T10:20:40Z</time>
      </trkpt>
      <trkpt lat="45.04331" lon="3.51884">
        <ele>708.15</ele>
        <time>2021-10-31T10:20:45Z</time>
      </trkpt>
      <trkpt lat="45.04333" lon="3.51887">
        <ele>708.63</ele>
        <time>2021-10-31T10:20:47Z</time>
      </trkpt>
      <trkpt lat="45.04342" lon="3.51927">
        <ele>708.15</ele>
        <time>2021-10-31T10:21:06Z</time>
      </trkpt>
      <trkpt lat="45.0434" lon="3.51941">
        <ele>708.63</ele>
        <time>2021-10-31T10:21:13Z</time>
      </trkpt>
      <trkpt lat="45.04331" lon="3.51974">
        <ele>708.63</ele>
        <time>2021-10-31T10:21:32Z</time>
      </trkpt>
      <trkpt lat="45.04328" lon="3.51976">
        <ele>709.11</ele>
        <time>2021-10-31T10:21:35Z</time>
      </trkpt>
      <trkpt lat="45.04324" lon="3.51982">
        <ele>709.11</ele>
        <time>2021-10-31T10:21:40Z</time>
      </trkpt>
      <trkpt lat="45.04313" lon="3.52004">
        <ele>708.63</ele>
        <time>2021-10-31T10:21:57Z</time>
      </trkpt>
      <trkpt lat="45.04312" lon="3.52008">
        <ele>709.11</ele>
        <time>2021-10-31T10:22:11Z</time>
      </trkpt>
      <trkpt lat="45.04311" lon="3.52009">
        <ele>707.67</ele>
        <time>2021-10-31T10:22:28Z</time>
      </trkpt>
      <trkpt lat="45.0431" lon="3.5201">
        <ele>707.19</ele>
        <time>2021-10-31T10:22:41Z</time>
      </trkpt>
      <trkpt lat="45.0431" lon="3.5201">
        <ele>707.19</ele>
        <time>2021-10-31T10:22:56Z</time>
      </trkpt>
      <trkpt lat="45.0431" lon="3.52014">
        <ele>706.23</ele>
        <time>2021-10-31T10:23:09Z</time>
      </trkpt>
      <trkpt lat="45.04313" lon="3.52019">
        <ele>705.26</ele>
        <time>2021-10-31T10:23:21Z</time>
      </trkpt>
      <trkpt lat="45.04313" lon="3.5202">
        <ele>704.78</ele>
        <time>2021-10-31T10:23:33Z</time>
      </trkpt>
      <trkpt lat="45.04314" lon="3.52023">
        <ele>703.82</ele>
        <time>2021-10-31T10:23:46Z</time>
      </trkpt>
      <trkpt lat="45.04315" lon="3.52025">
        <ele>702.86</ele>
        <time>2021-10-31T10:24:09Z</time>
      </trkpt>
      <trkpt lat="45.04315" lon="3.52027">
        <ele>702.38</ele>
        <time>2021-10-31T10:24:31Z</time>
      </trkpt>
      <trkpt lat="45.04316" lon="3.52028">
        <ele>701.9</ele>
        <time>2021-10-31T10:24:53Z</time>
      </trkpt>
      <trkpt lat="45.04316" lon="3.52027">
        <ele>701.9</ele>
        <time>2021-10-31T10:25:09Z</time>
      </trkpt>
      <trkpt lat="45.04316" lon="3.52026">
        <ele>701.9</ele>
        <time>2021-10-31T10:25:25Z</time>
      </trkpt>
      <trkpt lat="45.04317" lon="3.52027">
        <ele>701.42</ele>
        <time>2021-10-31T10:25:45Z</time>
      </trkpt>
      <trkpt lat="45.04317" lon="3.52028">
        <ele>700.94</ele>
        <time>2021-10-31T10:25:59Z</time>
      </trkpt>
      <trkpt lat="45.04318" lon="3.52029">
        <ele>700.94</ele>
        <time>2021-10-31T10:26:20Z</time>
      </trkpt>
      <trkpt lat="45.04318" lon="3.52029">
        <ele>700.46</ele>
        <time>2021-10-31T10:26:42Z</time>
      </trkpt>
      <trkpt lat="45.04317" lon="3.52029">
        <ele>700.46</ele>
        <time>2021-10-31T10:27:02Z</time>
      </trkpt>
      <trkpt lat="45.04318" lon="3.52029">
        <ele>699.98</ele>
        <time>2021-10-31T10:27:21Z</time>
      </trkpt>
      <trkpt lat="45.04318" lon="3.5203">
        <ele>699.5</ele>
        <time>2021-10-31T10:27:36Z</time>
      </trkpt>
      <trkpt lat="45.04318" lon="3.52031">
        <ele>699.5</ele>
        <time>2021-10-31T10:27:54Z</time>
      </trkpt>
      <trkpt lat="45.04319" lon="3.52031">
        <ele>699.98</ele>
        <time>2021-10-31T10:28:11Z</time>
      </trkpt>
      <trkpt lat="45.04319" lon="3.52032">
        <ele>700.46</ele>
        <time>2021-10-31T10:28:38Z</time>
      </trkpt>
      <trkpt lat="45.04319" lon="3.52033">
        <ele>700.46</ele>
        <time>2021-10-31T10:28:58Z</time>
      </trkpt>
      <trkpt lat="45.04319" lon="3.52033">
        <ele>699.98</ele>
        <time>2021-10-31T10:29:18Z</time>
      </trkpt>
      <trkpt lat="45.04319" lon="3.52034">
        <ele>699.98</ele>
        <time>2021-10-31T10:29:38Z</time>
      </trkpt>
      <trkpt lat="45.04319" lon="3.52035">
        <ele>700.94</ele>
        <time>2021-10-31T10:29:55Z</time>
      </trkpt>
      <trkpt lat="45.04319" lon="3.52036">
        <ele>700.94</ele>
        <time>2021-10-31T10:30:01Z</time>
      </trkpt>
      <trkpt lat="45.04318" lon="3.52035">
        <ele>700.94</ele>
        <time>2021-10-31T10:30:13Z</time>
      </trkpt>
      <trkpt lat="45.04317" lon="3.52035">
        <ele>700.94</ele>
        <time>2021-10-31T10:30:33Z</time>
      </trkpt>
      <trkpt lat="45.04317" lon="3.52035">
        <ele>700.46</ele>
        <time>2021-10-31T10:30:58Z</time>
      </trkpt>
      <trkpt lat="45.04316" lon="3.52036">
        <ele>700.46</ele>
        <time>2021-10-31T10:31:18Z</time>
      </trkpt>
      <trkpt lat="45.04316" lon="3.52036">
        <ele>700.46</ele>
        <time>2021-10-31T10:31:34Z</time>
      </trkpt>
      <trkpt lat="45.04316" lon="3.52037">
        <ele>699.98</ele>
        <time>2021-10-31T10:31:53Z</time>
      </trkpt>
      <trkpt lat="45.04316" lon="3.52036">
        <ele>700.46</ele>
        <time>2021-10-31T10:32:09Z</time>
      </trkpt>
      <trkpt lat="45.04313" lon="3.52036">
        <ele>701.9</ele>
        <time>2021-10-31T10:32:22Z</time>
      </trkpt>
      <trkpt lat="45.04311" lon="3.52035">
        <ele>702.38</ele>
        <time>2021-10-31T10:32:36Z</time>
      </trkpt>
      <trkpt lat="45.04309" lon="3.52035">
        <ele>702.86</ele>
        <time>2021-10-31T10:32:53Z</time>
      </trkpt>
      <trkpt lat="45.04308" lon="3.52034">
        <ele>703.82</ele>
        <time>2021-10-31T10:33:12Z</time>
      </trkpt>
      <trkpt lat="45.04307" lon="3.52033">
        <ele>704.3</ele>
        <time>2021-10-31T10:33:29Z</time>
      </trkpt>
      <trkpt lat="45.04307" lon="3.52033">
        <ele>704.3</ele>
        <time>2021-10-31T10:33:45Z</time>
      </trkpt>
      <trkpt lat="45.04306" lon="3.52032">
        <ele>704.78</ele>
        <time>2021-10-31T10:34:06Z</time>
      </trkpt>
      <trkpt lat="45.04306" lon="3.52032">
        <ele>704.78</ele>
        <time>2021-10-31T10:34:24Z</time>
      </trkpt>
      <trkpt lat="45.04305" lon="3.52031">
        <ele>704.78</ele>
        <time>2021-10-31T10:34:43Z</time>
      </trkpt>
      <trkpt lat="45.04305" lon="3.52032">
        <ele>704.78</ele>
        <time>2021-10-31T10:35:00Z</time>
      </trkpt>
      <trkpt lat="45.04305" lon="3.52033">
        <ele>704.3</ele>
        <time>2021-10-31T10:35:15Z</time>
      </trkpt>
      <trkpt lat="45.04304" lon="3.52033">
        <ele>704.78</ele>
        <time>2021-10-31T10:35:37Z</time>
      </trkpt>
      <trkpt lat="45.04303" lon="3.52034">
        <ele>704.78</ele>
        <time>2021-10-31T10:36:03Z</time>
      </trkpt>
      <trkpt lat="45.04302" lon="3.52034">
        <ele>704.78</ele>
        <time>2021-10-31T10:36:20Z</time>
      </trkpt>
      <trkpt lat="45.04303" lon="3.52033">
        <ele>704.78</ele>
        <time>2021-10-31T10:36:42Z</time>
      </trkpt>
      <trkpt lat="45.04303" lon="3.52033">
        <ele>704.3</ele>
        <time>2021-10-31T10:37:00Z</time>
      </trkpt>
      <trkpt lat="45.04303" lon="3.52033">
        <ele>704.3</ele>
        <time>2021-10-31T10:37:23Z</time>
      </trkpt>
      <trkpt lat="45.04303" lon="3.52033">
        <ele>704.3</ele>
        <time>2021-10-31T10:37:46Z</time>
      </trkpt>
      <trkpt lat="45.04303" lon="3.52033">
        <ele>704.3</ele>
        <time>2021-10-31T10:38:02Z</time>
      </trkpt>
      <trkpt lat="45.04303" lon="3.52033">
        <ele>704.3</ele>
        <time>2021-10-31T10:38:21Z</time>
      </trkpt>
      <trkpt lat="45.04302" lon="3.52032">
        <ele>703.82</ele>
        <time>2021-10-31T10:38:43Z</time>
      </trkpt>
      <trkpt lat="45.04302" lon="3.52032">
        <ele>703.82</ele>
        <time>2021-10-31T10:39:03Z</time>
      </trkpt>
      <trkpt lat="45.04303" lon="3.52032">
        <ele>703.82</ele>
        <time>2021-10-31T10:39:20Z</time>
      </trkpt>
      <trkpt lat="45.04303" lon="3.52032">
        <ele>703.34</ele>
        <time>2021-10-31T10:39:37Z</time>
      </trkpt>
      <trkpt lat="45.04302" lon="3.52032">
        <ele>703.34</ele>
        <time>2021-10-31T10:39:52Z</time>
      </trkpt>
      <trkpt lat="45.04302" lon="3.52033">
        <ele>702.86</ele>
        <time>2021-10-31T10:40:14Z</time>
      </trkpt>
      <trkpt lat="45.04304" lon="3.52035">
        <ele>702.86</ele>
        <time>2021-10-31T10:40:33Z</time>
      </trkpt>
      <trkpt lat="45.04308" lon="3.52038">
        <ele>703.34</ele>
        <time>2021-10-31T10:40:45Z</time>
      </trkpt>
      <trkpt lat="45.04309" lon="3.52037">
        <ele>702.86</ele>
        <time>2021-10-31T10:41:02Z</time>
      </trkpt>
      <trkpt lat="45.04309" lon="3.52038">
        <ele>702.86</ele>
        <time>2021-10-31T10:41:19Z</time>
      </trkpt>
      <trkpt lat="45.04307" lon="3.52036">
        <ele>703.34</ele>
        <time>2021-10-31T10:41:33Z</time>
      </trkpt>
      <trkpt lat="45.04306" lon="3.52035">
        <ele>703.82</ele>
        <time>2021-10-31T10:41:47Z</time>
      </trkpt>
      <trkpt lat="45.04305" lon="3.52034">
        <ele>704.3</ele>
        <time>2021-10-31T10:42:08Z</time>
      </trkpt>
      <trkpt lat="45.04305" lon="3.52033">
        <ele>704.3</ele>
        <time>2021-10-31T10:42:30Z</time>
      </trkpt>
      <trkpt lat="45.04305" lon="3.52033">
        <ele>703.82</ele>
        <time>2021-10-31T10:42:45Z</time>
      </trkpt>
      <trkpt lat="45.04304" lon="3.52032">
        <ele>704.3</ele>
        <time>2021-10-31T10:43:01Z</time>
      </trkpt>
      <trkpt lat="45.04304" lon="3.52032">
        <ele>704.3</ele>
        <time>2021-10-31T10:43:19Z</time>
      </trkpt>
      <trkpt lat="45.04303" lon="3.52032">
        <ele>704.3</ele>
        <time>2021-10-31T10:43:47Z</time>
      </trkpt>
      <trkpt lat="45.04303" lon="3.52033">
        <ele>703.34</ele>
        <time>2021-10-31T10:44:05Z</time>
      </trkpt>
      <trkpt lat="45.04302" lon="3.52033">
        <ele>702.38</ele>
        <time>2021-10-31T10:44:24Z</time>
      </trkpt>
      <trkpt lat="45.04303" lon="3.52032">
        <ele>701.9</ele>
        <time>2021-10-31T10:44:46Z</time>
      </trkpt>
      <trkpt lat="45.04303" lon="3.52031">
        <ele>701.9</ele>
        <time>2021-10-31T10:45:05Z</time>
      </trkpt>
      <trkpt lat="45.04303" lon="3.52032">
        <ele>701.9</ele>
        <time>2021-10-31T10:45:31Z</time>
      </trkpt>
      <trkpt lat="45.04302" lon="3.52031">
        <ele>701.42</ele>
        <time>2021-10-31T10:46:04Z</time>
      </trkpt>
      <trkpt lat="45.04302" lon="3.52032">
        <ele>700.94</ele>
        <time>2021-10-31T10:46:29Z</time>
      </trkpt>
      <trkpt lat="45.04302" lon="3.5203">
        <ele>700.94</ele>
        <time>2021-10-31T10:46:59Z</time>
      </trkpt>
      <trkpt lat="45.04302" lon="3.5203">
        <ele>700.46</ele>
        <time>2021-10-31T10:47:28Z</time>
      </trkpt>
      <trkpt lat="45.04302" lon="3.52031">
        <ele>700.46</ele>
        <time>2021-10-31T10:47:52Z</time>
      </trkpt>
      <trkpt lat="45.04302" lon="3.52032">
        <ele>700.46</ele>
        <time>2021-10-31T10:48:11Z</time>
      </trkpt>
      <trkpt lat="45.04302" lon="3.52032">
        <ele>699.98</ele>
        <time>2021-10-31T10:48:31Z</time>
      </trkpt>
      <trkpt lat="45.04302" lon="3.52034">
        <ele>699.98</ele>
        <time>2021-10-31T10:48:53Z</time>
      </trkpt>
      <trkpt lat="45.04302" lon="3.52034">
        <ele>699.98</ele>
        <time>2021-10-31T10:49:14Z</time>
      </trkpt>
      <trkpt lat="45.04302" lon="3.52034">
        <ele>699.98</ele>
        <time>2021-10-31T10:49:35Z</time>
      </trkpt>
      <trkpt lat="45.04302" lon="3.52029">
        <ele>700.46</ele>
        <time>2021-10-31T10:49:48Z</time>
      </trkpt>
      <trkpt lat="45.04313" lon="3.52004">
        <ele>702.38</ele>
        <time>2021-10-31T10:50:07Z</time>
      </trkpt>
      <trkpt lat="45.04317" lon="3.51997">
        <ele>702.86</ele>
        <time>2021-10-31T10:50:21Z</time>
      </trkpt>
      <trkpt lat="45.04318" lon="3.51991">
        <ele>702.86</ele>
        <time>2021-10-31T10:50:34Z</time>
      </trkpt>
      <trkpt lat="45.04321" lon="3.51983">
        <ele>703.82</ele>
        <time>2021-10-31T10:50:39Z</time>
      </trkpt>
      <trkpt lat="45.04326" lon="3.51953">
        <ele>708.15</ele>
        <time>2021-10-31T10:50:57Z</time>
      </trkpt>
      <trkpt lat="45.04326" lon="3.51948">
        <ele>708.63</ele>
        <time>2021-10-31T10:51:00Z</time>
      </trkpt>
      <trkpt lat="45.04322" lon="3.51932">
        <ele>710.55</ele>
        <time>2021-10-31T10:51:11Z</time>
      </trkpt>
      <trkpt lat="45.04316" lon="3.51927">
        <ele>711.99</ele>
        <time>2021-10-31T10:51:17Z</time>
      </trkpt>
      <trkpt lat="45.04302" lon="3.5191">
        <ele>712.95</ele>
        <time>2021-10-31T10:51:31Z</time>
      </trkpt>
      <trkpt lat="45.04292" lon="3.51905">
        <ele>714.88</ele>
        <time>2021-10-31T10:51:39Z</time>
      </trkpt>
      <trkpt lat="45.0429" lon="3.51904">
        <ele>715.36</ele>
        <time>2021-10-31T10:51:41Z</time>
      </trkpt>
      <trkpt lat="45.0427" lon="3.51896">
        <ele>720.65</ele>
        <time>2021-10-31T10:51:59Z</time>
      </trkpt>
      <trkpt lat="45.04257" lon="3.51891">
        <ele>724.49</ele>
        <time>2021-10-31T10:52:16Z</time>
      </trkpt>
      <trkpt lat="45.04242" lon="3.5189">
        <ele>726.41</ele>
        <time>2021-10-31T10:52:31Z</time>
      </trkpt>
      <trkpt lat="45.04229" lon="3.51888">
        <ele>725.93</ele>
        <time>2021-10-31T10:52:44Z</time>
      </trkpt>
      <trkpt lat="45.04225" lon="3.51888">
        <ele>725.93</ele>
        <time>2021-10-31T10:52:48Z</time>
      </trkpt>
      <trkpt lat="45.04216" lon="3.51888">
        <ele>727.37</ele>
        <time>2021-10-31T10:52:57Z</time>
      </trkpt>
      <trkpt lat="45.04214" lon="3.51888">
        <ele>727.86</ele>
        <time>2021-10-31T10:52:59Z</time>
      </trkpt>
      <trkpt lat="45.04199" lon="3.5189">
        <ele>732.66</ele>
        <time>2021-10-31T10:53:15Z</time>
      </trkpt>
      <trkpt lat="45.0419" lon="3.51894">
        <ele>735.07</ele>
        <time>2021-10-31T10:53:27Z</time>
      </trkpt>
      <trkpt lat="45.04178" lon="3.51899">
        <ele>738.43</ele>
        <time>2021-10-31T10:53:41Z</time>
      </trkpt>
      <trkpt lat="45.04165" lon="3.51892">
        <ele>740.83</ele>
        <time>2021-10-31T10:53:55Z</time>
      </trkpt>
      <trkpt lat="45.04147" lon="3.51886">
        <ele>741.79</ele>
        <time>2021-10-31T10:54:12Z</time>
      </trkpt>
      <trkpt lat="45.04126" lon="3.51883">
        <ele>743.24</ele>
        <time>2021-10-31T10:54:29Z</time>
      </trkpt>
      <trkpt lat="45.04113" lon="3.51883">
        <ele>744.2</ele>
        <time>2021-10-31T10:54:41Z</time>
      </trkpt>
      <trkpt lat="45.04104" lon="3.51884">
        <ele>744.68</ele>
        <time>2021-10-31T10:54:49Z</time>
      </trkpt>
      <trkpt lat="45.04089" lon="3.51891">
        <ele>748.04</ele>
        <time>2021-10-31T10:55:05Z</time>
      </trkpt>
      <trkpt lat="45.04086" lon="3.51893">
        <ele>749.49</ele>
        <time>2021-10-31T10:55:09Z</time>
      </trkpt>
      <trkpt lat="45.04071" lon="3.519">
        <ele>751.89</ele>
        <time>2021-10-31T10:55:25Z</time>
      </trkpt>
      <trkpt lat="45.04057" lon="3.51906">
        <ele>755.73</ele>
        <time>2021-10-31T10:55:39Z</time>
      </trkpt>
      <trkpt lat="45.0405" lon="3.51908">
        <ele>757.66</ele>
        <time>2021-10-31T10:55:46Z</time>
      </trkpt>
      <trkpt lat="45.04033" lon="3.51913">
        <ele>761.02</ele>
        <time>2021-10-31T10:56:03Z</time>
      </trkpt>
      <trkpt lat="45.04017" lon="3.51915">
        <ele>764.39</ele>
        <time>2021-10-31T10:56:18Z</time>
      </trkpt>
      <trkpt lat="45.03997" lon="3.51923">
        <ele>771.6</ele>
        <time>2021-10-31T10:56:38Z</time>
      </trkpt>
      <trkpt lat="45.03977" lon="3.51934">
        <ele>772.08</ele>
        <time>2021-10-31T10:56:56Z</time>
      </trkpt>
      <trkpt lat="45.03959" lon="3.5196">
        <ele>769.67</ele>
        <time>2021-10-31T10:57:16Z</time>
      </trkpt>
      <trkpt lat="45.03952" lon="3.51981">
        <ele>770.15</ele>
        <time>2021-10-31T10:57:31Z</time>
      </trkpt>
      <trkpt lat="45.03942" lon="3.52001">
        <ele>769.19</ele>
        <time>2021-10-31T10:57:44Z</time>
      </trkpt>
      <trkpt lat="45.03933" lon="3.52015">
        <ele>768.71</ele>
        <time>2021-10-31T10:57:53Z</time>
      </trkpt>
      <trkpt lat="45.03911" lon="3.52038">
        <ele>769.67</ele>
        <time>2021-10-31T10:58:12Z</time>
      </trkpt>
      <trkpt lat="45.03889" lon="3.52053">
        <ele>771.11</ele>
        <time>2021-10-31T10:58:30Z</time>
      </trkpt>
      <trkpt lat="45.03868" lon="3.52067">
        <ele>771.6</ele>
        <time>2021-10-31T10:58:48Z</time>
      </trkpt>
      <trkpt lat="45.03845" lon="3.5208">
        <ele>772.56</ele>
        <time>2021-10-31T10:59:06Z</time>
      </trkpt>
      <trkpt lat="45.03829" lon="3.5209">
        <ele>774</ele>
        <time>2021-10-31T10:59:20Z</time>
      </trkpt>
      <trkpt lat="45.03811" lon="3.52101">
        <ele>775.44</ele>
        <time>2021-10-31T10:59:36Z</time>
      </trkpt>
      <trkpt lat="45.03794" lon="3.52111">
        <ele>777.36</ele>
        <time>2021-10-31T10:59:51Z</time>
      </trkpt>
      <trkpt lat="45.03775" lon="3.52125">
        <ele>778.81</ele>
        <time>2021-10-31T11:00:08Z</time>
      </trkpt>
      <trkpt lat="45.03759" lon="3.52135">
        <ele>780.73</ele>
        <time>2021-10-31T11:00:23Z</time>
      </trkpt>
      <trkpt lat="45.03736" lon="3.5215">
        <ele>781.69</ele>
        <time>2021-10-31T11:00:43Z</time>
      </trkpt>
      <trkpt lat="45.03718" lon="3.52162">
        <ele>783.13</ele>
        <time>2021-10-31T11:00:59Z</time>
      </trkpt>
      <trkpt lat="45.03697" lon="3.52172">
        <ele>784.57</ele>
        <time>2021-10-31T11:01:17Z</time>
      </trkpt>
      <trkpt lat="45.03682" lon="3.52182">
        <ele>786.98</ele>
        <time>2021-10-31T11:01:32Z</time>
      </trkpt>
      <trkpt lat="45.03685" lon="3.52205">
        <ele>787.46</ele>
        <time>2021-10-31T11:01:46Z</time>
      </trkpt>
      <trkpt lat="45.0369" lon="3.52226">
        <ele>788.42</ele>
        <time>2021-10-31T11:02:01Z</time>
      </trkpt>
      <trkpt lat="45.03695" lon="3.52245">
        <ele>787.94</ele>
        <time>2021-10-31T11:02:14Z</time>
      </trkpt>
      <trkpt lat="45.03696" lon="3.52247">
        <ele>787.46</ele>
        <time>2021-10-31T11:02:15Z</time>
      </trkpt>
      <trkpt lat="45.03694" lon="3.52268">
        <ele>787.46</ele>
        <time>2021-10-31T11:02:28Z</time>
      </trkpt>
      <trkpt lat="45.03691" lon="3.52285">
        <ele>790.34</ele>
        <time>2021-10-31T11:02:40Z</time>
      </trkpt>
      <trkpt lat="45.03685" lon="3.52301">
        <ele>795.63</ele>
        <time>2021-10-31T11:02:55Z</time>
      </trkpt>
      <trkpt lat="45.03681" lon="3.52311">
        <ele>796.59</ele>
        <time>2021-10-31T11:03:03Z</time>
      </trkpt>
      <trkpt lat="45.0367" lon="3.52332">
        <ele>796.59</ele>
        <time>2021-10-31T11:03:19Z</time>
      </trkpt>
      <trkpt lat="45.0366" lon="3.52347">
        <ele>796.59</ele>
        <time>2021-10-31T11:03:32Z</time>
      </trkpt>
      <trkpt lat="45.03649" lon="3.52365">
        <ele>798.03</ele>
        <time>2021-10-31T11:03:47Z</time>
      </trkpt>
      <trkpt lat="45.03638" lon="3.52386">
        <ele>798.03</ele>
        <time>2021-10-31T11:04:01Z</time>
      </trkpt>
      <trkpt lat="45.03628" lon="3.52405">
        <ele>796.59</ele>
        <time>2021-10-31T11:04:18Z</time>
      </trkpt>
      <trkpt lat="45.03625" lon="3.52417">
        <ele>798.99</ele>
        <time>2021-10-31T11:04:32Z</time>
      </trkpt>
      <trkpt lat="45.03615" lon="3.52442">
        <ele>802.36</ele>
        <time>2021-10-31T11:04:45Z</time>
      </trkpt>
      <trkpt lat="45.03615" lon="3.52446">
        <ele>802.84</ele>
        <time>2021-10-31T11:04:47Z</time>
      </trkpt>
      <trkpt lat="45.03614" lon="3.52464">
        <ele>806.68</ele>
        <time>2021-10-31T11:05:00Z</time>
      </trkpt>
      <trkpt lat="45.03619" lon="3.52485">
        <ele>812.93</ele>
        <time>2021-10-31T11:05:17Z</time>
      </trkpt>
      <trkpt lat="45.03633" lon="3.52498">
        <ele>813.41</ele>
        <time>2021-10-31T11:05:31Z</time>
      </trkpt>
      <trkpt lat="45.03634" lon="3.52499">
        <ele>812.45</ele>
        <time>2021-10-31T11:05:32Z</time>
      </trkpt>
      <trkpt lat="45.03637" lon="3.52502">
        <ele>811.01</ele>
        <time>2021-10-31T11:05:35Z</time>
      </trkpt>
      <trkpt lat="45.03649" lon="3.52525">
        <ele>803.8</ele>
        <time>2021-10-31T11:05:51Z</time>
      </trkpt>
      <trkpt lat="45.0366" lon="3.52557">
        <ele>798.99</ele>
        <time>2021-10-31T11:06:06Z</time>
      </trkpt>
      <trkpt lat="45.0367" lon="3.52588">
        <ele>793.22</ele>
        <time>2021-10-31T11:06:20Z</time>
      </trkpt>
      <trkpt lat="45.03671" lon="3.52601">
        <ele>791.78</ele>
        <time>2021-10-31T11:06:27Z</time>
      </trkpt>
      <trkpt lat="45.03674" lon="3.52626">
        <ele>788.9</ele>
        <time>2021-10-31T11:06:39Z</time>
      </trkpt>
      <trkpt lat="45.03674" lon="3.52638">
        <ele>788.42</ele>
        <time>2021-10-31T11:06:44Z</time>
      </trkpt>
      <trkpt lat="45.03666" lon="3.52666">
        <ele>787.94</ele>
        <time>2021-10-31T11:07:02Z</time>
      </trkpt>
      <trkpt lat="45.03667" lon="3.52679">
        <ele>791.3</ele>
        <time>2021-10-31T11:07:16Z</time>
      </trkpt>
      <trkpt lat="45.03671" lon="3.52698">
        <ele>795.15</ele>
        <time>2021-10-31T11:07:29Z</time>
      </trkpt>
      <trkpt lat="45.0367" lon="3.52722">
        <ele>802.36</ele>
        <time>2021-10-31T11:07:43Z</time>
      </trkpt>
      <trkpt lat="45.03672" lon="3.52748">
        <ele>809.09</ele>
        <time>2021-10-31T11:07:56Z</time>
      </trkpt>
      <trkpt lat="45.03665" lon="3.52766">
        <ele>808.61</ele>
        <time>2021-10-31T11:08:05Z</time>
      </trkpt>
      <trkpt lat="45.03665" lon="3.52771">
        <ele>809.09</ele>
        <time>2021-10-31T11:08:08Z</time>
      </trkpt>
      <trkpt lat="45.03661" lon="3.52797">
        <ele>811.01</ele>
        <time>2021-10-31T11:08:23Z</time>
      </trkpt>
      <trkpt lat="45.03654" lon="3.52819">
        <ele>806.68</ele>
        <time>2021-10-31T11:08:36Z</time>
      </trkpt>
      <trkpt lat="45.03654" lon="3.52821">
        <ele>806.68</ele>
        <time>2021-10-31T11:08:37Z</time>
      </trkpt>
      <trkpt lat="45.03649" lon="3.52837">
        <ele>804.76</ele>
        <time>2021-10-31T11:08:48Z</time>
      </trkpt>
      <trkpt lat="45.03645" lon="3.52848">
        <ele>800.92</ele>
        <time>2021-10-31T11:08:55Z</time>
      </trkpt>
      <trkpt lat="45.03642" lon="3.52853">
        <ele>799.47</ele>
        <time>2021-10-31T11:08:57Z</time>
      </trkpt>
      <trkpt lat="45.03636" lon="3.52881">
        <ele>798.03</ele>
        <time>2021-10-31T11:09:12Z</time>
      </trkpt>
      <trkpt lat="45.03636" lon="3.52894">
        <ele>799.95</ele>
        <time>2021-10-31T11:09:22Z</time>
      </trkpt>
      <trkpt lat="45.03637" lon="3.52922">
        <ele>799.47</ele>
        <time>2021-10-31T11:09:39Z</time>
      </trkpt>
      <trkpt lat="45.0364" lon="3.52954">
        <ele>798.99</ele>
        <time>2021-10-31T11:09:53Z</time>
      </trkpt>
      <trkpt lat="45.03643" lon="3.52966">
        <ele>798.03</ele>
        <time>2021-10-31T11:09:59Z</time>
      </trkpt>
      <trkpt lat="45.03645" lon="3.52982">
        <ele>796.59</ele>
        <time>2021-10-31T11:10:09Z</time>
      </trkpt>
      <trkpt lat="45.03649" lon="3.52991">
        <ele>794.67</ele>
        <time>2021-10-31T11:10:15Z</time>
      </trkpt>
      <trkpt lat="45.03654" lon="3.53001">
        <ele>796.11</ele>
        <time>2021-10-31T11:10:21Z</time>
      </trkpt>
      <trkpt lat="45.03652" lon="3.53022">
        <ele>798.99</ele>
        <time>2021-10-31T11:10:35Z</time>
      </trkpt>
      <trkpt lat="45.03649" lon="3.53023">
        <ele>798.99</ele>
        <time>2021-10-31T11:10:45Z</time>
      </trkpt>
      <trkpt lat="45.03643" lon="3.53022">
        <ele>795.63</ele>
        <time>2021-10-31T11:10:57Z</time>
      </trkpt>
      <trkpt lat="45.03646" lon="3.53017">
        <ele>797.07</ele>
        <time>2021-10-31T11:11:02Z</time>
      </trkpt>
      <trkpt lat="45.03646" lon="3.53017">
        <ele>797.07</ele>
        <time>2021-10-31T11:11:14Z</time>
      </trkpt>
      <trkpt lat="45.03651" lon="3.5303">
        <ele>797.55</ele>
        <time>2021-10-31T11:11:30Z</time>
      </trkpt>
      <trkpt lat="45.03667" lon="3.53034">
        <ele>798.03</ele>
        <time>2021-10-31T11:11:42Z</time>
      </trkpt>
      <trkpt lat="45.03683" lon="3.53026">
        <ele>794.19</ele>
        <time>2021-10-31T11:11:55Z</time>
      </trkpt>
      <trkpt lat="45.03699" lon="3.53013">
        <ele>790.82</ele>
        <time>2021-10-31T11:12:11Z</time>
      </trkpt>
      <trkpt lat="45.03703" lon="3.53009">
        <ele>785.05</ele>
        <time>2021-10-31T11:12:23Z</time>
      </trkpt>
      <trkpt lat="45.03702" lon="3.5301">
        <ele>784.09</ele>
        <time>2021-10-31T11:12:25Z</time>
      </trkpt>
      <trkpt lat="45.03696" lon="3.53021">
        <ele>777.84</ele>
        <time>2021-10-31T11:12:38Z</time>
      </trkpt>
      <trkpt lat="45.03693" lon="3.53036">
        <ele>767.75</ele>
        <time>2021-10-31T11:12:51Z</time>
      </trkpt>
      <trkpt lat="45.03692" lon="3.53043">
        <ele>765.83</ele>
        <time>2021-10-31T11:12:56Z</time>
      </trkpt>
      <trkpt lat="45.03689" lon="3.53058">
        <ele>763.42</ele>
        <time>2021-10-31T11:13:08Z</time>
      </trkpt>
      <trkpt lat="45.03688" lon="3.53059">
        <ele>763.42</ele>
        <time>2021-10-31T11:13:09Z</time>
      </trkpt>
      <trkpt lat="45.03687" lon="3.53064">
        <ele>762.94</ele>
        <time>2021-10-31T11:13:13Z</time>
      </trkpt>
      <trkpt lat="45.03684" lon="3.53069">
        <ele>762.94</ele>
        <time>2021-10-31T11:13:16Z</time>
      </trkpt>
      <trkpt lat="45.03682" lon="3.53075">
        <ele>762.94</ele>
        <time>2021-10-31T11:13:20Z</time>
      </trkpt>
      <trkpt lat="45.03674" lon="3.53109">
        <ele>759.58</ele>
        <time>2021-10-31T11:13:38Z</time>
      </trkpt>
      <trkpt lat="45.03656" lon="3.53129">
        <ele>757.66</ele>
        <time>2021-10-31T11:13:55Z</time>
      </trkpt>
      <trkpt lat="45.0364" lon="3.53142">
        <ele>755.25</ele>
        <time>2021-10-31T11:14:10Z</time>
      </trkpt>
      <trkpt lat="45.03635" lon="3.53147">
        <ele>756.21</ele>
        <time>2021-10-31T11:14:15Z</time>
      </trkpt>
      <trkpt lat="45.03628" lon="3.53177">
        <ele>758.14</ele>
        <time>2021-10-31T11:14:32Z</time>
      </trkpt>
      <trkpt lat="45.03615" lon="3.53203">
        <ele>756.69</ele>
        <time>2021-10-31T11:14:48Z</time>
      </trkpt>
      <trkpt lat="45.03604" lon="3.5323">
        <ele>757.66</ele>
        <time>2021-10-31T11:15:04Z</time>
      </trkpt>
      <trkpt lat="45.03591" lon="3.53261">
        <ele>760.54</ele>
        <time>2021-10-31T11:15:23Z</time>
      </trkpt>
      <trkpt lat="45.03582" lon="3.53286">
        <ele>761.02</ele>
        <time>2021-10-31T11:15:39Z</time>
      </trkpt>
      <trkpt lat="45.03576" lon="3.53307">
        <ele>759.1</ele>
        <time>2021-10-31T11:15:52Z</time>
      </trkpt>
      <trkpt lat="45.03564" lon="3.53334">
        <ele>758.62</ele>
        <time>2021-10-31T11:16:08Z</time>
      </trkpt>
      <trkpt lat="45.03551" lon="3.53352">
        <ele>761.98</ele>
        <time>2021-10-31T11:16:25Z</time>
      </trkpt>
      <trkpt lat="45.03537" lon="3.53371">
        <ele>767.27</ele>
        <time>2021-10-31T11:16:42Z</time>
      </trkpt>
      <trkpt lat="45.03526" lon="3.53387">
        <ele>773.04</ele>
        <time>2021-10-31T11:16:56Z</time>
      </trkpt>
      <trkpt lat="45.03518" lon="3.53399">
        <ele>777.84</ele>
        <time>2021-10-31T11:17:08Z</time>
      </trkpt>
      <trkpt lat="45.0351" lon="3.53407">
        <ele>781.69</ele>
        <time>2021-10-31T11:17:16Z</time>
      </trkpt>
      <trkpt lat="45.03506" lon="3.53408">
        <ele>782.65</ele>
        <time>2021-10-31T11:17:19Z</time>
      </trkpt>
      <trkpt lat="45.03495" lon="3.53419">
        <ele>789.86</ele>
        <time>2021-10-31T11:17:32Z</time>
      </trkpt>
      <trkpt lat="45.03491" lon="3.53425">
        <ele>795.63</ele>
        <time>2021-10-31T11:17:44Z</time>
      </trkpt>
      <trkpt lat="45.03487" lon="3.5343">
        <ele>798.03</ele>
        <time>2021-10-31T11:17:55Z</time>
      </trkpt>
      <trkpt lat="45.03479" lon="3.53436">
        <ele>804.76</ele>
        <time>2021-10-31T11:18:06Z</time>
      </trkpt>
      <trkpt lat="45.03474" lon="3.53439">
        <ele>806.2</ele>
        <time>2021-10-31T11:18:21Z</time>
      </trkpt>
      <trkpt lat="45.03469" lon="3.53449">
        <ele>812.93</ele>
        <time>2021-10-31T11:18:33Z</time>
      </trkpt>
      <trkpt lat="45.03459" lon="3.53451">
        <ele>812.93</ele>
        <time>2021-10-31T11:18:48Z</time>
      </trkpt>
      <trkpt lat="45.03459" lon="3.53452">
        <ele>812.93</ele>
        <time>2021-10-31T11:18:49Z</time>
      </trkpt>
      <trkpt lat="45.03437" lon="3.53473">
        <ele>818.7</ele>
        <time>2021-10-31T11:19:03Z</time>
      </trkpt>
      <trkpt lat="45.03415" lon="3.53499">
        <ele>829.27</ele>
        <time>2021-10-31T11:19:16Z</time>
      </trkpt>
      <trkpt lat="45.03408" lon="3.53515">
        <ele>831.2</ele>
        <time>2021-10-31T11:19:25Z</time>
      </trkpt>
      <trkpt lat="45.03406" lon="3.53519">
        <ele>830.24</ele>
        <time>2021-10-31T11:19:28Z</time>
      </trkpt>
      <trkpt lat="45.03405" lon="3.53522">
        <ele>830.24</ele>
        <time>2021-10-31T11:19:30Z</time>
      </trkpt>
      <trkpt lat="45.03404" lon="3.53526">
        <ele>830.24</ele>
        <time>2021-10-31T11:19:32Z</time>
      </trkpt>
      <trkpt lat="45.03403" lon="3.53531">
        <ele>830.24</ele>
        <time>2021-10-31T11:19:35Z</time>
      </trkpt>
      <trkpt lat="45.034" lon="3.53537">
        <ele>830.24</ele>
        <time>2021-10-31T11:19:39Z</time>
      </trkpt>
      <trkpt lat="45.034" lon="3.53541">
        <ele>830.72</ele>
        <time>2021-10-31T11:19:41Z</time>
      </trkpt>
      <trkpt lat="45.03394" lon="3.53551">
        <ele>833.6</ele>
        <time>2021-10-31T11:19:48Z</time>
      </trkpt>
      <trkpt lat="45.03392" lon="3.53558">
        <ele>833.6</ele>
        <time>2021-10-31T11:19:52Z</time>
      </trkpt>
      <trkpt lat="45.03388" lon="3.53573">
        <ele>833.12</ele>
        <time>2021-10-31T11:20:00Z</time>
      </trkpt>
      <trkpt lat="45.03385" lon="3.53582">
        <ele>833.12</ele>
        <time>2021-10-31T11:20:05Z</time>
      </trkpt>
      <trkpt lat="45.03382" lon="3.53601">
        <ele>832.64</ele>
        <time>2021-10-31T11:20:14Z</time>
      </trkpt>
      <trkpt lat="45.03381" lon="3.53612">
        <ele>830.72</ele>
        <time>2021-10-31T11:20:20Z</time>
      </trkpt>
      <trkpt lat="45.03381" lon="3.5364">
        <ele>832.64</ele>
        <time>2021-10-31T11:20:33Z</time>
      </trkpt>
      <trkpt lat="45.03381" lon="3.53641">
        <ele>832.64</ele>
        <time>2021-10-31T11:20:34Z</time>
      </trkpt>
      <trkpt lat="45.03379" lon="3.53654">
        <ele>833.6</ele>
        <time>2021-10-31T11:20:41Z</time>
      </trkpt>
      <trkpt lat="45.03377" lon="3.53661">
        <ele>834.56</ele>
        <time>2021-10-31T11:20:45Z</time>
      </trkpt>
      <trkpt lat="45.03375" lon="3.53677">
        <ele>836.96</ele>
        <time>2021-10-31T11:20:53Z</time>
      </trkpt>
      <trkpt lat="45.03373" lon="3.5368">
        <ele>837.45</ele>
        <time>2021-10-31T11:20:55Z</time>
      </trkpt>
      <trkpt lat="45.03365" lon="3.537">
        <ele>836.96</ele>
        <time>2021-10-31T11:21:08Z</time>
      </trkpt>
      <trkpt lat="45.03363" lon="3.53702">
        <ele>837.45</ele>
        <time>2021-10-31T11:21:11Z</time>
      </trkpt>
      <trkpt lat="45.03357" lon="3.5372">
        <ele>836</ele>
        <time>2021-10-31T11:21:21Z</time>
      </trkpt>
      <trkpt lat="45.03352" lon="3.53737">
        <ele>835.52</ele>
        <time>2021-10-31T11:21:32Z</time>
      </trkpt>
      <trkpt lat="45.03351" lon="3.53745">
        <ele>837.45</ele>
        <time>2021-10-31T11:21:37Z</time>
      </trkpt>
      <trkpt lat="45.03347" lon="3.53756">
        <ele>837.45</ele>
        <time>2021-10-31T11:21:43Z</time>
      </trkpt>
      <trkpt lat="45.03346" lon="3.53765">
        <ele>837.93</ele>
        <time>2021-10-31T11:21:47Z</time>
      </trkpt>
      <trkpt lat="45.03344" lon="3.53785">
        <ele>837.93</ele>
        <time>2021-10-31T11:21:57Z</time>
      </trkpt>
      <trkpt lat="45.03342" lon="3.53789">
        <ele>837.93</ele>
        <time>2021-10-31T11:22:08Z</time>
      </trkpt>
      <trkpt lat="45.03331" lon="3.53802">
        <ele>839.37</ele>
        <time>2021-10-31T11:22:21Z</time>
      </trkpt>
      <trkpt lat="45.03333" lon="3.53808">
        <ele>844.18</ele>
        <time>2021-10-31T11:22:32Z</time>
      </trkpt>
      <trkpt lat="45.03326" lon="3.53816">
        <ele>838.41</ele>
        <time>2021-10-31T11:22:45Z</time>
      </trkpt>
      <trkpt lat="45.03329" lon="3.53825">
        <ele>839.85</ele>
        <time>2021-10-31T11:22:57Z</time>
      </trkpt>
      <trkpt lat="45.03332" lon="3.53828">
        <ele>838.41</ele>
        <time>2021-10-31T11:23:01Z</time>
      </trkpt>
      <trkpt lat="45.03334" lon="3.53833">
        <ele>837.93</ele>
        <time>2021-10-31T11:23:05Z</time>
      </trkpt>
      <trkpt lat="45.03344" lon="3.53847">
        <ele>836</ele>
        <time>2021-10-31T11:23:18Z</time>
      </trkpt>
      <trkpt lat="45.03345" lon="3.53849">
        <ele>836</ele>
        <time>2021-10-31T11:23:19Z</time>
      </trkpt>
      <trkpt lat="45.0335" lon="3.53857">
        <ele>835.04</ele>
        <time>2021-10-31T11:23:31Z</time>
      </trkpt>
      <trkpt lat="45.0336" lon="3.53854">
        <ele>835.52</ele>
        <time>2021-10-31T11:23:45Z</time>
      </trkpt>
      <trkpt lat="45.03369" lon="3.53847">
        <ele>836.96</ele>
        <time>2021-10-31T11:23:56Z</time>
      </trkpt>
      <trkpt lat="45.03386" lon="3.53842">
        <ele>844.66</ele>
        <time>2021-10-31T11:24:10Z</time>
      </trkpt>
      <trkpt lat="45.03395" lon="3.5384">
        <ele>848.5</ele>
        <time>2021-10-31T11:24:18Z</time>
      </trkpt>
      <trkpt lat="45.03405" lon="3.53839">
        <ele>851.38</ele>
        <time>2021-10-31T11:24:27Z</time>
      </trkpt>
      <trkpt lat="45.03415" lon="3.53836">
        <ele>852.35</ele>
        <time>2021-10-31T11:24:41Z</time>
      </trkpt>
      <trkpt lat="45.03428" lon="3.53835">
        <ele>852.83</ele>
        <time>2021-10-31T11:24:55Z</time>
      </trkpt>
      <trkpt lat="45.03441" lon="3.53831">
        <ele>854.27</ele>
        <time>2021-10-31T11:25:10Z</time>
      </trkpt>
      <trkpt lat="45.03451" lon="3.53826">
        <ele>856.19</ele>
        <time>2021-10-31T11:25:21Z</time>
      </trkpt>
      <trkpt lat="45.03465" lon="3.53825">
        <ele>858.11</ele>
        <time>2021-10-31T11:25:35Z</time>
      </trkpt>
      <trkpt lat="45.03469" lon="3.53829">
        <ele>853.79</ele>
        <time>2021-10-31T11:25:49Z</time>
      </trkpt>
      <trkpt lat="45.03469" lon="3.53829">
        <ele>851.87</ele>
        <time>2021-10-31T11:25:58Z</time>
      </trkpt>
      <trkpt lat="45.0347" lon="3.53829">
        <ele>850.9</ele>
        <time>2021-10-31T11:26:24Z</time>
      </trkpt>
      <trkpt lat="45.03469" lon="3.5383">
        <ele>849.94</ele>
        <time>2021-10-31T11:26:56Z</time>
      </trkpt>
      <trkpt lat="45.03469" lon="3.53831">
        <ele>848.98</ele>
        <time>2021-10-31T11:27:23Z</time>
      </trkpt>
      <trkpt lat="45.0347" lon="3.53832">
        <ele>848.02</ele>
        <time>2021-10-31T11:27:48Z</time>
      </trkpt>
      <trkpt lat="45.03471" lon="3.53831">
        <ele>848.5</ele>
        <time>2021-10-31T11:28:05Z</time>
      </trkpt>
      <trkpt lat="45.03472" lon="3.53831">
        <ele>847.54</ele>
        <time>2021-10-31T11:28:21Z</time>
      </trkpt>
      <trkpt lat="45.03472" lon="3.5383">
        <ele>847.54</ele>
        <time>2021-10-31T11:28:39Z</time>
      </trkpt>
      <trkpt lat="45.03473" lon="3.5383">
        <ele>847.06</ele>
        <time>2021-10-31T11:29:03Z</time>
      </trkpt>
      <trkpt lat="45.03474" lon="3.5383">
        <ele>846.58</ele>
        <time>2021-10-31T11:29:16Z</time>
      </trkpt>
      <trkpt lat="45.03474" lon="3.53829">
        <ele>847.06</ele>
        <time>2021-10-31T11:29:36Z</time>
      </trkpt>
      <trkpt lat="45.03474" lon="3.5383">
        <ele>846.58</ele>
        <time>2021-10-31T11:29:55Z</time>
      </trkpt>
      <trkpt lat="45.03475" lon="3.53831">
        <ele>847.54</ele>
        <time>2021-10-31T11:29:57Z</time>
      </trkpt>
      <trkpt lat="45.03484" lon="3.53846">
        <ele>850.9</ele>
        <time>2021-10-31T11:30:11Z</time>
      </trkpt>
      <trkpt lat="45.03493" lon="3.53857">
        <ele>854.75</ele>
        <time>2021-10-31T11:30:25Z</time>
      </trkpt>
      <trkpt lat="45.03504" lon="3.53866">
        <ele>856.67</ele>
        <time>2021-10-31T11:30:39Z</time>
      </trkpt>
      <trkpt lat="45.03523" lon="3.53875">
        <ele>856.67</ele>
        <time>2021-10-31T11:30:56Z</time>
      </trkpt>
      <trkpt lat="45.03534" lon="3.53876">
        <ele>855.71</ele>
        <time>2021-10-31T11:31:05Z</time>
      </trkpt>
      <trkpt lat="45.03538" lon="3.53877">
        <ele>855.23</ele>
        <time>2021-10-31T11:31:09Z</time>
      </trkpt>
      <trkpt lat="45.03557" lon="3.5389">
        <ele>852.35</ele>
        <time>2021-10-31T11:31:25Z</time>
      </trkpt>
      <trkpt lat="45.03578" lon="3.53901">
        <ele>851.38</ele>
        <time>2021-10-31T11:31:42Z</time>
      </trkpt>
      <trkpt lat="45.03604" lon="3.53915">
        <ele>851.38</ele>
        <time>2021-10-31T11:32:03Z</time>
      </trkpt>
      <trkpt lat="45.0362" lon="3.53929">
        <ele>852.83</ele>
        <time>2021-10-31T11:32:17Z</time>
      </trkpt>
      <trkpt lat="45.03637" lon="3.53953">
        <ele>853.31</ele>
        <time>2021-10-31T11:32:34Z</time>
      </trkpt>
      <trkpt lat="45.03645" lon="3.53971">
        <ele>852.83</ele>
        <time>2021-10-31T11:32:48Z</time>
      </trkpt>
      <trkpt lat="45.03652" lon="3.53989">
        <ele>853.79</ele>
        <time>2021-10-31T11:33:01Z</time>
      </trkpt>
      <trkpt lat="45.03656" lon="3.54005">
        <ele>854.75</ele>
        <time>2021-10-31T11:33:13Z</time>
      </trkpt>
      <trkpt lat="45.03654" lon="3.54006">
        <ele>854.75</ele>
        <time>2021-10-31T11:33:15Z</time>
      </trkpt>
      <trkpt lat="45.03647" lon="3.54003">
        <ele>858.11</ele>
        <time>2021-10-31T11:33:29Z</time>
      </trkpt>
      <trkpt lat="45.03639" lon="3.54">
        <ele>862.92</ele>
        <time>2021-10-31T11:33:42Z</time>
      </trkpt>
      <trkpt lat="45.03633" lon="3.53999">
        <ele>864.36</ele>
        <time>2021-10-31T11:33:56Z</time>
      </trkpt>
      <trkpt lat="45.03632" lon="3.53999">
        <ele>863.88</ele>
        <time>2021-10-31T11:34:12Z</time>
      </trkpt>
      <trkpt lat="45.03629" lon="3.53999">
        <ele>863.4</ele>
        <time>2021-10-31T11:34:25Z</time>
      </trkpt>
      <trkpt lat="45.03626" lon="3.54001">
        <ele>864.84</ele>
        <time>2021-10-31T11:34:42Z</time>
      </trkpt>
      <trkpt lat="45.03617" lon="3.54004">
        <ele>868.21</ele>
        <time>2021-10-31T11:34:58Z</time>
      </trkpt>
      <trkpt lat="45.03607" lon="3.54005">
        <ele>870.13</ele>
        <time>2021-10-31T11:35:16Z</time>
      </trkpt>
      <trkpt lat="45.03599" lon="3.54004">
        <ele>872.05</ele>
        <time>2021-10-31T11:35:32Z</time>
      </trkpt>
      <trkpt lat="45.0359" lon="3.54006">
        <ele>874.46</ele>
        <time>2021-10-31T11:35:48Z</time>
      </trkpt>
      <trkpt lat="45.03584" lon="3.54008">
        <ele>877.34</ele>
        <time>2021-10-31T11:36:03Z</time>
      </trkpt>
      <trkpt lat="45.03579" lon="3.54011">
        <ele>877.82</ele>
        <time>2021-10-31T11:36:17Z</time>
      </trkpt>
      <trkpt lat="45.03563" lon="3.5402">
        <ele>882.15</ele>
        <time>2021-10-31T11:36:32Z</time>
      </trkpt>
      <trkpt lat="45.03554" lon="3.54029">
        <ele>883.11</ele>
        <time>2021-10-31T11:36:46Z</time>
      </trkpt>
      <trkpt lat="45.03544" lon="3.54041">
        <ele>886.95</ele>
        <time>2021-10-31T11:37:00Z</time>
      </trkpt>
      <trkpt lat="45.03532" lon="3.54054">
        <ele>891.76</ele>
        <time>2021-10-31T11:37:15Z</time>
      </trkpt>
      <trkpt lat="45.03529" lon="3.54061">
        <ele>893.2</ele>
        <time>2021-10-31T11:37:20Z</time>
      </trkpt>
      <trkpt lat="45.03522" lon="3.5408">
        <ele>898.01</ele>
        <time>2021-10-31T11:37:31Z</time>
      </trkpt>
      <trkpt lat="45.03516" lon="3.54101">
        <ele>903.78</ele>
        <time>2021-10-31T11:37:44Z</time>
      </trkpt>
      <trkpt lat="45.03507" lon="3.54129">
        <ele>911.95</ele>
        <time>2021-10-31T11:37:59Z</time>
      </trkpt>
      <trkpt lat="45.03502" lon="3.54144">
        <ele>914.83</ele>
        <time>2021-10-31T11:38:12Z</time>
      </trkpt>
      <trkpt lat="45.03499" lon="3.54165">
        <ele>919.64</ele>
        <time>2021-10-31T11:38:26Z</time>
      </trkpt>
      <trkpt lat="45.03495" lon="3.54183">
        <ele>922.04</ele>
        <time>2021-10-31T11:38:41Z</time>
      </trkpt>
      <trkpt lat="45.03495" lon="3.54198">
        <ele>922.52</ele>
        <time>2021-10-31T11:38:53Z</time>
      </trkpt>
      <trkpt lat="45.03499" lon="3.54219">
        <ele>925.89</ele>
        <time>2021-10-31T11:39:08Z</time>
      </trkpt>
      <trkpt lat="45.035" lon="3.54241">
        <ele>931.17</ele>
        <time>2021-10-31T11:39:22Z</time>
      </trkpt>
      <trkpt lat="45.03498" lon="3.54266">
        <ele>936.46</ele>
        <time>2021-10-31T11:39:38Z</time>
      </trkpt>
      <trkpt lat="45.03495" lon="3.54284">
        <ele>937.42</ele>
        <time>2021-10-31T11:39:51Z</time>
      </trkpt>
      <trkpt lat="45.03493" lon="3.54306">
        <ele>939.83</ele>
        <time>2021-10-31T11:40:06Z</time>
      </trkpt>
      <trkpt lat="45.03489" lon="3.54333">
        <ele>939.83</ele>
        <time>2021-10-31T11:40:25Z</time>
      </trkpt>
      <trkpt lat="45.03483" lon="3.54363">
        <ele>940.79</ele>
        <time>2021-10-31T11:40:42Z</time>
      </trkpt>
      <trkpt lat="45.03478" lon="3.54381">
        <ele>939.83</ele>
        <time>2021-10-31T11:40:56Z</time>
      </trkpt>
      <trkpt lat="45.03479" lon="3.54413">
        <ele>944.15</ele>
        <time>2021-10-31T11:41:10Z</time>
      </trkpt>
      <trkpt lat="45.03477" lon="3.54441">
        <ele>945.11</ele>
        <time>2021-10-31T11:41:24Z</time>
      </trkpt>
      <trkpt lat="45.03477" lon="3.5447">
        <ele>944.15</ele>
        <time>2021-10-31T11:41:40Z</time>
      </trkpt>
      <trkpt lat="45.03477" lon="3.545">
        <ele>944.63</ele>
        <time>2021-10-31T11:41:56Z</time>
      </trkpt>
      <trkpt lat="45.03477" lon="3.54529">
        <ele>946.56</ele>
        <time>2021-10-31T11:42:13Z</time>
      </trkpt>
      <trkpt lat="45.03476" lon="3.54563">
        <ele>948</ele>
        <time>2021-10-31T11:42:32Z</time>
      </trkpt>
      <trkpt lat="45.03476" lon="3.54593">
        <ele>949.44</ele>
        <time>2021-10-31T11:42:49Z</time>
      </trkpt>
      <trkpt lat="45.03478" lon="3.54627">
        <ele>947.52</ele>
        <time>2021-10-31T11:43:07Z</time>
      </trkpt>
      <trkpt lat="45.03484" lon="3.54655">
        <ele>949.92</ele>
        <time>2021-10-31T11:43:23Z</time>
      </trkpt>
      <trkpt lat="45.03496" lon="3.54682">
        <ele>953.77</ele>
        <time>2021-10-31T11:43:41Z</time>
      </trkpt>
      <trkpt lat="45.03504" lon="3.54709">
        <ele>954.73</ele>
        <time>2021-10-31T11:43:59Z</time>
      </trkpt>
      <trkpt lat="45.03506" lon="3.54736">
        <ele>951.84</ele>
        <time>2021-10-31T11:44:16Z</time>
      </trkpt>
      <trkpt lat="45.03506" lon="3.54739">
        <ele>951.36</ele>
        <time>2021-10-31T11:44:18Z</time>
      </trkpt>
      <trkpt lat="45.03497" lon="3.54745">
        <ele>948.48</ele>
        <time>2021-10-31T11:44:31Z</time>
      </trkpt>
      <trkpt lat="45.03492" lon="3.54749">
        <ele>947.52</ele>
        <time>2021-10-31T11:44:36Z</time>
      </trkpt>
      <trkpt lat="45.0349" lon="3.54749">
        <ele>947.04</ele>
        <time>2021-10-31T11:44:38Z</time>
      </trkpt>
      <trkpt lat="45.03486" lon="3.54751">
        <ele>946.56</ele>
        <time>2021-10-31T11:44:42Z</time>
      </trkpt>
      <trkpt lat="45.03467" lon="3.54772">
        <ele>944.63</ele>
        <time>2021-10-31T11:45:02Z</time>
      </trkpt>
      <trkpt lat="45.0345" lon="3.548">
        <ele>945.11</ele>
        <time>2021-10-31T11:45:21Z</time>
      </trkpt>
      <trkpt lat="45.03432" lon="3.54827">
        <ele>943.67</ele>
        <time>2021-10-31T11:45:40Z</time>
      </trkpt>
      <trkpt lat="45.03413" lon="3.54848">
        <ele>941.75</ele>
        <time>2021-10-31T11:45:57Z</time>
      </trkpt>
      <trkpt lat="45.03403" lon="3.54872">
        <ele>939.35</ele>
        <time>2021-10-31T11:46:12Z</time>
      </trkpt>
      <trkpt lat="45.03401" lon="3.54881">
        <ele>937.9</ele>
        <time>2021-10-31T11:46:17Z</time>
      </trkpt>
      <trkpt lat="45.03399" lon="3.54889">
        <ele>936.94</ele>
        <time>2021-10-31T11:46:21Z</time>
      </trkpt>
      <trkpt lat="45.03397" lon="3.5493">
        <ele>936.46</ele>
        <time>2021-10-31T11:46:42Z</time>
      </trkpt>
      <trkpt lat="45.03398" lon="3.54964">
        <ele>936.46</ele>
        <time>2021-10-31T11:47:00Z</time>
      </trkpt>
      <trkpt lat="45.03397" lon="3.54996">
        <ele>935.5</ele>
        <time>2021-10-31T11:47:17Z</time>
      </trkpt>
      <trkpt lat="45.03393" lon="3.55034">
        <ele>931.17</ele>
        <time>2021-10-31T11:47:38Z</time>
      </trkpt>
      <trkpt lat="45.03374" lon="3.55054">
        <ele>927.81</ele>
        <time>2021-10-31T11:47:55Z</time>
      </trkpt>
      <trkpt lat="45.03353" lon="3.55079">
        <ele>923.48</ele>
        <time>2021-10-31T11:48:14Z</time>
      </trkpt>
      <trkpt lat="45.03333" lon="3.55113">
        <ele>922.04</ele>
        <time>2021-10-31T11:48:36Z</time>
      </trkpt>
      <trkpt lat="45.03321" lon="3.55132">
        <ele>922.52</ele>
        <time>2021-10-31T11:48:48Z</time>
      </trkpt>
      <trkpt lat="45.03299" lon="3.55164">
        <ele>921.08</ele>
        <time>2021-10-31T11:49:09Z</time>
      </trkpt>
      <trkpt lat="45.03293" lon="3.55174">
        <ele>921.56</ele>
        <time>2021-10-31T11:49:16Z</time>
      </trkpt>
      <trkpt lat="45.03289" lon="3.55178">
        <ele>921.56</ele>
        <time>2021-10-31T11:49:20Z</time>
      </trkpt>
      <trkpt lat="45.03271" lon="3.55202">
        <ele>921.08</ele>
        <time>2021-10-31T11:49:38Z</time>
      </trkpt>
      <trkpt lat="45.03253" lon="3.55226">
        <ele>919.16</ele>
        <time>2021-10-31T11:49:55Z</time>
      </trkpt>
      <trkpt lat="45.03238" lon="3.5526">
        <ele>913.39</ele>
        <time>2021-10-31T11:50:15Z</time>
      </trkpt>
      <trkpt lat="45.0322" lon="3.55286">
        <ele>909.54</ele>
        <time>2021-10-31T11:50:33Z</time>
      </trkpt>
      <trkpt lat="45.03192" lon="3.55297">
        <ele>907.14</ele>
        <time>2021-10-31T11:50:53Z</time>
      </trkpt>
      <trkpt lat="45.03162" lon="3.553">
        <ele>905.7</ele>
        <time>2021-10-31T11:51:13Z</time>
      </trkpt>
      <trkpt lat="45.03144" lon="3.55319">
        <ele>904.26</ele>
        <time>2021-10-31T11:51:29Z</time>
      </trkpt>
      <trkpt lat="45.03137" lon="3.55359">
        <ele>905.22</ele>
        <time>2021-10-31T11:51:49Z</time>
      </trkpt>
      <trkpt lat="45.03131" lon="3.55393">
        <ele>907.14</ele>
        <time>2021-10-31T11:52:06Z</time>
      </trkpt>
      <trkpt lat="45.0313" lon="3.55397">
        <ele>907.14</ele>
        <time>2021-10-31T11:52:08Z</time>
      </trkpt>
      <trkpt lat="45.03121" lon="3.55423">
        <ele>907.62</ele>
        <time>2021-10-31T11:52:22Z</time>
      </trkpt>
      <trkpt lat="45.0311" lon="3.55451">
        <ele>909.54</ele>
        <time>2021-10-31T11:52:37Z</time>
      </trkpt>
      <trkpt lat="45.03099" lon="3.55469">
        <ele>910.99</ele>
        <time>2021-10-31T11:52:52Z</time>
      </trkpt>
      <trkpt lat="45.03098" lon="3.55469">
        <ele>910.99</ele>
        <time>2021-10-31T11:52:54Z</time>
      </trkpt>
      <trkpt lat="45.03075" lon="3.5549">
        <ele>909.06</ele>
        <time>2021-10-31T11:53:08Z</time>
      </trkpt>
      <trkpt lat="45.03061" lon="3.55521">
        <ele>906.18</ele>
        <time>2021-10-31T11:53:26Z</time>
      </trkpt>
      <trkpt lat="45.03059" lon="3.55561">
        <ele>907.62</ele>
        <time>2021-10-31T11:53:45Z</time>
      </trkpt>
      <trkpt lat="45.0307" lon="3.55597">
        <ele>912.43</ele>
        <time>2021-10-31T11:54:04Z</time>
      </trkpt>
      <trkpt lat="45.03081" lon="3.55625">
        <ele>915.31</ele>
        <time>2021-10-31T11:54:21Z</time>
      </trkpt>
      <trkpt lat="45.03086" lon="3.55651">
        <ele>916.75</ele>
        <time>2021-10-31T11:54:34Z</time>
      </trkpt>
      <trkpt lat="45.03086" lon="3.55688">
        <ele>920.12</ele>
        <time>2021-10-31T11:54:53Z</time>
      </trkpt>
      <trkpt lat="45.0308" lon="3.55719">
        <ele>922.52</ele>
        <time>2021-10-31T11:55:09Z</time>
      </trkpt>
      <trkpt lat="45.03066" lon="3.55755">
        <ele>922.52</ele>
        <time>2021-10-31T11:55:30Z</time>
      </trkpt>
      <trkpt lat="45.03059" lon="3.55782">
        <ele>923.96</ele>
        <time>2021-10-31T11:55:44Z</time>
      </trkpt>
      <trkpt lat="45.03044" lon="3.55823">
        <ele>923.48</ele>
        <time>2021-10-31T11:56:06Z</time>
      </trkpt>
      <trkpt lat="45.03021" lon="3.55861">
        <ele>921.56</ele>
        <time>2021-10-31T11:56:30Z</time>
      </trkpt>
      <trkpt lat="45.02998" lon="3.55896">
        <ele>919.64</ele>
        <time>2021-10-31T11:56:53Z</time>
      </trkpt>
      <trkpt lat="45.02982" lon="3.55925">
        <ele>923</ele>
        <time>2021-10-31T11:57:11Z</time>
      </trkpt>
      <trkpt lat="45.02961" lon="3.55955">
        <ele>924.93</ele>
        <time>2021-10-31T11:57:30Z</time>
      </trkpt>
      <trkpt lat="45.02939" lon="3.55984">
        <ele>922.04</ele>
        <time>2021-10-31T11:57:47Z</time>
      </trkpt>
      <trkpt lat="45.02917" lon="3.56016">
        <ele>923</ele>
        <time>2021-10-31T11:58:06Z</time>
      </trkpt>
      <trkpt lat="45.02897" lon="3.56045">
        <ele>922.04</ele>
        <time>2021-10-31T11:58:25Z</time>
      </trkpt>
      <trkpt lat="45.02871" lon="3.56092">
        <ele>923.96</ele>
        <time>2021-10-31T11:58:51Z</time>
      </trkpt>
      <trkpt lat="45.02855" lon="3.56132">
        <ele>924.45</ele>
        <time>2021-10-31T11:59:12Z</time>
      </trkpt>
      <trkpt lat="45.02834" lon="3.56167">
        <ele>925.41</ele>
        <time>2021-10-31T11:59:33Z</time>
      </trkpt>
      <trkpt lat="45.02813" lon="3.56202">
        <ele>926.85</ele>
        <time>2021-10-31T11:59:54Z</time>
      </trkpt>
      <trkpt lat="45.0279" lon="3.56243">
        <ele>928.77</ele>
        <time>2021-10-31T12:00:18Z</time>
      </trkpt>
      <trkpt lat="45.02779" lon="3.56289">
        <ele>929.73</ele>
        <time>2021-10-31T12:00:40Z</time>
      </trkpt>
      <trkpt lat="45.0278" lon="3.56301">
        <ele>930.21</ele>
        <time>2021-10-31T12:00:45Z</time>
      </trkpt>
      <trkpt lat="45.02782" lon="3.56328">
        <ele>928.29</ele>
        <time>2021-10-31T12:00:58Z</time>
      </trkpt>
      <trkpt lat="45.02784" lon="3.56379">
        <ele>926.85</ele>
        <time>2021-10-31T12:01:22Z</time>
      </trkpt>
      <trkpt lat="45.02781" lon="3.5643">
        <ele>926.37</ele>
        <time>2021-10-31T12:01:45Z</time>
      </trkpt>
      <trkpt lat="45.02777" lon="3.5647">
        <ele>927.81</ele>
        <time>2021-10-31T12:02:04Z</time>
      </trkpt>
      <trkpt lat="45.02774" lon="3.56514">
        <ele>928.29</ele>
        <time>2021-10-31T12:02:24Z</time>
      </trkpt>
      <trkpt lat="45.02774" lon="3.5656">
        <ele>929.25</ele>
        <time>2021-10-31T12:02:45Z</time>
      </trkpt>
      <trkpt lat="45.02779" lon="3.56605">
        <ele>929.25</ele>
        <time>2021-10-31T12:03:07Z</time>
      </trkpt>
      <trkpt lat="45.02772" lon="3.56642">
        <ele>925.41</ele>
        <time>2021-10-31T12:03:26Z</time>
      </trkpt>
      <trkpt lat="45.0276" lon="3.56678">
        <ele>920.12</ele>
        <time>2021-10-31T12:03:46Z</time>
      </trkpt>
      <trkpt lat="45.02744" lon="3.5672">
        <ele>916.27</ele>
        <time>2021-10-31T12:04:09Z</time>
      </trkpt>
      <trkpt lat="45.02734" lon="3.56752">
        <ele>913.87</ele>
        <time>2021-10-31T12:04:26Z</time>
      </trkpt>
      <trkpt lat="45.02731" lon="3.5676">
        <ele>913.39</ele>
        <time>2021-10-31T12:04:30Z</time>
      </trkpt>
      <trkpt lat="45.02726" lon="3.56803">
        <ele>911.95</ele>
        <time>2021-10-31T12:04:52Z</time>
      </trkpt>
      <trkpt lat="45.02726" lon="3.56813">
        <ele>911.95</ele>
        <time>2021-10-31T12:05:06Z</time>
      </trkpt>
      <trkpt lat="45.02731" lon="3.56833">
        <ele>909.06</ele>
        <time>2021-10-31T12:05:20Z</time>
      </trkpt>
      <trkpt lat="45.02734" lon="3.5684">
        <ele>908.58</ele>
        <time>2021-10-31T12:05:26Z</time>
      </trkpt>
      <trkpt lat="45.02737" lon="3.56861">
        <ele>906.66</ele>
        <time>2021-10-31T12:05:40Z</time>
      </trkpt>
      <trkpt lat="45.02743" lon="3.56888">
        <ele>907.14</ele>
        <time>2021-10-31T12:05:55Z</time>
      </trkpt>
      <trkpt lat="45.0275" lon="3.56922">
        <ele>909.54</ele>
        <time>2021-10-31T12:06:12Z</time>
      </trkpt>
      <trkpt lat="45.02758" lon="3.56955">
        <ele>908.58</ele>
        <time>2021-10-31T12:06:30Z</time>
      </trkpt>
      <trkpt lat="45.02769" lon="3.56983">
        <ele>908.1</ele>
        <time>2021-10-31T12:06:47Z</time>
      </trkpt>
      <trkpt lat="45.02775" lon="3.57002">
        <ele>909.06</ele>
        <time>2021-10-31T12:06:59Z</time>
      </trkpt>
      <trkpt lat="45.0277" lon="3.57028">
        <ele>903.78</ele>
        <time>2021-10-31T12:07:12Z</time>
      </trkpt>
      <trkpt lat="45.02769" lon="3.57037">
        <ele>902.82</ele>
        <time>2021-10-31T12:07:17Z</time>
      </trkpt>
      <trkpt lat="45.02767" lon="3.57042">
        <ele>901.85</ele>
        <time>2021-10-31T12:07:21Z</time>
      </trkpt>
      <trkpt lat="45.02758" lon="3.57069">
        <ele>899.93</ele>
        <time>2021-10-31T12:07:38Z</time>
      </trkpt>
      <trkpt lat="45.02758" lon="3.57097">
        <ele>898.49</ele>
        <time>2021-10-31T12:07:53Z</time>
      </trkpt>
      <trkpt lat="45.02765" lon="3.57105">
        <ele>899.45</ele>
        <time>2021-10-31T12:08:07Z</time>
      </trkpt>
      <trkpt lat="45.02761" lon="3.57113">
        <ele>901.85</ele>
        <time>2021-10-31T12:08:27Z</time>
      </trkpt>
      <trkpt lat="45.02763" lon="3.57113">
        <ele>901.85</ele>
        <time>2021-10-31T12:08:45Z</time>
      </trkpt>
      <trkpt lat="45.02765" lon="3.57112">
        <ele>900.89</ele>
        <time>2021-10-31T12:09:09Z</time>
      </trkpt>
      <trkpt lat="45.02767" lon="3.57113">
        <ele>900.41</ele>
        <time>2021-10-31T12:09:30Z</time>
      </trkpt>
      <trkpt lat="45.02769" lon="3.57119">
        <ele>899.93</ele>
        <time>2021-10-31T12:09:48Z</time>
      </trkpt>
      <trkpt lat="45.02769" lon="3.57121">
        <ele>901.37</ele>
        <time>2021-10-31T12:10:06Z</time>
      </trkpt>
      <trkpt lat="45.0277" lon="3.57124">
        <ele>901.85</ele>
        <time>2021-10-31T12:10:22Z</time>
      </trkpt>
      <trkpt lat="45.0277" lon="3.57125">
        <ele>902.33</ele>
        <time>2021-10-31T12:10:40Z</time>
      </trkpt>
      <trkpt lat="45.02768" lon="3.57128">
        <ele>900.89</ele>
        <time>2021-10-31T12:10:54Z</time>
      </trkpt>
      <trkpt lat="45.02766" lon="3.5713">
        <ele>899.93</ele>
        <time>2021-10-31T12:11:06Z</time>
      </trkpt>
      <trkpt lat="45.02764" lon="3.57132">
        <ele>898.97</ele>
        <time>2021-10-31T12:11:21Z</time>
      </trkpt>
      <trkpt lat="45.02763" lon="3.57132">
        <ele>898.49</ele>
        <time>2021-10-31T12:11:33Z</time>
      </trkpt>
      <trkpt lat="45.02762" lon="3.57132">
        <ele>898.49</ele>
        <time>2021-10-31T12:11:47Z</time>
      </trkpt>
      <trkpt lat="45.02761" lon="3.57132">
        <ele>898.49</ele>
        <time>2021-10-31T12:12:07Z</time>
      </trkpt>
      <trkpt lat="45.02761" lon="3.57132">
        <ele>898.49</ele>
        <time>2021-10-31T12:12:30Z</time>
      </trkpt>
      <trkpt lat="45.0276" lon="3.57132">
        <ele>898.97</ele>
        <time>2021-10-31T12:12:53Z</time>
      </trkpt>
      <trkpt lat="45.0276" lon="3.57133">
        <ele>898.97</ele>
        <time>2021-10-31T12:13:20Z</time>
      </trkpt>
      <trkpt lat="45.02759" lon="3.57133">
        <ele>899.45</ele>
        <time>2021-10-31T12:13:46Z</time>
      </trkpt>
      <trkpt lat="45.02759" lon="3.57134">
        <ele>899.45</ele>
        <time>2021-10-31T12:14:11Z</time>
      </trkpt>
      <trkpt lat="45.02758" lon="3.57135">
        <ele>898.97</ele>
        <time>2021-10-31T12:14:32Z</time>
      </trkpt>
      <trkpt lat="45.02757" lon="3.57136">
        <ele>898.97</ele>
        <time>2021-10-31T12:14:57Z</time>
      </trkpt>
      <trkpt lat="45.02757" lon="3.57136">
        <ele>898.97</ele>
        <time>2021-10-31T12:15:19Z</time>
      </trkpt>
      <trkpt lat="45.02757" lon="3.57137">
        <ele>898.97</ele>
        <time>2021-10-31T12:15:43Z</time>
      </trkpt>
      <trkpt lat="45.02757" lon="3.57136">
        <ele>898.97</ele>
        <time>2021-10-31T12:16:12Z</time>
      </trkpt>
      <trkpt lat="45.02757" lon="3.57136">
        <ele>899.45</ele>
        <time>2021-10-31T12:16:39Z</time>
      </trkpt>
      <trkpt lat="45.02757" lon="3.57136">
        <ele>899.93</ele>
        <time>2021-10-31T12:17:11Z</time>
      </trkpt>
      <trkpt lat="45.02757" lon="3.57136">
        <ele>900.41</ele>
        <time>2021-10-31T12:17:38Z</time>
      </trkpt>
      <trkpt lat="45.02757" lon="3.57137">
        <ele>900.41</ele>
        <time>2021-10-31T12:18:06Z</time>
      </trkpt>
      <trkpt lat="45.02756" lon="3.57138">
        <ele>900.89</ele>
        <time>2021-10-31T12:18:37Z</time>
      </trkpt>
      <trkpt lat="45.02756" lon="3.57138">
        <ele>900.89</ele>
        <time>2021-10-31T12:19:05Z</time>
      </trkpt>
      <trkpt lat="45.02756" lon="3.57139">
        <ele>900.89</ele>
        <time>2021-10-31T12:19:35Z</time>
      </trkpt>
      <trkpt lat="45.02756" lon="3.5714">
        <ele>900.41</ele>
        <time>2021-10-31T12:20:03Z</time>
      </trkpt>
      <trkpt lat="45.02756" lon="3.5714">
        <ele>900.89</ele>
        <time>2021-10-31T12:20:30Z</time>
      </trkpt>
      <trkpt lat="45.02756" lon="3.5714">
        <ele>901.85</ele>
        <time>2021-10-31T12:21:06Z</time>
      </trkpt>
      <trkpt lat="45.02756" lon="3.57141">
        <ele>902.82</ele>
        <time>2021-10-31T12:21:34Z</time>
      </trkpt>
      <trkpt lat="45.02757" lon="3.57141">
        <ele>903.78</ele>
        <time>2021-10-31T12:22:06Z</time>
      </trkpt>
      <trkpt lat="45.02758" lon="3.57141">
        <ele>904.74</ele>
        <time>2021-10-31T12:22:32Z</time>
      </trkpt>
      <trkpt lat="45.02758" lon="3.57142">
        <ele>905.7</ele>
        <time>2021-10-31T12:23:02Z</time>
      </trkpt>
      <trkpt lat="45.02758" lon="3.57143">
        <ele>906.66</ele>
        <time>2021-10-31T12:23:35Z</time>
      </trkpt>
      <trkpt lat="45.02758" lon="3.57144">
        <ele>907.62</ele>
        <time>2021-10-31T12:24:14Z</time>
      </trkpt>
      <trkpt lat="45.02759" lon="3.57145">
        <ele>909.06</ele>
        <time>2021-10-31T12:24:51Z</time>
      </trkpt>
      <trkpt lat="45.0276" lon="3.57145">
        <ele>910.03</ele>
        <time>2021-10-31T12:25:20Z</time>
      </trkpt>
      <trkpt lat="45.02759" lon="3.57143">
        <ele>910.03</ele>
        <time>2021-10-31T12:25:50Z</time>
      </trkpt>
      <trkpt lat="45.02759" lon="3.57143">
        <ele>910.03</ele>
        <time>2021-10-31T12:26:19Z</time>
      </trkpt>
      <trkpt lat="45.02759" lon="3.57142">
        <ele>910.51</ele>
        <time>2021-10-31T12:26:46Z</time>
      </trkpt>
      <trkpt lat="45.02759" lon="3.57141">
        <ele>910.03</ele>
        <time>2021-10-31T12:27:09Z</time>
      </trkpt>
      <trkpt lat="45.02759" lon="3.57141">
        <ele>910.03</ele>
        <time>2021-10-31T12:27:36Z</time>
      </trkpt>
      <trkpt lat="45.02759" lon="3.5714">
        <ele>908.58</ele>
        <time>2021-10-31T12:28:05Z</time>
      </trkpt>
      <trkpt lat="45.02759" lon="3.5714">
        <ele>907.62</ele>
        <time>2021-10-31T12:28:34Z</time>
      </trkpt>
      <trkpt lat="45.02758" lon="3.57138">
        <ele>905.7</ele>
        <time>2021-10-31T12:29:09Z</time>
      </trkpt>
      <trkpt lat="45.02758" lon="3.57139">
        <ele>905.22</ele>
        <time>2021-10-31T12:29:39Z</time>
      </trkpt>
      <trkpt lat="45.02757" lon="3.5714">
        <ele>905.7</ele>
        <time>2021-10-31T12:30:07Z</time>
      </trkpt>
      <trkpt lat="45.02757" lon="3.57141">
        <ele>905.22</ele>
        <time>2021-10-31T12:30:33Z</time>
      </trkpt>
      <trkpt lat="45.02756" lon="3.57142">
        <ele>905.7</ele>
        <time>2021-10-31T12:31:03Z</time>
      </trkpt>
      <trkpt lat="45.02756" lon="3.57145">
        <ele>905.7</ele>
        <time>2021-10-31T12:31:32Z</time>
      </trkpt>
      <trkpt lat="45.02756" lon="3.57147">
        <ele>905.22</ele>
        <time>2021-10-31T12:31:57Z</time>
      </trkpt>
      <trkpt lat="45.02756" lon="3.57147">
        <ele>905.7</ele>
        <time>2021-10-31T12:32:26Z</time>
      </trkpt>
      <trkpt lat="45.02756" lon="3.57147">
        <ele>905.22</ele>
        <time>2021-10-31T12:32:48Z</time>
      </trkpt>
      <trkpt lat="45.02757" lon="3.57146">
        <ele>905.22</ele>
        <time>2021-10-31T12:33:14Z</time>
      </trkpt>
      <trkpt lat="45.02757" lon="3.57145">
        <ele>904.26</ele>
        <time>2021-10-31T12:33:40Z</time>
      </trkpt>
      <trkpt lat="45.02757" lon="3.57145">
        <ele>903.78</ele>
        <time>2021-10-31T12:34:03Z</time>
      </trkpt>
      <trkpt lat="45.02757" lon="3.57144">
        <ele>903.3</ele>
        <time>2021-10-31T12:34:30Z</time>
      </trkpt>
      <trkpt lat="45.02756" lon="3.57144">
        <ele>902.82</ele>
        <time>2021-10-31T12:34:57Z</time>
      </trkpt>
      <trkpt lat="45.02756" lon="3.57145">
        <ele>902.33</ele>
        <time>2021-10-31T12:35:29Z</time>
      </trkpt>
      <trkpt lat="45.02755" lon="3.57145">
        <ele>902.33</ele>
        <time>2021-10-31T12:35:55Z</time>
      </trkpt>
      <trkpt lat="45.02755" lon="3.57145">
        <ele>902.33</ele>
        <time>2021-10-31T12:36:22Z</time>
      </trkpt>
      <trkpt lat="45.02756" lon="3.57145">
        <ele>902.33</ele>
        <time>2021-10-31T12:36:50Z</time>
      </trkpt>
      <trkpt lat="45.02756" lon="3.57144">
        <ele>901.37</ele>
        <time>2021-10-31T12:37:17Z</time>
      </trkpt>
      <trkpt lat="45.02757" lon="3.57143">
        <ele>900.89</ele>
        <time>2021-10-31T12:37:41Z</time>
      </trkpt>
      <trkpt lat="45.02757" lon="3.57142">
        <ele>900.41</ele>
        <time>2021-10-31T12:38:11Z</time>
      </trkpt>
      <trkpt lat="45.02757" lon="3.57141">
        <ele>899.93</ele>
        <time>2021-10-31T12:38:37Z</time>
      </trkpt>
      <trkpt lat="45.02757" lon="3.5714">
        <ele>899.93</ele>
        <time>2021-10-31T12:39:00Z</time>
      </trkpt>
      <trkpt lat="45.02758" lon="3.5714">
        <ele>899.93</ele>
        <time>2021-10-31T12:39:26Z</time>
      </trkpt>
      <trkpt lat="45.02758" lon="3.5714">
        <ele>900.41</ele>
        <time>2021-10-31T12:39:55Z</time>
      </trkpt>
      <trkpt lat="45.02758" lon="3.5714">
        <ele>899.93</ele>
        <time>2021-10-31T12:40:16Z</time>
      </trkpt>
      <trkpt lat="45.02758" lon="3.57139">
        <ele>899.45</ele>
        <time>2021-10-31T12:40:36Z</time>
      </trkpt>
      <trkpt lat="45.02758" lon="3.57139">
        <ele>899.45</ele>
        <time>2021-10-31T12:41:01Z</time>
      </trkpt>
      <trkpt lat="45.02758" lon="3.57139">
        <ele>898.97</ele>
        <time>2021-10-31T12:41:13Z</time>
      </trkpt>
      <trkpt lat="45.02758" lon="3.5714">
        <ele>899.45</ele>
        <time>2021-10-31T12:41:23Z</time>
      </trkpt>
      <trkpt lat="45.02759" lon="3.57138">
        <ele>898.97</ele>
        <time>2021-10-31T12:41:34Z</time>
      </trkpt>
      <trkpt lat="45.0276" lon="3.57137">
        <ele>898.01</ele>
        <time>2021-10-31T12:41:46Z</time>
      </trkpt>
      <trkpt lat="45.02763" lon="3.57134">
        <ele>897.53</ele>
        <time>2021-10-31T12:41:57Z</time>
      </trkpt>
      <trkpt lat="45.02764" lon="3.57133">
        <ele>897.05</ele>
        <time>2021-10-31T12:42:10Z</time>
      </trkpt>
      <trkpt lat="45.02761" lon="3.57134">
        <ele>897.05</ele>
        <time>2021-10-31T12:42:21Z</time>
      </trkpt>
      <trkpt lat="45.02759" lon="3.57134">
        <ele>896.57</ele>
        <time>2021-10-31T12:42:34Z</time>
      </trkpt>
      <trkpt lat="45.02761" lon="3.57135">
        <ele>897.05</ele>
        <time>2021-10-31T12:42:38Z</time>
      </trkpt>
      <trkpt lat="45.02765" lon="3.57125">
        <ele>896.57</ele>
        <time>2021-10-31T12:42:48Z</time>
      </trkpt>
      <trkpt lat="45.02765" lon="3.57109">
        <ele>897.53</ele>
        <time>2021-10-31T12:42:59Z</time>
      </trkpt>
      <trkpt lat="45.02759" lon="3.57104">
        <ele>898.01</ele>
        <time>2021-10-31T12:43:05Z</time>
      </trkpt>
      <trkpt lat="45.02756" lon="3.57081">
        <ele>898.49</ele>
        <time>2021-10-31T12:43:21Z</time>
      </trkpt>
      <trkpt lat="45.02761" lon="3.57072">
        <ele>900.89</ele>
        <time>2021-10-31T12:43:32Z</time>
      </trkpt>
      <trkpt lat="45.02765" lon="3.57068">
        <ele>899.93</ele>
        <time>2021-10-31T12:43:43Z</time>
      </trkpt>
      <trkpt lat="45.02765" lon="3.57067">
        <ele>899.93</ele>
        <time>2021-10-31T12:43:44Z</time>
      </trkpt>
      <trkpt lat="45.02769" lon="3.5705">
        <ele>900.41</ele>
        <time>2021-10-31T12:43:58Z</time>
      </trkpt>
      <trkpt lat="45.0277" lon="3.57049">
        <ele>900.41</ele>
        <time>2021-10-31T12:44:00Z</time>
      </trkpt>
      <trkpt lat="45.02791" lon="3.57043">
        <ele>900.41</ele>
        <time>2021-10-31T12:44:21Z</time>
      </trkpt>
      <trkpt lat="45.0281" lon="3.57043">
        <ele>899.45</ele>
        <time>2021-10-31T12:44:39Z</time>
      </trkpt>
      <trkpt lat="45.02812" lon="3.57045">
        <ele>899.45</ele>
        <time>2021-10-31T12:44:41Z</time>
      </trkpt>
      <trkpt lat="45.02818" lon="3.57047">
        <ele>899.45</ele>
        <time>2021-10-31T12:44:46Z</time>
      </trkpt>
      <trkpt lat="45.02835" lon="3.57072">
        <ele>899.93</ele>
        <time>2021-10-31T12:45:06Z</time>
      </trkpt>
      <trkpt lat="45.0285" lon="3.57088">
        <ele>899.45</ele>
        <time>2021-10-31T12:45:22Z</time>
      </trkpt>
      <trkpt lat="45.0287" lon="3.57101">
        <ele>900.41</ele>
        <time>2021-10-31T12:45:39Z</time>
      </trkpt>
      <trkpt lat="45.0288" lon="3.57105">
        <ele>900.41</ele>
        <time>2021-10-31T12:45:47Z</time>
      </trkpt>
      <trkpt lat="45.02892" lon="3.57108">
        <ele>900.41</ele>
        <time>2021-10-31T12:45:57Z</time>
      </trkpt>
      <trkpt lat="45.02895" lon="3.57108">
        <ele>900.89</ele>
        <time>2021-10-31T12:46:07Z</time>
      </trkpt>
      <trkpt lat="45.02898" lon="3.5711">
        <ele>899.93</ele>
        <time>2021-10-31T12:46:17Z</time>
      </trkpt>
      <trkpt lat="45.02906" lon="3.57113">
        <ele>899.93</ele>
        <time>2021-10-31T12:46:24Z</time>
      </trkpt>
      <trkpt lat="45.02924" lon="3.57124">
        <ele>899.93</ele>
        <time>2021-10-31T12:46:39Z</time>
      </trkpt>
      <trkpt lat="45.02946" lon="3.57147">
        <ele>898.49</ele>
        <time>2021-10-31T12:47:00Z</time>
      </trkpt>
      <trkpt lat="45.02948" lon="3.5715">
        <ele>898.49</ele>
        <time>2021-10-31T12:47:03Z</time>
      </trkpt>
      <trkpt lat="45.02951" lon="3.57154">
        <ele>898.49</ele>
        <time>2021-10-31T12:47:06Z</time>
      </trkpt>
      <trkpt lat="45.02955" lon="3.57159">
        <ele>898.97</ele>
        <time>2021-10-31T12:47:10Z</time>
      </trkpt>
      <trkpt lat="45.02966" lon="3.57174">
        <ele>898.49</ele>
        <time>2021-10-31T12:47:22Z</time>
      </trkpt>
      <trkpt lat="45.02983" lon="3.57198">
        <ele>897.53</ele>
        <time>2021-10-31T12:47:40Z</time>
      </trkpt>
      <trkpt lat="45.02997" lon="3.57223">
        <ele>897.05</ele>
        <time>2021-10-31T12:47:56Z</time>
      </trkpt>
      <trkpt lat="45.03012" lon="3.57252">
        <ele>896.09</ele>
        <time>2021-10-31T12:48:14Z</time>
      </trkpt>
      <trkpt lat="45.03015" lon="3.57259">
        <ele>896.09</ele>
        <time>2021-10-31T12:48:19Z</time>
      </trkpt>
      <trkpt lat="45.03027" lon="3.57284">
        <ele>895.61</ele>
        <time>2021-10-31T12:48:35Z</time>
      </trkpt>
      <trkpt lat="45.03042" lon="3.57305">
        <ele>896.57</ele>
        <time>2021-10-31T12:48:52Z</time>
      </trkpt>
      <trkpt lat="45.03062" lon="3.57318">
        <ele>897.05</ele>
        <time>2021-10-31T12:49:10Z</time>
      </trkpt>
      <trkpt lat="45.03081" lon="3.57326">
        <ele>897.53</ele>
        <time>2021-10-31T12:49:26Z</time>
      </trkpt>
      <trkpt lat="45.03085" lon="3.57328">
        <ele>897.53</ele>
        <time>2021-10-31T12:49:37Z</time>
      </trkpt>
      <trkpt lat="45.03105" lon="3.5734">
        <ele>897.05</ele>
        <time>2021-10-31T12:49:52Z</time>
      </trkpt>
      <trkpt lat="45.03131" lon="3.57351">
        <ele>898.01</ele>
        <time>2021-10-31T12:50:10Z</time>
      </trkpt>
      <trkpt lat="45.03162" lon="3.57359">
        <ele>896.57</ele>
        <time>2021-10-31T12:50:30Z</time>
      </trkpt>
      <trkpt lat="45.03198" lon="3.57364">
        <ele>895.61</ele>
        <time>2021-10-31T12:50:53Z</time>
      </trkpt>
      <trkpt lat="45.03228" lon="3.57361">
        <ele>894.64</ele>
        <time>2021-10-31T12:51:13Z</time>
      </trkpt>
      <trkpt lat="45.03257" lon="3.57342">
        <ele>892.24</ele>
        <time>2021-10-31T12:51:34Z</time>
      </trkpt>
      <trkpt lat="45.03281" lon="3.57313">
        <ele>892.72</ele>
        <time>2021-10-31T12:51:55Z</time>
      </trkpt>
      <trkpt lat="45.03304" lon="3.57287">
        <ele>894.64</ele>
        <time>2021-10-31T12:52:15Z</time>
      </trkpt>
      <trkpt lat="45.0333" lon="3.57263">
        <ele>895.12</ele>
        <time>2021-10-31T12:52:36Z</time>
      </trkpt>
      <trkpt lat="45.03353" lon="3.57237">
        <ele>892.72</ele>
        <time>2021-10-31T12:52:56Z</time>
      </trkpt>
      <trkpt lat="45.03381" lon="3.5723">
        <ele>888.88</ele>
        <time>2021-10-31T12:53:17Z</time>
      </trkpt>
      <trkpt lat="45.03403" lon="3.57256">
        <ele>887.91</ele>
        <time>2021-10-31T12:53:39Z</time>
      </trkpt>
      <trkpt lat="45.0342" lon="3.57277">
        <ele>888.4</ele>
        <time>2021-10-31T12:53:56Z</time>
      </trkpt>
      <trkpt lat="45.03439" lon="3.57299">
        <ele>887.91</ele>
        <time>2021-10-31T12:54:14Z</time>
      </trkpt>
      <trkpt lat="45.03456" lon="3.57316">
        <ele>885.03</ele>
        <time>2021-10-31T12:54:30Z</time>
      </trkpt>
      <trkpt lat="45.0348" lon="3.57328">
        <ele>882.15</ele>
        <time>2021-10-31T12:54:48Z</time>
      </trkpt>
      <trkpt lat="45.03504" lon="3.57333">
        <ele>879.74</ele>
        <time>2021-10-31T12:55:04Z</time>
      </trkpt>
      <trkpt lat="45.03535" lon="3.57327">
        <ele>874.94</ele>
        <time>2021-10-31T12:55:26Z</time>
      </trkpt>
      <trkpt lat="45.03554" lon="3.57321">
        <ele>872.53</ele>
        <time>2021-10-31T12:55:41Z</time>
      </trkpt>
      <trkpt lat="45.03582" lon="3.57312">
        <ele>869.65</ele>
        <time>2021-10-31T12:56:01Z</time>
      </trkpt>
      <trkpt lat="45.03604" lon="3.57304">
        <ele>867.73</ele>
        <time>2021-10-31T12:56:17Z</time>
      </trkpt>
      <trkpt lat="45.03614" lon="3.57301">
        <ele>866.29</ele>
        <time>2021-10-31T12:56:25Z</time>
      </trkpt>
      <trkpt lat="45.03623" lon="3.57308">
        <ele>864.36</ele>
        <time>2021-10-31T12:56:34Z</time>
      </trkpt>
      <trkpt lat="45.03635" lon="3.57343">
        <ele>860.52</ele>
        <time>2021-10-31T12:56:55Z</time>
      </trkpt>
      <trkpt lat="45.03643" lon="3.57381">
        <ele>858.11</ele>
        <time>2021-10-31T12:57:15Z</time>
      </trkpt>
      <trkpt lat="45.03652" lon="3.5741">
        <ele>856.67</ele>
        <time>2021-10-31T12:57:31Z</time>
      </trkpt>
      <trkpt lat="45.03661" lon="3.57443">
        <ele>857.15</ele>
        <time>2021-10-31T12:57:49Z</time>
      </trkpt>
      <trkpt lat="45.0367" lon="3.57477">
        <ele>855.71</ele>
        <time>2021-10-31T12:58:07Z</time>
      </trkpt>
      <trkpt lat="45.03682" lon="3.57504">
        <ele>854.27</ele>
        <time>2021-10-31T12:58:23Z</time>
      </trkpt>
      <trkpt lat="45.03683" lon="3.57505">
        <ele>854.27</ele>
        <time>2021-10-31T12:58:24Z</time>
      </trkpt>
      <trkpt lat="45.03689" lon="3.57512">
        <ele>854.27</ele>
        <time>2021-10-31T12:58:30Z</time>
      </trkpt>
      <trkpt lat="45.03705" lon="3.57529">
        <ele>854.27</ele>
        <time>2021-10-31T12:58:45Z</time>
      </trkpt>
      <trkpt lat="45.03718" lon="3.57551">
        <ele>851.38</ele>
        <time>2021-10-31T12:59:01Z</time>
      </trkpt>
      <trkpt lat="45.03723" lon="3.57559">
        <ele>849.46</ele>
        <time>2021-10-31T12:59:07Z</time>
      </trkpt>
      <trkpt lat="45.03735" lon="3.57584">
        <ele>846.1</ele>
        <time>2021-10-31T12:59:24Z</time>
      </trkpt>
      <trkpt lat="45.03753" lon="3.57612">
        <ele>841.77</ele>
        <time>2021-10-31T12:59:44Z</time>
      </trkpt>
      <trkpt lat="45.03774" lon="3.57636">
        <ele>839.37</ele>
        <time>2021-10-31T13:00:04Z</time>
      </trkpt>
      <trkpt lat="45.0379" lon="3.57655">
        <ele>837.45</ele>
        <time>2021-10-31T13:00:20Z</time>
      </trkpt>
      <trkpt lat="45.03793" lon="3.5766">
        <ele>836.96</ele>
        <time>2021-10-31T13:00:24Z</time>
      </trkpt>
      <trkpt lat="45.03806" lon="3.57686">
        <ele>833.6</ele>
        <time>2021-10-31T13:00:42Z</time>
      </trkpt>
      <trkpt lat="45.03807" lon="3.57697">
        <ele>831.68</ele>
        <time>2021-10-31T13:00:49Z</time>
      </trkpt>
      <trkpt lat="45.0382" lon="3.57696">
        <ele>831.2</ele>
        <time>2021-10-31T13:01:02Z</time>
      </trkpt>
      <trkpt lat="45.03831" lon="3.57688">
        <ele>831.2</ele>
        <time>2021-10-31T13:01:14Z</time>
      </trkpt>
      <trkpt lat="45.03849" lon="3.57683">
        <ele>827.35</ele>
        <time>2021-10-31T13:01:31Z</time>
      </trkpt>
      <trkpt lat="45.03867" lon="3.57678">
        <ele>824.95</ele>
        <time>2021-10-31T13:01:46Z</time>
      </trkpt>
      <trkpt lat="45.03889" lon="3.5767">
        <ele>823.03</ele>
        <time>2021-10-31T13:02:04Z</time>
      </trkpt>
      <trkpt lat="45.03908" lon="3.57663">
        <ele>819.66</ele>
        <time>2021-10-31T13:02:20Z</time>
      </trkpt>
      <trkpt lat="45.0393" lon="3.57659">
        <ele>816.3</ele>
        <time>2021-10-31T13:02:39Z</time>
      </trkpt>
      <trkpt lat="45.03948" lon="3.57664">
        <ele>812.45</ele>
        <time>2021-10-31T13:02:55Z</time>
      </trkpt>
      <trkpt lat="45.03967" lon="3.57671">
        <ele>809.09</ele>
        <time>2021-10-31T13:03:11Z</time>
      </trkpt>
      <trkpt lat="45.03982" lon="3.5767">
        <ele>806.68</ele>
        <time>2021-10-31T13:03:27Z</time>
      </trkpt>
      <trkpt lat="45.03991" lon="3.5768">
        <ele>804.76</ele>
        <time>2021-10-31T13:03:38Z</time>
      </trkpt>
      <trkpt lat="45.03986" lon="3.57698">
        <ele>800.44</ele>
        <time>2021-10-31T13:03:53Z</time>
      </trkpt>
      <trkpt lat="45.03977" lon="3.57715">
        <ele>795.63</ele>
        <time>2021-10-31T13:04:09Z</time>
      </trkpt>
      <trkpt lat="45.03974" lon="3.57722">
        <ele>795.63</ele>
        <time>2021-10-31T13:04:15Z</time>
      </trkpt>
      <trkpt lat="45.03964" lon="3.57738">
        <ele>793.22</ele>
        <time>2021-10-31T13:04:29Z</time>
      </trkpt>
      <trkpt lat="45.03963" lon="3.57748">
        <ele>790.82</ele>
        <time>2021-10-31T13:04:35Z</time>
      </trkpt>
      <trkpt lat="45.03966" lon="3.57753">
        <ele>787.94</ele>
        <time>2021-10-31T13:04:39Z</time>
      </trkpt>
      <trkpt lat="45.03979" lon="3.5776">
        <ele>781.21</ele>
        <time>2021-10-31T13:04:52Z</time>
      </trkpt>
      <trkpt lat="45.03989" lon="3.57767">
        <ele>778.81</ele>
        <time>2021-10-31T13:05:02Z</time>
      </trkpt>
      <trkpt lat="45.03996" lon="3.57773">
        <ele>778.81</ele>
        <time>2021-10-31T13:05:10Z</time>
      </trkpt>
      <trkpt lat="45.04012" lon="3.57782">
        <ele>776.88</ele>
        <time>2021-10-31T13:05:24Z</time>
      </trkpt>
      <trkpt lat="45.04014" lon="3.57784">
        <ele>776.4</ele>
        <time>2021-10-31T13:05:26Z</time>
      </trkpt>
      <trkpt lat="45.0402" lon="3.57786">
        <ele>775.44</ele>
        <time>2021-10-31T13:05:32Z</time>
      </trkpt>
      <trkpt lat="45.04025" lon="3.57793">
        <ele>774.48</ele>
        <time>2021-10-31T13:05:38Z</time>
      </trkpt>
      <trkpt lat="45.04028" lon="3.57798">
        <ele>774</ele>
        <time>2021-10-31T13:05:42Z</time>
      </trkpt>
      <trkpt lat="45.04031" lon="3.57802">
        <ele>773.04</ele>
        <time>2021-10-31T13:05:46Z</time>
      </trkpt>
      <trkpt lat="45.04043" lon="3.57814">
        <ele>769.19</ele>
        <time>2021-10-31T13:05:58Z</time>
      </trkpt>
      <trkpt lat="45.04048" lon="3.57814">
        <ele>767.75</ele>
        <time>2021-10-31T13:06:02Z</time>
      </trkpt>
      <trkpt lat="45.04056" lon="3.57817">
        <ele>765.83</ele>
        <time>2021-10-31T13:06:09Z</time>
      </trkpt>
      <trkpt lat="45.04061" lon="3.57817">
        <ele>765.35</ele>
        <time>2021-10-31T13:06:13Z</time>
      </trkpt>
      <trkpt lat="45.04079" lon="3.57818">
        <ele>763.9</ele>
        <time>2021-10-31T13:06:27Z</time>
      </trkpt>
      <trkpt lat="45.04091" lon="3.57819">
        <ele>763.9</ele>
        <time>2021-10-31T13:06:38Z</time>
      </trkpt>
      <trkpt lat="45.04094" lon="3.57822">
        <ele>762.46</ele>
        <time>2021-10-31T13:06:41Z</time>
      </trkpt>
      <trkpt lat="45.04099" lon="3.57843">
        <ele>755.73</ele>
        <time>2021-10-31T13:06:55Z</time>
      </trkpt>
      <trkpt lat="45.04099" lon="3.57845">
        <ele>755.73</ele>
        <time>2021-10-31T13:06:56Z</time>
      </trkpt>
      <trkpt lat="45.04094" lon="3.57864">
        <ele>749</ele>
        <time>2021-10-31T13:07:09Z</time>
      </trkpt>
      <trkpt lat="45.04098" lon="3.57879">
        <ele>745.64</ele>
        <time>2021-10-31T13:07:19Z</time>
      </trkpt>
      <trkpt lat="45.04101" lon="3.5788">
        <ele>745.16</ele>
        <time>2021-10-31T13:07:21Z</time>
      </trkpt>
      <trkpt lat="45.04107" lon="3.57883">
        <ele>743.72</ele>
        <time>2021-10-31T13:07:25Z</time>
      </trkpt>
      <trkpt lat="45.04117" lon="3.57894">
        <ele>741.31</ele>
        <time>2021-10-31T13:07:35Z</time>
      </trkpt>
      <trkpt lat="45.04123" lon="3.57904">
        <ele>739.87</ele>
        <time>2021-10-31T13:07:42Z</time>
      </trkpt>
      <trkpt lat="45.04129" lon="3.57917">
        <ele>738.91</ele>
        <time>2021-10-31T13:07:51Z</time>
      </trkpt>
      <trkpt lat="45.04138" lon="3.57938">
        <ele>737.95</ele>
        <time>2021-10-31T13:08:06Z</time>
      </trkpt>
      <trkpt lat="45.04146" lon="3.57966">
        <ele>734.58</ele>
        <time>2021-10-31T13:08:22Z</time>
      </trkpt>
      <trkpt lat="45.04158" lon="3.5799">
        <ele>731.22</ele>
        <time>2021-10-31T13:08:38Z</time>
      </trkpt>
      <trkpt lat="45.04165" lon="3.58001">
        <ele>730.74</ele>
        <time>2021-10-31T13:08:45Z</time>
      </trkpt>
      <trkpt lat="45.0417" lon="3.58009">
        <ele>730.26</ele>
        <time>2021-10-31T13:08:51Z</time>
      </trkpt>
      <trkpt lat="45.04173" lon="3.58013">
        <ele>728.82</ele>
        <time>2021-10-31T13:08:54Z</time>
      </trkpt>
      <trkpt lat="45.04178" lon="3.58019">
        <ele>727.86</ele>
        <time>2021-10-31T13:08:59Z</time>
      </trkpt>
      <trkpt lat="45.0419" lon="3.58036">
        <ele>724.49</ele>
        <time>2021-10-31T13:09:12Z</time>
      </trkpt>
      <trkpt lat="45.04199" lon="3.58061">
        <ele>721.13</ele>
        <time>2021-10-31T13:09:28Z</time>
      </trkpt>
      <trkpt lat="45.04207" lon="3.58082">
        <ele>718.24</ele>
        <time>2021-10-31T13:09:41Z</time>
      </trkpt>
      <trkpt lat="45.04212" lon="3.58095">
        <ele>715.36</ele>
        <time>2021-10-31T13:09:49Z</time>
      </trkpt>
      <trkpt lat="45.04223" lon="3.58118">
        <ele>711.03</ele>
        <time>2021-10-31T13:10:04Z</time>
      </trkpt>
      <trkpt lat="45.0423" lon="3.58143">
        <ele>709.11</ele>
        <time>2021-10-31T13:10:18Z</time>
      </trkpt>
      <trkpt lat="45.04236" lon="3.58168">
        <ele>707.19</ele>
        <time>2021-10-31T13:10:32Z</time>
      </trkpt>
      <trkpt lat="45.04245" lon="3.58193">
        <ele>704.78</ele>
        <time>2021-10-31T13:10:46Z</time>
      </trkpt>
      <trkpt lat="45.04256" lon="3.58225">
        <ele>701.9</ele>
        <time>2021-10-31T13:11:04Z</time>
      </trkpt>
      <trkpt lat="45.04266" lon="3.58255">
        <ele>699.5</ele>
        <time>2021-10-31T13:11:22Z</time>
      </trkpt>
      <trkpt lat="45.04273" lon="3.58277">
        <ele>697.57</ele>
        <time>2021-10-31T13:11:35Z</time>
      </trkpt>
      <trkpt lat="45.04281" lon="3.58304">
        <ele>695.65</ele>
        <time>2021-10-31T13:11:51Z</time>
      </trkpt>
      <trkpt lat="45.04287" lon="3.5833">
        <ele>691.33</ele>
        <time>2021-10-31T13:12:06Z</time>
      </trkpt>
      <trkpt lat="45.04288" lon="3.58333">
        <ele>690.84</ele>
        <time>2021-10-31T13:12:08Z</time>
      </trkpt>
      <trkpt lat="45.04282" lon="3.58358">
        <ele>687.48</ele>
        <time>2021-10-31T13:12:23Z</time>
      </trkpt>
      <trkpt lat="45.04268" lon="3.58386">
        <ele>683.63</ele>
        <time>2021-10-31T13:12:42Z</time>
      </trkpt>
      <trkpt lat="45.04263" lon="3.58399">
        <ele>682.19</ele>
        <time>2021-10-31T13:12:52Z</time>
      </trkpt>
      <trkpt lat="45.04275" lon="3.5841">
        <ele>680.27</ele>
        <time>2021-10-31T13:13:04Z</time>
      </trkpt>
      <trkpt lat="45.04292" lon="3.58422">
        <ele>676.91</ele>
        <time>2021-10-31T13:13:18Z</time>
      </trkpt>
      <trkpt lat="45.043" lon="3.58423">
        <ele>674.98</ele>
        <time>2021-10-31T13:13:24Z</time>
      </trkpt>
      <trkpt lat="45.04302" lon="3.5844">
        <ele>673.06</ele>
        <time>2021-10-31T13:13:36Z</time>
      </trkpt>
      <trkpt lat="45.04301" lon="3.58446">
        <ele>672.1</ele>
        <time>2021-10-31T13:13:39Z</time>
      </trkpt>
      <trkpt lat="45.0429" lon="3.58472">
        <ele>668.73</ele>
        <time>2021-10-31T13:13:56Z</time>
      </trkpt>
      <trkpt lat="45.0428" lon="3.58498">
        <ele>664.89</ele>
        <time>2021-10-31T13:14:11Z</time>
      </trkpt>
      <trkpt lat="45.0428" lon="3.58499">
        <ele>664.41</ele>
        <time>2021-10-31T13:14:12Z</time>
      </trkpt>
      <trkpt lat="45.04277" lon="3.58532">
        <ele>662.49</ele>
        <time>2021-10-31T13:14:30Z</time>
      </trkpt>
      <trkpt lat="45.04279" lon="3.58553">
        <ele>662.01</ele>
        <time>2021-10-31T13:14:42Z</time>
      </trkpt>
      <trkpt lat="45.04285" lon="3.5859">
        <ele>660.56</ele>
        <time>2021-10-31T13:15:01Z</time>
      </trkpt>
      <trkpt lat="45.0429" lon="3.58631">
        <ele>659.12</ele>
        <time>2021-10-31T13:15:22Z</time>
      </trkpt>
      <trkpt lat="45.04292" lon="3.58665">
        <ele>658.64</ele>
        <time>2021-10-31T13:15:41Z</time>
      </trkpt>
      <trkpt lat="45.04297" lon="3.587">
        <ele>658.64</ele>
        <time>2021-10-31T13:16:00Z</time>
      </trkpt>
      <trkpt lat="45.04298" lon="3.58709">
        <ele>658.64</ele>
        <time>2021-10-31T13:16:05Z</time>
      </trkpt>
      <trkpt lat="45.04303" lon="3.58744">
        <ele>658.16</ele>
        <time>2021-10-31T13:16:24Z</time>
      </trkpt>
      <trkpt lat="45.04305" lon="3.58759">
        <ele>656.72</ele>
        <time>2021-10-31T13:16:33Z</time>
      </trkpt>
      <trkpt lat="45.04309" lon="3.58764">
        <ele>655.28</ele>
        <time>2021-10-31T13:16:37Z</time>
      </trkpt>
      <trkpt lat="45.04314" lon="3.58761">
        <ele>653.35</ele>
        <time>2021-10-31T13:16:42Z</time>
      </trkpt>
      <trkpt lat="45.04323" lon="3.58731">
        <ele>649.99</ele>
        <time>2021-10-31T13:16:57Z</time>
      </trkpt>
      <trkpt lat="45.04326" lon="3.58723">
        <ele>649.03</ele>
        <time>2021-10-31T13:17:01Z</time>
      </trkpt>
      <trkpt lat="45.04333" lon="3.58711">
        <ele>648.07</ele>
        <time>2021-10-31T13:17:10Z</time>
      </trkpt>
      <trkpt lat="45.04341" lon="3.58723">
        <ele>643.74</ele>
        <time>2021-10-31T13:17:20Z</time>
      </trkpt>
      <trkpt lat="45.04355" lon="3.58749">
        <ele>640.38</ele>
        <time>2021-10-31T13:17:36Z</time>
      </trkpt>
      <trkpt lat="45.04358" lon="3.58754">
        <ele>639.41</ele>
        <time>2021-10-31T13:17:39Z</time>
      </trkpt>
      <trkpt lat="45.0436" lon="3.5876">
        <ele>638.93</ele>
        <time>2021-10-31T13:17:42Z</time>
      </trkpt>
      <trkpt lat="45.04364" lon="3.5877">
        <ele>638.45</ele>
        <time>2021-10-31T13:17:47Z</time>
      </trkpt>
      <trkpt lat="45.0437" lon="3.58783">
        <ele>637.49</ele>
        <time>2021-10-31T13:17:55Z</time>
      </trkpt>
      <trkpt lat="45.04371" lon="3.58786">
        <ele>637.49</ele>
        <time>2021-10-31T13:17:57Z</time>
      </trkpt>
      <trkpt lat="45.04377" lon="3.58803">
        <ele>635.57</ele>
        <time>2021-10-31T13:18:06Z</time>
      </trkpt>
      <trkpt lat="45.0438" lon="3.58821">
        <ele>633.65</ele>
        <time>2021-10-31T13:18:14Z</time>
      </trkpt>
      <trkpt lat="45.04384" lon="3.58848">
        <ele>630.28</ele>
        <time>2021-10-31T13:18:27Z</time>
      </trkpt>
      <trkpt lat="45.04383" lon="3.58858">
        <ele>629.8</ele>
        <time>2021-10-31T13:18:32Z</time>
      </trkpt>
      <trkpt lat="45.04383" lon="3.58865">
        <ele>629.8</ele>
        <time>2021-10-31T13:18:36Z</time>
      </trkpt>
      <trkpt lat="45.04389" lon="3.58862">
        <ele>629.8</ele>
        <time>2021-10-31T13:18:42Z</time>
      </trkpt>
      <trkpt lat="45.04403" lon="3.58838">
        <ele>631.72</ele>
        <time>2021-10-31T13:18:57Z</time>
      </trkpt>
      <trkpt lat="45.04414" lon="3.58816">
        <ele>629.8</ele>
        <time>2021-10-31T13:19:10Z</time>
      </trkpt>
      <trkpt lat="45.04415" lon="3.5881">
        <ele>629.8</ele>
        <time>2021-10-31T13:19:13Z</time>
      </trkpt>
      <trkpt lat="45.04419" lon="3.58794">
        <ele>628.84</ele>
        <time>2021-10-31T13:19:20Z</time>
      </trkpt>
      <trkpt lat="45.04422" lon="3.58785">
        <ele>628.36</ele>
        <time>2021-10-31T13:19:23Z</time>
      </trkpt>
      <trkpt lat="45.04432" lon="3.58757">
        <ele>626.44</ele>
        <time>2021-10-31T13:19:36Z</time>
      </trkpt>
      <trkpt lat="45.04439" lon="3.58732">
        <ele>624.03</ele>
        <time>2021-10-31T13:19:46Z</time>
      </trkpt>
      <trkpt lat="45.04445" lon="3.58695">
        <ele>617.78</ele>
        <time>2021-10-31T13:20:00Z</time>
      </trkpt>
      <trkpt lat="45.04452" lon="3.58666">
        <ele>612.98</ele>
        <time>2021-10-31T13:20:12Z</time>
      </trkpt>
      <trkpt lat="45.04455" lon="3.58652">
        <ele>611.54</ele>
        <time>2021-10-31T13:20:17Z</time>
      </trkpt>
      <trkpt lat="45.04462" lon="3.58631">
        <ele>608.17</ele>
        <time>2021-10-31T13:20:25Z</time>
      </trkpt>
      <trkpt lat="45.04454" lon="3.58625">
        <ele>608.17</ele>
        <time>2021-10-31T13:20:36Z</time>
      </trkpt>
      <trkpt lat="45.04451" lon="3.58623">
        <ele>607.21</ele>
        <time>2021-10-31T13:20:57Z</time>
      </trkpt>
      <trkpt lat="45.0445" lon="3.58623">
        <ele>607.21</ele>
        <time>2021-10-31T13:21:18Z</time>
      </trkpt>
      <trkpt lat="45.0445" lon="3.58622">
        <ele>606.25</ele>
        <time>2021-10-31T13:21:38Z</time>
      </trkpt>
      <trkpt lat="45.04449" lon="3.58622">
        <ele>606.25</ele>
        <time>2021-10-31T13:22:03Z</time>
      </trkpt>
      <trkpt lat="45.04451" lon="3.58624">
        <ele>604.81</ele>
        <time>2021-10-31T13:22:09Z</time>
      </trkpt>
      <trkpt lat="45.04454" lon="3.58627">
        <ele>602.88</ele>
        <time>2021-10-31T13:22:13Z</time>
      </trkpt>
      <trkpt lat="45.04463" lon="3.58611">
        <ele>599.52</ele>
        <time>2021-10-31T13:22:23Z</time>
      </trkpt>
      <trkpt lat="45.04472" lon="3.58595">
        <ele>599.04</ele>
        <time>2021-10-31T13:22:36Z</time>
      </trkpt>
      <trkpt lat="45.04481" lon="3.58583">
        <ele>599.04</ele>
        <time>2021-10-31T13:22:50Z</time>
      </trkpt>
      <trkpt lat="45.04492" lon="3.58573">
        <ele>598.56</ele>
        <time>2021-10-31T13:23:03Z</time>
      </trkpt>
      <trkpt lat="45.04502" lon="3.58558">
        <ele>597.12</ele>
        <time>2021-10-31T13:23:14Z</time>
      </trkpt>
      <trkpt lat="45.04507" lon="3.58554">
        <ele>596.64</ele>
        <time>2021-10-31T13:23:20Z</time>
      </trkpt>
      <trkpt lat="45.04522" lon="3.58543">
        <ele>597.12</ele>
        <time>2021-10-31T13:23:35Z</time>
      </trkpt>
      <trkpt lat="45.04526" lon="3.5854">
        <ele>597.12</ele>
        <time>2021-10-31T13:23:38Z</time>
      </trkpt>
      <trkpt lat="45.04532" lon="3.58531">
        <ele>594.71</ele>
        <time>2021-10-31T13:23:45Z</time>
      </trkpt>
      <trkpt lat="45.04534" lon="3.58527">
        <ele>594.23</ele>
        <time>2021-10-31T13:23:48Z</time>
      </trkpt>
      <trkpt lat="45.04542" lon="3.58523">
        <ele>593.75</ele>
        <time>2021-10-31T13:23:54Z</time>
      </trkpt>
      <trkpt lat="45.04551" lon="3.58521">
        <ele>594.23</ele>
        <time>2021-10-31T13:24:00Z</time>
      </trkpt>
      <trkpt lat="45.0457" lon="3.58514">
        <ele>593.75</ele>
        <time>2021-10-31T13:24:08Z</time>
      </trkpt>
      <trkpt lat="45.04583" lon="3.58506">
        <ele>591.35</ele>
        <time>2021-10-31T13:24:14Z</time>
      </trkpt>
      <trkpt lat="45.04596" lon="3.58498">
        <ele>587.02</ele>
        <time>2021-10-31T13:24:19Z</time>
      </trkpt>
      <trkpt lat="45.04608" lon="3.5849">
        <ele>581.25</ele>
        <time>2021-10-31T13:24:25Z</time>
      </trkpt>
      <trkpt lat="45.04617" lon="3.58468">
        <ele>572.6</ele>
        <time>2021-10-31T13:24:32Z</time>
      </trkpt>
      <trkpt lat="45.04623" lon="3.58459">
        <ele>569.72</ele>
        <time>2021-10-31T13:24:37Z</time>
      </trkpt>
      <trkpt lat="45.04632" lon="3.58462">
        <ele>565.39</ele>
        <time>2021-10-31T13:24:51Z</time>
      </trkpt>
      <trkpt lat="45.04642" lon="3.58455">
        <ele>565.39</ele>
        <time>2021-10-31T13:25:01Z</time>
      </trkpt>
      <trkpt lat="45.04657" lon="3.58442">
        <ele>563.47</ele>
        <time>2021-10-31T13:25:15Z</time>
      </trkpt>
      <trkpt lat="45.04666" lon="3.58429">
        <ele>559.14</ele>
        <time>2021-10-31T13:25:23Z</time>
      </trkpt>
      <trkpt lat="45.0467" lon="3.58419">
        <ele>554.34</ele>
        <time>2021-10-31T13:25:28Z</time>
      </trkpt>
      <trkpt lat="45.04675" lon="3.58413">
        <ele>549.53</ele>
        <time>2021-10-31T13:25:40Z</time>
      </trkpt>
      <trkpt lat="45.04676" lon="3.58412">
        <ele>544.72</ele>
        <time>2021-10-31T13:25:50Z</time>
      </trkpt>
      <trkpt lat="45.04677" lon="3.58409">
        <ele>538.96</ele>
        <time>2021-10-31T13:26:03Z</time>
      </trkpt>
      <trkpt lat="45.04676" lon="3.58407">
        <ele>536.07</ele>
        <time>2021-10-31T13:26:16Z</time>
      </trkpt>
      <trkpt lat="45.04677" lon="3.58411">
        <ele>535.11</ele>
        <time>2021-10-31T13:26:26Z</time>
      </trkpt>
      <trkpt lat="45.04676" lon="3.5841">
        <ele>533.67</ele>
        <time>2021-10-31T13:26:41Z</time>
      </trkpt>
      <trkpt lat="45.04677" lon="3.5841">
        <ele>533.19</ele>
        <time>2021-10-31T13:26:55Z</time>
      </trkpt>
      <trkpt lat="45.04677" lon="3.58408">
        <ele>532.23</ele>
        <time>2021-10-31T13:27:17Z</time>
      </trkpt>
      <trkpt lat="45.04678" lon="3.58409">
        <ele>532.23</ele>
        <time>2021-10-31T13:27:34Z</time>
      </trkpt>
      <trkpt lat="45.04678" lon="3.58411">
        <ele>532.23</ele>
        <time>2021-10-31T13:27:52Z</time>
      </trkpt>
      <trkpt lat="45.04678" lon="3.58411">
        <ele>531.27</ele>
        <time>2021-10-31T13:28:06Z</time>
      </trkpt>
      <trkpt lat="45.04679" lon="3.5841">
        <ele>531.27</ele>
        <time>2021-10-31T13:28:19Z</time>
      </trkpt>
      <trkpt lat="45.04681" lon="3.58411">
        <ele>532.71</ele>
        <time>2021-10-31T13:28:29Z</time>
      </trkpt>
      <trkpt lat="45.04688" lon="3.5841">
        <ele>536.55</ele>
        <time>2021-10-31T13:28:40Z</time>
      </trkpt>
      <trkpt lat="45.04697" lon="3.58406">
        <ele>537.03</ele>
        <time>2021-10-31T13:28:48Z</time>
      </trkpt>
      <trkpt lat="45.04697" lon="3.58392">
        <ele>537.51</ele>
        <time>2021-10-31T13:28:56Z</time>
      </trkpt>
      <trkpt lat="45.04695" lon="3.58365">
        <ele>539.44</ele>
        <time>2021-10-31T13:29:12Z</time>
      </trkpt>
      <trkpt lat="45.04698" lon="3.58347">
        <ele>539.92</ele>
        <time>2021-10-31T13:29:23Z</time>
      </trkpt>
      <trkpt lat="45.047" lon="3.58325">
        <ele>541.84</ele>
        <time>2021-10-31T13:29:37Z</time>
      </trkpt>
      <trkpt lat="45.047" lon="3.5832">
        <ele>541.84</ele>
        <time>2021-10-31T13:29:40Z</time>
      </trkpt>
      <trkpt lat="45.047" lon="3.58318">
        <ele>542.32</ele>
        <time>2021-10-31T13:29:42Z</time>
      </trkpt>
      <trkpt lat="45.04699" lon="3.58297">
        <ele>543.76</ele>
        <time>2021-10-31T13:29:56Z</time>
      </trkpt>
      <trkpt lat="45.04701" lon="3.58277">
        <ele>546.17</ele>
        <time>2021-10-31T13:30:10Z</time>
      </trkpt>
      <trkpt lat="45.04703" lon="3.58264">
        <ele>548.57</ele>
        <time>2021-10-31T13:30:24Z</time>
      </trkpt>
      <trkpt lat="45.04705" lon="3.58252">
        <ele>549.53</ele>
        <time>2021-10-31T13:30:36Z</time>
      </trkpt>
      <trkpt lat="45.04704" lon="3.5823">
        <ele>550.01</ele>
        <time>2021-10-31T13:30:50Z</time>
      </trkpt>
      <trkpt lat="45.04705" lon="3.58224">
        <ele>550.97</ele>
        <time>2021-10-31T13:30:54Z</time>
      </trkpt>
      <trkpt lat="45.04716" lon="3.58206">
        <ele>552.9</ele>
        <time>2021-10-31T13:31:09Z</time>
      </trkpt>
      <trkpt lat="45.04729" lon="3.5819">
        <ele>553.86</ele>
        <time>2021-10-31T13:31:23Z</time>
      </trkpt>
      <trkpt lat="45.0474" lon="3.58173">
        <ele>556.26</ele>
        <time>2021-10-31T13:31:36Z</time>
      </trkpt>
      <trkpt lat="45.04747" lon="3.58162">
        <ele>559.62</ele>
        <time>2021-10-31T13:31:46Z</time>
      </trkpt>
      <trkpt lat="45.04748" lon="3.5815">
        <ele>560.59</ele>
        <time>2021-10-31T13:31:53Z</time>
      </trkpt>
      <trkpt lat="45.04741" lon="3.58151">
        <ele>561.55</ele>
        <time>2021-10-31T13:31:59Z</time>
      </trkpt>
      <trkpt lat="45.04726" lon="3.58162">
        <ele>561.07</ele>
        <time>2021-10-31T13:32:13Z</time>
      </trkpt>
      <trkpt lat="45.04711" lon="3.58169">
        <ele>562.51</ele>
        <time>2021-10-31T13:32:26Z</time>
      </trkpt>
      <trkpt lat="45.04705" lon="3.58178">
        <ele>563.47</ele>
        <time>2021-10-31T13:32:33Z</time>
      </trkpt>
      <trkpt lat="45.04703" lon="3.58179">
        <ele>563.95</ele>
        <time>2021-10-31T13:32:35Z</time>
      </trkpt>
      <trkpt lat="45.04697" lon="3.58177">
        <ele>566.35</ele>
        <time>2021-10-31T13:32:44Z</time>
      </trkpt>
      <trkpt lat="45.04697" lon="3.58173">
        <ele>567.32</ele>
        <time>2021-10-31T13:32:47Z</time>
      </trkpt>
      <trkpt lat="45.04702" lon="3.58162">
        <ele>570.68</ele>
        <time>2021-10-31T13:33:00Z</time>
      </trkpt>
      <trkpt lat="45.04711" lon="3.58147">
        <ele>572.6</ele>
        <time>2021-10-31T13:33:14Z</time>
      </trkpt>
      <trkpt lat="45.0472" lon="3.58131">
        <ele>575.49</ele>
        <time>2021-10-31T13:33:28Z</time>
      </trkpt>
      <trkpt lat="45.04721" lon="3.5813">
        <ele>575.49</ele>
        <time>2021-10-31T13:33:29Z</time>
      </trkpt>
      <trkpt lat="45.04737" lon="3.58114">
        <ele>578.85</ele>
        <time>2021-10-31T13:33:46Z</time>
      </trkpt>
      <trkpt lat="45.04748" lon="3.581">
        <ele>582.22</ele>
        <time>2021-10-31T13:34:01Z</time>
      </trkpt>
      <trkpt lat="45.04754" lon="3.5809">
        <ele>583.18</ele>
        <time>2021-10-31T13:34:10Z</time>
      </trkpt>
      <trkpt lat="45.04756" lon="3.58088">
        <ele>583.66</ele>
        <time>2021-10-31T13:34:12Z</time>
      </trkpt>
      <trkpt lat="45.0476" lon="3.58078">
        <ele>586.54</ele>
        <time>2021-10-31T13:34:25Z</time>
      </trkpt>
      <trkpt lat="45.04758" lon="3.58079">
        <ele>588.46</ele>
        <time>2021-10-31T13:34:46Z</time>
      </trkpt>
      <trkpt lat="45.04759" lon="3.58079">
        <ele>589.43</ele>
        <time>2021-10-31T13:35:05Z</time>
      </trkpt>
      <trkpt lat="45.04762" lon="3.5807">
        <ele>589.43</ele>
        <time>2021-10-31T13:35:12Z</time>
      </trkpt>
      <trkpt lat="45.04758" lon="3.58062">
        <ele>589.91</ele>
        <time>2021-10-31T13:35:19Z</time>
      </trkpt>
      <trkpt lat="45.04746" lon="3.58071">
        <ele>592.31</ele>
        <time>2021-10-31T13:35:33Z</time>
      </trkpt>
      <trkpt lat="45.04742" lon="3.58073">
        <ele>593.75</ele>
        <time>2021-10-31T13:35:38Z</time>
      </trkpt>
      <trkpt lat="45.04728" lon="3.58081">
        <ele>595.67</ele>
        <time>2021-10-31T13:35:52Z</time>
      </trkpt>
      <trkpt lat="45.04726" lon="3.58082">
        <ele>595.67</ele>
        <time>2021-10-31T13:35:54Z</time>
      </trkpt>
      <trkpt lat="45.04712" lon="3.58087">
        <ele>597.12</ele>
        <time>2021-10-31T13:36:08Z</time>
      </trkpt>
      <trkpt lat="45.04711" lon="3.58087">
        <ele>597.12</ele>
        <time>2021-10-31T13:36:09Z</time>
      </trkpt>
      <trkpt lat="45.04707" lon="3.5809">
        <ele>596.64</ele>
        <time>2021-10-31T13:36:13Z</time>
      </trkpt>
      <trkpt lat="45.04694" lon="3.58104">
        <ele>597.12</ele>
        <time>2021-10-31T13:36:28Z</time>
      </trkpt>
      <trkpt lat="45.04686" lon="3.58122">
        <ele>599.52</ele>
        <time>2021-10-31T13:36:42Z</time>
      </trkpt>
      <trkpt lat="45.04681" lon="3.58133">
        <ele>601.92</ele>
        <time>2021-10-31T13:36:53Z</time>
      </trkpt>
      <trkpt lat="45.04672" lon="3.58142">
        <ele>602.4</ele>
        <time>2021-10-31T13:37:08Z</time>
      </trkpt>
      <trkpt lat="45.0467" lon="3.58143">
        <ele>603.85</ele>
        <time>2021-10-31T13:37:23Z</time>
      </trkpt>
      <trkpt lat="45.0467" lon="3.58143">
        <ele>603.85</ele>
        <time>2021-10-31T13:37:24Z</time>
      </trkpt>
      <trkpt lat="45.0466" lon="3.58143">
        <ele>604.81</ele>
        <time>2021-10-31T13:37:36Z</time>
      </trkpt>
      <trkpt lat="45.0466" lon="3.5814">
        <ele>604.33</ele>
        <time>2021-10-31T13:37:39Z</time>
      </trkpt>
      <trkpt lat="45.04665" lon="3.58116">
        <ele>605.77</ele>
        <time>2021-10-31T13:37:55Z</time>
      </trkpt>
      <trkpt lat="45.04666" lon="3.58114">
        <ele>606.25</ele>
        <time>2021-10-31T13:37:56Z</time>
      </trkpt>
      <trkpt lat="45.04666" lon="3.58108">
        <ele>606.25</ele>
        <time>2021-10-31T13:38:00Z</time>
      </trkpt>
      <trkpt lat="45.04666" lon="3.581">
        <ele>607.69</ele>
        <time>2021-10-31T13:38:05Z</time>
      </trkpt>
      <trkpt lat="45.04672" lon="3.58079">
        <ele>610.57</ele>
        <time>2021-10-31T13:38:21Z</time>
      </trkpt>
      <trkpt lat="45.04673" lon="3.58078">
        <ele>611.06</ele>
        <time>2021-10-31T13:38:22Z</time>
      </trkpt>
      <trkpt lat="45.04682" lon="3.58063">
        <ele>612.98</ele>
        <time>2021-10-31T13:38:35Z</time>
      </trkpt>
      <trkpt lat="45.04695" lon="3.58049">
        <ele>614.9</ele>
        <time>2021-10-31T13:38:50Z</time>
      </trkpt>
      <trkpt lat="45.04704" lon="3.58035">
        <ele>616.34</ele>
        <time>2021-10-31T13:39:02Z</time>
      </trkpt>
      <trkpt lat="45.04715" lon="3.58019">
        <ele>620.19</ele>
        <time>2021-10-31T13:39:17Z</time>
      </trkpt>
      <trkpt lat="45.04722" lon="3.58001">
        <ele>622.59</ele>
        <time>2021-10-31T13:39:30Z</time>
      </trkpt>
      <trkpt lat="45.04734" lon="3.57985">
        <ele>624.03</ele>
        <time>2021-10-31T13:39:44Z</time>
      </trkpt>
      <trkpt lat="45.04736" lon="3.57983">
        <ele>624.51</ele>
        <time>2021-10-31T13:39:46Z</time>
      </trkpt>
      <trkpt lat="45.04745" lon="3.57965">
        <ele>626.44</ele>
        <time>2021-10-31T13:40:00Z</time>
      </trkpt>
      <trkpt lat="45.04756" lon="3.57947">
        <ele>628.84</ele>
        <time>2021-10-31T13:40:14Z</time>
      </trkpt>
      <trkpt lat="45.04767" lon="3.57928">
        <ele>630.76</ele>
        <time>2021-10-31T13:40:29Z</time>
      </trkpt>
      <trkpt lat="45.04768" lon="3.57925">
        <ele>631.24</ele>
        <time>2021-10-31T13:40:31Z</time>
      </trkpt>
      <trkpt lat="45.04771" lon="3.5792">
        <ele>631.72</ele>
        <time>2021-10-31T13:40:35Z</time>
      </trkpt>
      <trkpt lat="45.04788" lon="3.57902">
        <ele>634.13</ele>
        <time>2021-10-31T13:40:52Z</time>
      </trkpt>
      <trkpt lat="45.04799" lon="3.57887">
        <ele>637.01</ele>
        <time>2021-10-31T13:41:06Z</time>
      </trkpt>
      <trkpt lat="45.04801" lon="3.57885">
        <ele>637.97</ele>
        <time>2021-10-31T13:41:08Z</time>
      </trkpt>
      <trkpt lat="45.04814" lon="3.57874">
        <ele>640.86</ele>
        <time>2021-10-31T13:41:21Z</time>
      </trkpt>
      <trkpt lat="45.04817" lon="3.57869">
        <ele>641.82</ele>
        <time>2021-10-31T13:41:25Z</time>
      </trkpt>
      <trkpt lat="45.04829" lon="3.5786">
        <ele>644.7</ele>
        <time>2021-10-31T13:41:38Z</time>
      </trkpt>
      <trkpt lat="45.0483" lon="3.57859">
        <ele>644.7</ele>
        <time>2021-10-31T13:41:39Z</time>
      </trkpt>
      <trkpt lat="45.04839" lon="3.57855">
        <ele>646.62</ele>
        <time>2021-10-31T13:41:47Z</time>
      </trkpt>
      <trkpt lat="45.04852" lon="3.57846">
        <ele>649.51</ele>
        <time>2021-10-31T13:42:00Z</time>
      </trkpt>
      <trkpt lat="45.04861" lon="3.5784">
        <ele>652.39</ele>
        <time>2021-10-31T13:42:11Z</time>
      </trkpt>
      <trkpt lat="45.0487" lon="3.57832">
        <ele>654.8</ele>
        <time>2021-10-31T13:42:21Z</time>
      </trkpt>
      <trkpt lat="45.04879" lon="3.5782">
        <ele>657.2</ele>
        <time>2021-10-31T13:42:36Z</time>
      </trkpt>
      <trkpt lat="45.04882" lon="3.57814">
        <ele>657.68</ele>
        <time>2021-10-31T13:42:41Z</time>
      </trkpt>
      <trkpt lat="45.04891" lon="3.57794">
        <ele>660.08</ele>
        <time>2021-10-31T13:42:57Z</time>
      </trkpt>
      <trkpt lat="45.049" lon="3.5778">
        <ele>662.01</ele>
        <time>2021-10-31T13:43:09Z</time>
      </trkpt>
      <trkpt lat="45.04912" lon="3.57767">
        <ele>665.37</ele>
        <time>2021-10-31T13:43:23Z</time>
      </trkpt>
      <trkpt lat="45.0492" lon="3.57762">
        <ele>668.25</ele>
        <time>2021-10-31T13:43:30Z</time>
      </trkpt>
      <trkpt lat="45.04925" lon="3.57759">
        <ele>668.73</ele>
        <time>2021-10-31T13:43:35Z</time>
      </trkpt>
      <trkpt lat="45.04945" lon="3.5775">
        <ele>672.1</ele>
        <time>2021-10-31T13:43:51Z</time>
      </trkpt>
      <trkpt lat="45.04965" lon="3.57744">
        <ele>672.58</ele>
        <time>2021-10-31T13:44:06Z</time>
      </trkpt>
      <trkpt lat="45.04982" lon="3.5774">
        <ele>674.5</ele>
        <time>2021-10-31T13:44:19Z</time>
      </trkpt>
      <trkpt lat="45.04996" lon="3.57734">
        <ele>674.98</ele>
        <time>2021-10-31T13:44:32Z</time>
      </trkpt>
      <trkpt lat="45.05007" lon="3.57724">
        <ele>675.46</ele>
        <time>2021-10-31T13:44:46Z</time>
      </trkpt>
      <trkpt lat="45.05017" lon="3.57717">
        <ele>676.42</ele>
        <time>2021-10-31T13:44:56Z</time>
      </trkpt>
      <trkpt lat="45.05025" lon="3.57713">
        <ele>677.87</ele>
        <time>2021-10-31T13:45:03Z</time>
      </trkpt>
      <trkpt lat="45.0503" lon="3.57711">
        <ele>678.35</ele>
        <time>2021-10-31T13:45:08Z</time>
      </trkpt>
      <trkpt lat="45.05034" lon="3.57708">
        <ele>678.83</ele>
        <time>2021-10-31T13:45:12Z</time>
      </trkpt>
      <trkpt lat="45.05042" lon="3.57694">
        <ele>680.75</ele>
        <time>2021-10-31T13:45:24Z</time>
      </trkpt>
      <trkpt lat="45.05043" lon="3.57691">
        <ele>680.75</ele>
        <time>2021-10-31T13:45:26Z</time>
      </trkpt>
      <trkpt lat="45.05047" lon="3.57675">
        <ele>683.15</ele>
        <time>2021-10-31T13:45:37Z</time>
      </trkpt>
      <trkpt lat="45.05052" lon="3.57665">
        <ele>685.08</ele>
        <time>2021-10-31T13:45:45Z</time>
      </trkpt>
      <trkpt lat="45.05064" lon="3.57654">
        <ele>688.92</ele>
        <time>2021-10-31T13:45:58Z</time>
      </trkpt>
      <trkpt lat="45.05081" lon="3.57649">
        <ele>692.77</ele>
        <time>2021-10-31T13:46:12Z</time>
      </trkpt>
      <trkpt lat="45.05086" lon="3.57647">
        <ele>694.21</ele>
        <time>2021-10-31T13:46:17Z</time>
      </trkpt>
      <trkpt lat="45.05104" lon="3.57642">
        <ele>696.13</ele>
        <time>2021-10-31T13:46:31Z</time>
      </trkpt>
      <trkpt lat="45.05125" lon="3.5764">
        <ele>697.09</ele>
        <time>2021-10-31T13:46:48Z</time>
      </trkpt>
      <trkpt lat="45.05143" lon="3.57635">
        <ele>699.5</ele>
        <time>2021-10-31T13:47:03Z</time>
      </trkpt>
      <trkpt lat="45.05155" lon="3.57635">
        <ele>699.98</ele>
        <time>2021-10-31T13:47:13Z</time>
      </trkpt>
      <trkpt lat="45.05163" lon="3.57637">
        <ele>701.42</ele>
        <time>2021-10-31T13:47:27Z</time>
      </trkpt>
      <trkpt lat="45.05168" lon="3.57636">
        <ele>701.9</ele>
        <time>2021-10-31T13:47:45Z</time>
      </trkpt>
      <trkpt lat="45.05188" lon="3.57633">
        <ele>701.42</ele>
        <time>2021-10-31T13:48:00Z</time>
      </trkpt>
      <trkpt lat="45.05211" lon="3.57628">
        <ele>701.42</ele>
        <time>2021-10-31T13:48:17Z</time>
      </trkpt>
      <trkpt lat="45.05232" lon="3.57622">
        <ele>701.42</ele>
        <time>2021-10-31T13:48:34Z</time>
      </trkpt>
      <trkpt lat="45.0525" lon="3.57617">
        <ele>701.9</ele>
        <time>2021-10-31T13:48:52Z</time>
      </trkpt>
      <trkpt lat="45.05255" lon="3.57617">
        <ele>700.94</ele>
        <time>2021-10-31T13:48:56Z</time>
      </trkpt>
      <trkpt lat="45.05263" lon="3.57618">
        <ele>700.94</ele>
        <time>2021-10-31T13:49:05Z</time>
      </trkpt>
      <trkpt lat="45.05279" lon="3.57622">
        <ele>699.98</ele>
        <time>2021-10-31T13:49:20Z</time>
      </trkpt>
      <trkpt lat="45.05298" lon="3.5763">
        <ele>700.94</ele>
        <time>2021-10-31T13:49:37Z</time>
      </trkpt>
      <trkpt lat="45.05318" lon="3.57633">
        <ele>701.9</ele>
        <time>2021-10-31T13:49:54Z</time>
      </trkpt>
      <trkpt lat="45.05341" lon="3.57626">
        <ele>701.42</ele>
        <time>2021-10-31T13:50:14Z</time>
      </trkpt>
      <trkpt lat="45.05361" lon="3.57618">
        <ele>701.9</ele>
        <time>2021-10-31T13:50:32Z</time>
      </trkpt>
      <trkpt lat="45.05377" lon="3.57606">
        <ele>701.42</ele>
        <time>2021-10-31T13:50:48Z</time>
      </trkpt>
      <trkpt lat="45.05392" lon="3.57596">
        <ele>700.46</ele>
        <time>2021-10-31T13:51:02Z</time>
      </trkpt>
      <trkpt lat="45.05407" lon="3.57584">
        <ele>700.46</ele>
        <time>2021-10-31T13:51:18Z</time>
      </trkpt>
      <trkpt lat="45.05423" lon="3.57568">
        <ele>700.46</ele>
        <time>2021-10-31T13:51:36Z</time>
      </trkpt>
      <trkpt lat="45.05433" lon="3.5756">
        <ele>699.98</ele>
        <time>2021-10-31T13:51:47Z</time>
      </trkpt>
      <trkpt lat="45.05451" lon="3.57542">
        <ele>697.09</ele>
        <time>2021-10-31T13:52:06Z</time>
      </trkpt>
      <trkpt lat="45.05456" lon="3.57534">
        <ele>696.61</ele>
        <time>2021-10-31T13:52:12Z</time>
      </trkpt>
      <trkpt lat="45.05459" lon="3.57529">
        <ele>696.13</ele>
        <time>2021-10-31T13:52:16Z</time>
      </trkpt>
      <trkpt lat="45.05475" lon="3.57508">
        <ele>694.69</ele>
        <time>2021-10-31T13:52:32Z</time>
      </trkpt>
      <trkpt lat="45.05486" lon="3.57484">
        <ele>691.33</ele>
        <time>2021-10-31T13:52:47Z</time>
      </trkpt>
      <trkpt lat="45.05495" lon="3.57461">
        <ele>688.44</ele>
        <time>2021-10-31T13:53:00Z</time>
      </trkpt>
      <trkpt lat="45.05505" lon="3.57433">
        <ele>687.96</ele>
        <time>2021-10-31T13:53:17Z</time>
      </trkpt>
      <trkpt lat="45.05513" lon="3.57415">
        <ele>687.48</ele>
        <time>2021-10-31T13:53:28Z</time>
      </trkpt>
      <trkpt lat="45.05522" lon="3.57398">
        <ele>687</ele>
        <time>2021-10-31T13:53:39Z</time>
      </trkpt>
      <trkpt lat="45.05525" lon="3.57393">
        <ele>686.52</ele>
        <time>2021-10-31T13:53:43Z</time>
      </trkpt>
      <trkpt lat="45.05531" lon="3.57362">
        <ele>685.56</ele>
        <time>2021-10-31T13:54:00Z</time>
      </trkpt>
      <trkpt lat="45.05533" lon="3.57355">
        <ele>685.08</ele>
        <time>2021-10-31T13:54:04Z</time>
      </trkpt>
      <trkpt lat="45.05539" lon="3.57324">
        <ele>683.63</ele>
        <time>2021-10-31T13:54:20Z</time>
      </trkpt>
      <trkpt lat="45.0554" lon="3.57323">
        <ele>683.63</ele>
        <time>2021-10-31T13:54:21Z</time>
      </trkpt>
      <trkpt lat="45.05542" lon="3.57313">
        <ele>683.15</ele>
        <time>2021-10-31T13:54:26Z</time>
      </trkpt>
      <trkpt lat="45.05545" lon="3.57283">
        <ele>683.15</ele>
        <time>2021-10-31T13:54:42Z</time>
      </trkpt>
      <trkpt lat="45.05544" lon="3.57245">
        <ele>681.23</ele>
        <time>2021-10-31T13:55:01Z</time>
      </trkpt>
      <trkpt lat="45.05544" lon="3.57233">
        <ele>680.75</ele>
        <time>2021-10-31T13:55:07Z</time>
      </trkpt>
      <trkpt lat="45.05542" lon="3.57214">
        <ele>681.23</ele>
        <time>2021-10-31T13:55:17Z</time>
      </trkpt>
      <trkpt lat="45.05541" lon="3.57179">
        <ele>681.71</ele>
        <time>2021-10-31T13:55:35Z</time>
      </trkpt>
      <trkpt lat="45.0554" lon="3.57144">
        <ele>680.75</ele>
        <time>2021-10-31T13:55:53Z</time>
      </trkpt>
      <trkpt lat="45.05539" lon="3.57105">
        <ele>679.31</ele>
        <time>2021-10-31T13:56:13Z</time>
      </trkpt>
      <trkpt lat="45.05537" lon="3.57071">
        <ele>678.83</ele>
        <time>2021-10-31T13:56:30Z</time>
      </trkpt>
      <trkpt lat="45.05534" lon="3.57043">
        <ele>679.79</ele>
        <time>2021-10-31T13:56:44Z</time>
      </trkpt>
      <trkpt lat="45.0553" lon="3.57012">
        <ele>679.31</ele>
        <time>2021-10-31T13:56:59Z</time>
      </trkpt>
      <trkpt lat="45.05524" lon="3.56979">
        <ele>680.27</ele>
        <time>2021-10-31T13:57:17Z</time>
      </trkpt>
      <trkpt lat="45.05522" lon="3.56948">
        <ele>682.19</ele>
        <time>2021-10-31T13:57:33Z</time>
      </trkpt>
      <trkpt lat="45.0552" lon="3.56941">
        <ele>683.15</ele>
        <time>2021-10-31T13:57:37Z</time>
      </trkpt>
      <trkpt lat="45.05517" lon="3.56906">
        <ele>683.63</ele>
        <time>2021-10-31T13:57:55Z</time>
      </trkpt>
      <trkpt lat="45.05516" lon="3.56902">
        <ele>683.63</ele>
        <time>2021-10-31T13:57:57Z</time>
      </trkpt>
      <trkpt lat="45.05514" lon="3.5689">
        <ele>684.12</ele>
        <time>2021-10-31T13:58:03Z</time>
      </trkpt>
      <trkpt lat="45.05506" lon="3.56861">
        <ele>685.56</ele>
        <time>2021-10-31T13:58:20Z</time>
      </trkpt>
      <trkpt lat="45.05503" lon="3.56838">
        <ele>688.44</ele>
        <time>2021-10-31T13:58:34Z</time>
      </trkpt>
      <trkpt lat="45.0551" lon="3.5683">
        <ele>691.33</ele>
        <time>2021-10-31T13:58:43Z</time>
      </trkpt>
      <trkpt lat="45.05516" lon="3.56829">
        <ele>692.29</ele>
        <time>2021-10-31T13:58:49Z</time>
      </trkpt>
      <trkpt lat="45.05532" lon="3.56823">
        <ele>696.61</ele>
        <time>2021-10-31T13:59:02Z</time>
      </trkpt>
      <trkpt lat="45.05548" lon="3.56817">
        <ele>698.53</ele>
        <time>2021-10-31T13:59:15Z</time>
      </trkpt>
      <trkpt lat="45.05564" lon="3.56803">
        <ele>697.09</ele>
        <time>2021-10-31T13:59:29Z</time>
      </trkpt>
      <trkpt lat="45.05578" lon="3.56787">
        <ele>697.57</ele>
        <time>2021-10-31T13:59:43Z</time>
      </trkpt>
      <trkpt lat="45.05596" lon="3.56764">
        <ele>695.65</ele>
        <time>2021-10-31T13:59:58Z</time>
      </trkpt>
      <trkpt lat="45.05608" lon="3.56741">
        <ele>693.25</ele>
        <time>2021-10-31T14:00:11Z</time>
      </trkpt>
      <trkpt lat="45.05624" lon="3.56714">
        <ele>689.4</ele>
        <time>2021-10-31T14:00:28Z</time>
      </trkpt>
      <trkpt lat="45.05638" lon="3.56694">
        <ele>686.04</ele>
        <time>2021-10-31T14:00:43Z</time>
      </trkpt>
      <trkpt lat="45.05654" lon="3.5668">
        <ele>687</ele>
        <time>2021-10-31T14:00:58Z</time>
      </trkpt>
      <trkpt lat="45.05666" lon="3.56665">
        <ele>688.92</ele>
        <time>2021-10-31T14:01:12Z</time>
      </trkpt>
      <trkpt lat="45.05668" lon="3.56663">
        <ele>688.92</ele>
        <time>2021-10-31T14:01:14Z</time>
      </trkpt>
      <trkpt lat="45.05681" lon="3.56639">
        <ele>687</ele>
        <time>2021-10-31T14:01:29Z</time>
      </trkpt>
      <trkpt lat="45.05693" lon="3.56617">
        <ele>683.15</ele>
        <time>2021-10-31T14:01:44Z</time>
      </trkpt>
      <trkpt lat="45.05698" lon="3.56611">
        <ele>683.63</ele>
        <time>2021-10-31T14:01:50Z</time>
      </trkpt>
      <trkpt lat="45.05703" lon="3.56605">
        <ele>683.15</ele>
        <time>2021-10-31T14:01:54Z</time>
      </trkpt>
      <trkpt lat="45.05714" lon="3.56588">
        <ele>683.63</ele>
        <time>2021-10-31T14:02:07Z</time>
      </trkpt>
      <trkpt lat="45.05724" lon="3.56573">
        <ele>685.56</ele>
        <time>2021-10-31T14:02:20Z</time>
      </trkpt>
      <trkpt lat="45.05725" lon="3.56572">
        <ele>685.56</ele>
        <time>2021-10-31T14:02:21Z</time>
      </trkpt>
      <trkpt lat="45.05736" lon="3.56557">
        <ele>687</ele>
        <time>2021-10-31T14:02:36Z</time>
      </trkpt>
      <trkpt lat="45.0574" lon="3.56552">
        <ele>687</ele>
        <time>2021-10-31T14:02:41Z</time>
      </trkpt>
      <trkpt lat="45.05754" lon="3.56536">
        <ele>687</ele>
        <time>2021-10-31T14:02:53Z</time>
      </trkpt>
      <trkpt lat="45.05772" lon="3.56518">
        <ele>686.52</ele>
        <time>2021-10-31T14:03:07Z</time>
      </trkpt>
      <trkpt lat="45.05793" lon="3.56498">
        <ele>674.98</ele>
        <time>2021-10-31T14:03:22Z</time>
      </trkpt>
      <trkpt lat="45.05816" lon="3.56488">
        <ele>670.66</ele>
        <time>2021-10-31T14:03:40Z</time>
      </trkpt>
      <trkpt lat="45.05839" lon="3.56478">
        <ele>668.25</ele>
        <time>2021-10-31T14:03:57Z</time>
      </trkpt>
      <trkpt lat="45.05859" lon="3.56466">
        <ele>666.81</ele>
        <time>2021-10-31T14:04:12Z</time>
      </trkpt>
      <trkpt lat="45.05877" lon="3.56457">
        <ele>666.81</ele>
        <time>2021-10-31T14:04:26Z</time>
      </trkpt>
      <trkpt lat="45.05894" lon="3.56451">
        <ele>667.77</ele>
        <time>2021-10-31T14:04:41Z</time>
      </trkpt>
      <trkpt lat="45.05915" lon="3.56451">
        <ele>669.22</ele>
        <time>2021-10-31T14:04:58Z</time>
      </trkpt>
      <trkpt lat="45.05932" lon="3.56453">
        <ele>672.1</ele>
        <time>2021-10-31T14:05:11Z</time>
      </trkpt>
      <trkpt lat="45.05953" lon="3.56448">
        <ele>674.5</ele>
        <time>2021-10-31T14:05:27Z</time>
      </trkpt>
      <trkpt lat="45.0597" lon="3.56443">
        <ele>675.94</ele>
        <time>2021-10-31T14:05:40Z</time>
      </trkpt>
      <trkpt lat="45.05971" lon="3.56442">
        <ele>676.42</ele>
        <time>2021-10-31T14:05:41Z</time>
      </trkpt>
      <trkpt lat="45.05992" lon="3.56425">
        <ele>675.46</ele>
        <time>2021-10-31T14:05:57Z</time>
      </trkpt>
      <trkpt lat="45.05994" lon="3.56424">
        <ele>675.46</ele>
        <time>2021-10-31T14:05:58Z</time>
      </trkpt>
      <trkpt lat="45.06002" lon="3.56415">
        <ele>674.02</ele>
        <time>2021-10-31T14:06:04Z</time>
      </trkpt>
      <trkpt lat="45.06006" lon="3.56408">
        <ele>673.54</ele>
        <time>2021-10-31T14:06:08Z</time>
      </trkpt>
      <trkpt lat="45.06013" lon="3.56393">
        <ele>674.98</ele>
        <time>2021-10-31T14:06:17Z</time>
      </trkpt>
      <trkpt lat="45.06023" lon="3.56362">
        <ele>678.83</ele>
        <time>2021-10-31T14:06:35Z</time>
      </trkpt>
      <trkpt lat="45.06028" lon="3.56322">
        <ele>676.42</ele>
        <time>2021-10-31T14:06:52Z</time>
      </trkpt>
      <trkpt lat="45.06027" lon="3.56311">
        <ele>674.02</ele>
        <time>2021-10-31T14:06:57Z</time>
      </trkpt>
      <trkpt lat="45.06014" lon="3.5629">
        <ele>669.7</ele>
        <time>2021-10-31T14:07:13Z</time>
      </trkpt>
      <trkpt lat="45.0601" lon="3.56281">
        <ele>668.73</ele>
        <time>2021-10-31T14:07:27Z</time>
      </trkpt>
      <trkpt lat="45.06009" lon="3.56281">
        <ele>667.77</ele>
        <time>2021-10-31T14:07:38Z</time>
      </trkpt>
      <trkpt lat="45.06008" lon="3.5628">
        <ele>666.81</ele>
        <time>2021-10-31T14:07:54Z</time>
      </trkpt>
      <trkpt lat="45.06007" lon="3.56279">
        <ele>666.81</ele>
        <time>2021-10-31T14:08:07Z</time>
      </trkpt>
      <trkpt lat="45.06005" lon="3.56281">
        <ele>666.81</ele>
        <time>2021-10-31T14:08:16Z</time>
      </trkpt>
      <trkpt lat="45.06004" lon="3.56281">
        <ele>666.33</ele>
        <time>2021-10-31T14:08:27Z</time>
      </trkpt>
      <trkpt lat="45.06003" lon="3.56283">
        <ele>666.33</ele>
        <time>2021-10-31T14:08:46Z</time>
      </trkpt>
      <trkpt lat="45.06004" lon="3.56284">
        <ele>667.29</ele>
        <time>2021-10-31T14:09:14Z</time>
      </trkpt>
      <trkpt lat="45.06003" lon="3.56282">
        <ele>667.29</ele>
        <time>2021-10-31T14:09:26Z</time>
      </trkpt>
      <trkpt lat="45.06004" lon="3.56283">
        <ele>666.81</ele>
        <time>2021-10-31T14:09:37Z</time>
      </trkpt>
      <trkpt lat="45.06003" lon="3.56284">
        <ele>666.33</ele>
        <time>2021-10-31T14:09:49Z</time>
      </trkpt>
      <trkpt lat="45.06004" lon="3.56287">
        <ele>666.81</ele>
        <time>2021-10-31T14:10:15Z</time>
      </trkpt>
      <trkpt lat="45.06004" lon="3.56287">
        <ele>665.85</ele>
        <time>2021-10-31T14:10:44Z</time>
      </trkpt>
      <trkpt lat="45.06004" lon="3.56288">
        <ele>666.33</ele>
        <time>2021-10-31T14:11:10Z</time>
      </trkpt>
      <trkpt lat="45.06004" lon="3.56288">
        <ele>667.29</ele>
        <time>2021-10-31T14:11:29Z</time>
      </trkpt>
      <trkpt lat="45.06004" lon="3.56287">
        <ele>667.29</ele>
        <time>2021-10-31T14:11:44Z</time>
      </trkpt>
      <trkpt lat="45.06006" lon="3.56285">
        <ele>665.85</ele>
        <time>2021-10-31T14:11:56Z</time>
      </trkpt>
      <trkpt lat="45.06006" lon="3.56283">
        <ele>666.81</ele>
        <time>2021-10-31T14:12:12Z</time>
      </trkpt>
      <trkpt lat="45.06007" lon="3.56283">
        <ele>667.29</ele>
        <time>2021-10-31T14:12:31Z</time>
      </trkpt>
      <trkpt lat="45.06006" lon="3.56282">
        <ele>666.33</ele>
        <time>2021-10-31T14:12:45Z</time>
      </trkpt>
      <trkpt lat="45.06005" lon="3.56282">
        <ele>666.33</ele>
        <time>2021-10-31T14:13:03Z</time>
      </trkpt>
      <trkpt lat="45.06004" lon="3.56281">
        <ele>665.85</ele>
        <time>2021-10-31T14:13:22Z</time>
      </trkpt>
      <trkpt lat="45.06003" lon="3.56282">
        <ele>665.37</ele>
        <time>2021-10-31T14:13:41Z</time>
      </trkpt>
      <trkpt lat="45.06003" lon="3.56282">
        <ele>664.89</ele>
        <time>2021-10-31T14:13:57Z</time>
      </trkpt>
      <trkpt lat="45.06003" lon="3.56281">
        <ele>664.41</ele>
        <time>2021-10-31T14:14:25Z</time>
      </trkpt>
      <trkpt lat="45.06004" lon="3.56281">
        <ele>664.89</ele>
        <time>2021-10-31T14:14:48Z</time>
      </trkpt>
      <trkpt lat="45.06004" lon="3.56281">
        <ele>664.89</ele>
        <time>2021-10-31T14:14:58Z</time>
      </trkpt>
      <trkpt lat="45.06004" lon="3.56281">
        <ele>664.89</ele>
        <time>2021-10-31T14:15:11Z</time>
      </trkpt>
      <trkpt lat="45.06004" lon="3.5628">
        <ele>665.37</ele>
        <time>2021-10-31T14:15:28Z</time>
      </trkpt>
      <trkpt lat="45.06005" lon="3.56283">
        <ele>664.89</ele>
        <time>2021-10-31T14:15:46Z</time>
      </trkpt>
      <trkpt lat="45.06007" lon="3.56284">
        <ele>664.41</ele>
        <time>2021-10-31T14:15:48Z</time>
      </trkpt>
      <trkpt lat="45.06022" lon="3.56304">
        <ele>662.01</ele>
        <time>2021-10-31T14:16:06Z</time>
      </trkpt>
      <trkpt lat="45.0604" lon="3.56308">
        <ele>658.64</ele>
        <time>2021-10-31T14:16:21Z</time>
      </trkpt>
      <trkpt lat="45.06046" lon="3.56305">
        <ele>659.12</ele>
        <time>2021-10-31T14:16:27Z</time>
      </trkpt>
      <trkpt lat="45.06057" lon="3.56284">
        <ele>658.16</ele>
        <time>2021-10-31T14:16:42Z</time>
      </trkpt>
      <trkpt lat="45.0606" lon="3.56247">
        <ele>658.64</ele>
        <time>2021-10-31T14:16:59Z</time>
      </trkpt>
      <trkpt lat="45.06058" lon="3.56217">
        <ele>658.16</ele>
        <time>2021-10-31T14:17:15Z</time>
      </trkpt>
      <trkpt lat="45.06056" lon="3.56198">
        <ele>655.76</ele>
        <time>2021-10-31T14:17:25Z</time>
      </trkpt>
      <trkpt lat="45.06052" lon="3.56165">
        <ele>649.03</ele>
        <time>2021-10-31T14:17:41Z</time>
      </trkpt>
      <trkpt lat="45.06047" lon="3.56133">
        <ele>645.18</ele>
        <time>2021-10-31T14:17:57Z</time>
      </trkpt>
      <trkpt lat="45.06044" lon="3.56095">
        <ele>641.82</ele>
        <time>2021-10-31T14:18:17Z</time>
      </trkpt>
      <trkpt lat="45.06051" lon="3.56064">
        <ele>639.41</ele>
        <time>2021-10-31T14:18:35Z</time>
      </trkpt>
      <trkpt lat="45.06059" lon="3.56028">
        <ele>636.53</ele>
        <time>2021-10-31T14:18:53Z</time>
      </trkpt>
      <trkpt lat="45.06065" lon="3.55995">
        <ele>634.13</ele>
        <time>2021-10-31T14:19:11Z</time>
      </trkpt>
      <trkpt lat="45.06084" lon="3.55961">
        <ele>630.28</ele>
        <time>2021-10-31T14:19:32Z</time>
      </trkpt>
      <trkpt lat="45.06099" lon="3.55936">
        <ele>628.36</ele>
        <time>2021-10-31T14:19:47Z</time>
      </trkpt>
      <trkpt lat="45.06112" lon="3.55895">
        <ele>626.92</ele>
        <time>2021-10-31T14:20:07Z</time>
      </trkpt>
      <trkpt lat="45.06121" lon="3.55857">
        <ele>624.03</ele>
        <time>2021-10-31T14:20:26Z</time>
      </trkpt>
      <trkpt lat="45.06128" lon="3.55822">
        <ele>623.07</ele>
        <time>2021-10-31T14:20:43Z</time>
      </trkpt>
      <trkpt lat="45.06128" lon="3.5582">
        <ele>623.07</ele>
        <time>2021-10-31T14:20:44Z</time>
      </trkpt>
      <trkpt lat="45.0613" lon="3.55808">
        <ele>623.07</ele>
        <time>2021-10-31T14:20:50Z</time>
      </trkpt>
      <trkpt lat="45.06133" lon="3.55764">
        <ele>621.15</ele>
        <time>2021-10-31T14:21:11Z</time>
      </trkpt>
      <trkpt lat="45.06134" lon="3.55724">
        <ele>620.19</ele>
        <time>2021-10-31T14:21:30Z</time>
      </trkpt>
      <trkpt lat="45.06135" lon="3.55681">
        <ele>620.19</ele>
        <time>2021-10-31T14:21:51Z</time>
      </trkpt>
      <trkpt lat="45.06139" lon="3.5564">
        <ele>620.19</ele>
        <time>2021-10-31T14:22:11Z</time>
      </trkpt>
      <trkpt lat="45.06144" lon="3.55597">
        <ele>619.71</ele>
        <time>2021-10-31T14:22:32Z</time>
      </trkpt>
      <trkpt lat="45.06138" lon="3.55561">
        <ele>617.78</ele>
        <time>2021-10-31T14:22:49Z</time>
      </trkpt>
      <trkpt lat="45.06138" lon="3.55523">
        <ele>617.3</ele>
        <time>2021-10-31T14:23:08Z</time>
      </trkpt>
      <trkpt lat="45.06141" lon="3.55484">
        <ele>615.86</ele>
        <time>2021-10-31T14:23:27Z</time>
      </trkpt>
      <trkpt lat="45.06119" lon="3.55457">
        <ele>614.42</ele>
        <time>2021-10-31T14:23:47Z</time>
      </trkpt>
      <trkpt lat="45.06099" lon="3.55433">
        <ele>612.98</ele>
        <time>2021-10-31T14:24:05Z</time>
      </trkpt>
      <trkpt lat="45.06081" lon="3.55409">
        <ele>611.06</ele>
        <time>2021-10-31T14:24:22Z</time>
      </trkpt>
      <trkpt lat="45.06064" lon="3.55387">
        <ele>609.61</ele>
        <time>2021-10-31T14:24:38Z</time>
      </trkpt>
      <trkpt lat="45.06043" lon="3.5536">
        <ele>606.73</ele>
        <time>2021-10-31T14:24:58Z</time>
      </trkpt>
      <trkpt lat="45.06022" lon="3.55345">
        <ele>605.29</ele>
        <time>2021-10-31T14:25:16Z</time>
      </trkpt>
      <trkpt lat="45.06011" lon="3.55344">
        <ele>605.29</ele>
        <time>2021-10-31T14:25:25Z</time>
      </trkpt>
      <trkpt lat="45.06006" lon="3.55335">
        <ele>604.81</ele>
        <time>2021-10-31T14:25:31Z</time>
      </trkpt>
      <trkpt lat="45.05997" lon="3.55324">
        <ele>606.25</ele>
        <time>2021-10-31T14:25:41Z</time>
      </trkpt>
      <trkpt lat="45.05994" lon="3.55318">
        <ele>605.77</ele>
        <time>2021-10-31T14:25:45Z</time>
      </trkpt>
      <trkpt lat="45.05994" lon="3.55288">
        <ele>605.29</ele>
        <time>2021-10-31T14:26:01Z</time>
      </trkpt>
      <trkpt lat="45.06002" lon="3.55265">
        <ele>607.21</ele>
        <time>2021-10-31T14:26:17Z</time>
      </trkpt>
      <trkpt lat="45.05997" lon="3.55253">
        <ele>603.85</ele>
        <time>2021-10-31T14:26:30Z</time>
      </trkpt>
      <trkpt lat="45.05995" lon="3.55253">
        <ele>602.88</ele>
        <time>2021-10-31T14:26:32Z</time>
      </trkpt>
      <trkpt lat="45.05993" lon="3.55254">
        <ele>602.4</ele>
        <time>2021-10-31T14:26:34Z</time>
      </trkpt>
      <trkpt lat="45.0599" lon="3.55255">
        <ele>601.92</ele>
        <time>2021-10-31T14:26:37Z</time>
      </trkpt>
      <trkpt lat="45.05988" lon="3.55256">
        <ele>601.92</ele>
        <time>2021-10-31T14:26:39Z</time>
      </trkpt>
      <trkpt lat="45.05982" lon="3.55253">
        <ele>601.92</ele>
        <time>2021-10-31T14:26:48Z</time>
      </trkpt>
      <trkpt lat="45.05981" lon="3.55248">
        <ele>601.44</ele>
        <time>2021-10-31T14:26:51Z</time>
      </trkpt>
      <trkpt lat="45.05974" lon="3.55243">
        <ele>599.52</ele>
        <time>2021-10-31T14:26:59Z</time>
      </trkpt>
      <trkpt lat="45.05967" lon="3.55243">
        <ele>596.64</ele>
        <time>2021-10-31T14:27:04Z</time>
      </trkpt>
      <trkpt lat="45.05947" lon="3.55251">
        <ele>591.83</ele>
        <time>2021-10-31T14:27:16Z</time>
      </trkpt>
      <trkpt lat="45.05943" lon="3.55251">
        <ele>591.35</ele>
        <time>2021-10-31T14:27:19Z</time>
      </trkpt>
      <trkpt lat="45.05943" lon="3.55243">
        <ele>591.35</ele>
        <time>2021-10-31T14:27:25Z</time>
      </trkpt>
      <trkpt lat="45.05945" lon="3.55213">
        <ele>587.02</ele>
        <time>2021-10-31T14:27:41Z</time>
      </trkpt>
      <trkpt lat="45.05942" lon="3.5519">
        <ele>583.18</ele>
        <time>2021-10-31T14:27:54Z</time>
      </trkpt>
      <trkpt lat="45.05932" lon="3.5516">
        <ele>579.33</ele>
        <time>2021-10-31T14:28:10Z</time>
      </trkpt>
      <trkpt lat="45.05927" lon="3.55148">
        <ele>579.33</ele>
        <time>2021-10-31T14:28:18Z</time>
      </trkpt>
      <trkpt lat="45.05925" lon="3.55124">
        <ele>576.45</ele>
        <time>2021-10-31T14:28:32Z</time>
      </trkpt>
      <trkpt lat="45.05923" lon="3.55105">
        <ele>572.6</ele>
        <time>2021-10-31T14:28:42Z</time>
      </trkpt>
      <trkpt lat="45.05923" lon="3.55095">
        <ele>570.68</ele>
        <time>2021-10-31T14:28:47Z</time>
      </trkpt>
      <trkpt lat="45.05923" lon="3.55092">
        <ele>570.2</ele>
        <time>2021-10-31T14:28:49Z</time>
      </trkpt>
      <trkpt lat="45.05925" lon="3.55076">
        <ele>568.28</ele>
        <time>2021-10-31T14:28:57Z</time>
      </trkpt>
      <trkpt lat="45.05923" lon="3.55072">
        <ele>567.32</ele>
        <time>2021-10-31T14:29:00Z</time>
      </trkpt>
      <trkpt lat="45.0592" lon="3.55046">
        <ele>563.47</ele>
        <time>2021-10-31T14:29:11Z</time>
      </trkpt>
      <trkpt lat="45.05921" lon="3.55026">
        <ele>560.11</ele>
        <time>2021-10-31T14:29:17Z</time>
      </trkpt>
      <trkpt lat="45.05924" lon="3.55005">
        <ele>559.62</ele>
        <time>2021-10-31T14:29:31Z</time>
      </trkpt>
      <trkpt lat="45.05928" lon="3.54993">
        <ele>559.62</ele>
        <time>2021-10-31T14:29:42Z</time>
      </trkpt>
      <trkpt lat="45.05932" lon="3.54979">
        <ele>558.18</ele>
        <time>2021-10-31T14:29:53Z</time>
      </trkpt>
      <trkpt lat="45.05941" lon="3.54944">
        <ele>556.26</ele>
        <time>2021-10-31T14:30:11Z</time>
      </trkpt>
      <trkpt lat="45.05945" lon="3.54901">
        <ele>553.86</ele>
        <time>2021-10-31T14:30:32Z</time>
      </trkpt>
      <trkpt lat="45.05949" lon="3.54869">
        <ele>551.45</ele>
        <time>2021-10-31T14:30:51Z</time>
      </trkpt>
      <trkpt lat="45.05967" lon="3.54864">
        <ele>550.01</ele>
        <time>2021-10-31T14:31:06Z</time>
      </trkpt>
      <trkpt lat="45.0599" lon="3.54856">
        <ele>548.09</ele>
        <time>2021-10-31T14:31:23Z</time>
      </trkpt>
      <trkpt lat="45.06014" lon="3.54852">
        <ele>549.05</ele>
        <time>2021-10-31T14:31:41Z</time>
      </trkpt>
      <trkpt lat="45.06018" lon="3.54852">
        <ele>549.05</ele>
        <time>2021-10-31T14:31:44Z</time>
      </trkpt>
      <trkpt lat="45.06031" lon="3.5485">
        <ele>549.53</ele>
        <time>2021-10-31T14:31:54Z</time>
      </trkpt>
      <trkpt lat="45.06057" lon="3.54853">
        <ele>548.09</ele>
        <time>2021-10-31T14:32:13Z</time>
      </trkpt>
      <trkpt lat="45.0608" lon="3.54853">
        <ele>546.65</ele>
        <time>2021-10-31T14:32:30Z</time>
      </trkpt>
      <trkpt lat="45.06105" lon="3.54851">
        <ele>547.61</ele>
        <time>2021-10-31T14:32:48Z</time>
      </trkpt>
      <trkpt lat="45.0613" lon="3.54843">
        <ele>549.05</ele>
        <time>2021-10-31T14:33:05Z</time>
      </trkpt>
      <trkpt lat="45.06151" lon="3.54836">
        <ele>550.01</ele>
        <time>2021-10-31T14:33:21Z</time>
      </trkpt>
      <trkpt lat="45.06179" lon="3.54822">
        <ele>550.01</ele>
        <time>2021-10-31T14:33:41Z</time>
      </trkpt>
      <trkpt lat="45.06202" lon="3.54805">
        <ele>554.34</ele>
        <time>2021-10-31T14:33:59Z</time>
      </trkpt>
      <trkpt lat="45.06223" lon="3.54778">
        <ele>553.86</ele>
        <time>2021-10-31T14:34:18Z</time>
      </trkpt>
      <trkpt lat="45.06241" lon="3.54764">
        <ele>554.34</ele>
        <time>2021-10-31T14:34:33Z</time>
      </trkpt>
      <trkpt lat="45.06257" lon="3.54754">
        <ele>557.7</ele>
        <time>2021-10-31T14:34:47Z</time>
      </trkpt>
      <trkpt lat="45.06278" lon="3.54747">
        <ele>560.59</ele>
        <time>2021-10-31T14:35:02Z</time>
      </trkpt>
      <trkpt lat="45.06306" lon="3.54729">
        <ele>561.55</ele>
        <time>2021-10-31T14:35:22Z</time>
      </trkpt>
      <trkpt lat="45.06327" lon="3.54712">
        <ele>561.55</ele>
        <time>2021-10-31T14:35:39Z</time>
      </trkpt>
      <trkpt lat="45.06349" lon="3.54701">
        <ele>561.55</ele>
        <time>2021-10-31T14:35:55Z</time>
      </trkpt>
      <trkpt lat="45.0637" lon="3.54703">
        <ele>561.07</ele>
        <time>2021-10-31T14:36:11Z</time>
      </trkpt>
      <trkpt lat="45.06393" lon="3.5471">
        <ele>558.66</ele>
        <time>2021-10-31T14:36:29Z</time>
      </trkpt>
      <trkpt lat="45.06421" lon="3.5472">
        <ele>555.3</ele>
        <time>2021-10-31T14:36:49Z</time>
      </trkpt>
      <trkpt lat="45.0645" lon="3.54724">
        <ele>554.34</ele>
        <time>2021-10-31T14:37:09Z</time>
      </trkpt>
      <trkpt lat="45.0648" lon="3.54719">
        <ele>550.49</ele>
        <time>2021-10-31T14:37:29Z</time>
      </trkpt>
      <trkpt lat="45.065" lon="3.54716">
        <ele>548.57</ele>
        <time>2021-10-31T14:37:43Z</time>
      </trkpt>
      <trkpt lat="45.06509" lon="3.54733">
        <ele>546.17</ele>
        <time>2021-10-31T14:37:59Z</time>
      </trkpt>
      <trkpt lat="45.06521" lon="3.54753">
        <ele>545.69</ele>
        <time>2021-10-31T14:38:13Z</time>
      </trkpt>
      <trkpt lat="45.06546" lon="3.54764">
        <ele>549.05</ele>
        <time>2021-10-31T14:38:33Z</time>
      </trkpt>
      <trkpt lat="45.06571" lon="3.5477">
        <ele>553.86</ele>
        <time>2021-10-31T14:38:50Z</time>
      </trkpt>
      <trkpt lat="45.06573" lon="3.54769">
        <ele>553.38</ele>
        <time>2021-10-31T14:38:51Z</time>
      </trkpt>
      <trkpt lat="45.06583" lon="3.54767">
        <ele>550.01</ele>
        <time>2021-10-31T14:38:57Z</time>
      </trkpt>
      <trkpt lat="45.06607" lon="3.54764">
        <ele>548.09</ele>
        <time>2021-10-31T14:39:12Z</time>
      </trkpt>
      <trkpt lat="45.06632" lon="3.54753">
        <ele>545.69</ele>
        <time>2021-10-31T14:39:30Z</time>
      </trkpt>
      <trkpt lat="45.06655" lon="3.54738">
        <ele>544.24</ele>
        <time>2021-10-31T14:39:47Z</time>
      </trkpt>
      <trkpt lat="45.06674" lon="3.54723">
        <ele>547.13</ele>
        <time>2021-10-31T14:40:02Z</time>
      </trkpt>
      <trkpt lat="45.06699" lon="3.5472">
        <ele>547.13</ele>
        <time>2021-10-31T14:40:19Z</time>
      </trkpt>
      <trkpt lat="45.06715" lon="3.54722">
        <ele>546.17</ele>
        <time>2021-10-31T14:40:35Z</time>
      </trkpt>
      <trkpt lat="45.06735" lon="3.54714">
        <ele>548.57</ele>
        <time>2021-10-31T14:40:50Z</time>
      </trkpt>
      <trkpt lat="45.06752" lon="3.547">
        <ele>550.97</ele>
        <time>2021-10-31T14:41:05Z</time>
      </trkpt>
      <trkpt lat="45.06763" lon="3.54693">
        <ele>551.93</ele>
        <time>2021-10-31T14:41:16Z</time>
      </trkpt>
      <trkpt lat="45.06783" lon="3.54674">
        <ele>550.97</ele>
        <time>2021-10-31T14:41:34Z</time>
      </trkpt>
      <trkpt lat="45.06786" lon="3.54668">
        <ele>551.45</ele>
        <time>2021-10-31T14:41:38Z</time>
      </trkpt>
      <trkpt lat="45.06793" lon="3.54653">
        <ele>551.45</ele>
        <time>2021-10-31T14:41:49Z</time>
      </trkpt>
      <trkpt lat="45.0681" lon="3.54618">
        <ele>551.45</ele>
        <time>2021-10-31T14:42:10Z</time>
      </trkpt>
      <trkpt lat="45.06822" lon="3.54585">
        <ele>550.97</ele>
        <time>2021-10-31T14:42:29Z</time>
      </trkpt>
      <trkpt lat="45.0683" lon="3.54575">
        <ele>551.93</ele>
        <time>2021-10-31T14:42:37Z</time>
      </trkpt>
      <trkpt lat="45.06848" lon="3.54581">
        <ele>548.09</ele>
        <time>2021-10-31T14:42:54Z</time>
      </trkpt>
      <trkpt lat="45.06856" lon="3.54596">
        <ele>548.09</ele>
        <time>2021-10-31T14:43:06Z</time>
      </trkpt>
      <trkpt lat="45.06861" lon="3.54608">
        <ele>547.61</ele>
        <time>2021-10-31T14:43:16Z</time>
      </trkpt>
      <trkpt lat="45.06862" lon="3.54611">
        <ele>547.61</ele>
        <time>2021-10-31T14:43:18Z</time>
      </trkpt>
      <trkpt lat="45.06867" lon="3.54611">
        <ele>548.09</ele>
        <time>2021-10-31T14:43:28Z</time>
      </trkpt>
      <trkpt lat="45.06868" lon="3.54609">
        <ele>548.57</ele>
        <time>2021-10-31T14:43:38Z</time>
      </trkpt>
      <trkpt lat="45.06873" lon="3.54597">
        <ele>552.9</ele>
        <time>2021-10-31T14:43:51Z</time>
      </trkpt>
      <trkpt lat="45.0688" lon="3.54585">
        <ele>555.3</ele>
        <time>2021-10-31T14:44:03Z</time>
      </trkpt>
      <trkpt lat="45.06886" lon="3.54571">
        <ele>560.11</ele>
        <time>2021-10-31T14:44:16Z</time>
      </trkpt>
      <trkpt lat="45.06894" lon="3.54547">
        <ele>561.55</ele>
        <time>2021-10-31T14:44:32Z</time>
      </trkpt>
      <trkpt lat="45.06904" lon="3.54524">
        <ele>563.47</ele>
        <time>2021-10-31T14:44:49Z</time>
      </trkpt>
      <trkpt lat="45.06909" lon="3.54511">
        <ele>565.39</ele>
        <time>2021-10-31T14:44:58Z</time>
      </trkpt>
      <trkpt lat="45.06918" lon="3.54488">
        <ele>570.68</ele>
        <time>2021-10-31T14:45:15Z</time>
      </trkpt>
      <trkpt lat="45.06926" lon="3.54461">
        <ele>573.56</ele>
        <time>2021-10-31T14:45:32Z</time>
      </trkpt>
      <trkpt lat="45.06927" lon="3.54458">
        <ele>574.53</ele>
        <time>2021-10-31T14:45:34Z</time>
      </trkpt>
      <trkpt lat="45.06931" lon="3.54428">
        <ele>576.93</ele>
        <time>2021-10-31T14:45:51Z</time>
      </trkpt>
      <trkpt lat="45.06935" lon="3.54395">
        <ele>577.89</ele>
        <time>2021-10-31T14:46:09Z</time>
      </trkpt>
      <trkpt lat="45.06937" lon="3.54369">
        <ele>582.22</ele>
        <time>2021-10-31T14:46:23Z</time>
      </trkpt>
      <trkpt lat="45.06938" lon="3.54338">
        <ele>581.73</ele>
        <time>2021-10-31T14:46:39Z</time>
      </trkpt>
      <trkpt lat="45.06938" lon="3.54324">
        <ele>580.77</ele>
        <time>2021-10-31T14:46:47Z</time>
      </trkpt>
      <trkpt lat="45.06937" lon="3.54298">
        <ele>583.66</ele>
        <time>2021-10-31T14:47:01Z</time>
      </trkpt>
      <trkpt lat="45.06937" lon="3.54295">
        <ele>583.66</ele>
        <time>2021-10-31T14:47:03Z</time>
      </trkpt>
      <trkpt lat="45.06938" lon="3.54278">
        <ele>583.18</ele>
        <time>2021-10-31T14:47:11Z</time>
      </trkpt>
      <trkpt lat="45.06947" lon="3.54242">
        <ele>584.62</ele>
        <time>2021-10-31T14:47:30Z</time>
      </trkpt>
      <trkpt lat="45.06951" lon="3.54209">
        <ele>585.1</ele>
        <time>2021-10-31T14:47:46Z</time>
      </trkpt>
      <trkpt lat="45.06959" lon="3.5417">
        <ele>582.7</ele>
        <time>2021-10-31T14:48:04Z</time>
      </trkpt>
      <trkpt lat="45.06971" lon="3.54132">
        <ele>577.89</ele>
        <time>2021-10-31T14:48:22Z</time>
      </trkpt>
      <trkpt lat="45.06984" lon="3.54098">
        <ele>575.01</ele>
        <time>2021-10-31T14:48:40Z</time>
      </trkpt>
      <trkpt lat="45.06998" lon="3.54059">
        <ele>574.04</ele>
        <time>2021-10-31T14:49:01Z</time>
      </trkpt>
      <trkpt lat="45.0701" lon="3.54021">
        <ele>573.08</ele>
        <time>2021-10-31T14:49:21Z</time>
      </trkpt>
      <trkpt lat="45.07021" lon="3.53986">
        <ele>572.6</ele>
        <time>2021-10-31T14:49:39Z</time>
      </trkpt>
      <trkpt lat="45.0703" lon="3.53947">
        <ele>572.6</ele>
        <time>2021-10-31T14:50:00Z</time>
      </trkpt>
      <trkpt lat="45.0704" lon="3.53908">
        <ele>572.12</ele>
        <time>2021-10-31T14:50:20Z</time>
      </trkpt>
      <trkpt lat="45.07048" lon="3.53864">
        <ele>570.2</ele>
        <time>2021-10-31T14:50:42Z</time>
      </trkpt>
      <trkpt lat="45.07056" lon="3.53829">
        <ele>572.12</ele>
        <time>2021-10-31T14:51:00Z</time>
      </trkpt>
      <trkpt lat="45.07061" lon="3.53797">
        <ele>572.12</ele>
        <time>2021-10-31T14:51:17Z</time>
      </trkpt>
      <trkpt lat="45.07067" lon="3.5376">
        <ele>572.6</ele>
        <time>2021-10-31T14:51:36Z</time>
      </trkpt>
      <trkpt lat="45.07076" lon="3.53721">
        <ele>572.6</ele>
        <time>2021-10-31T14:51:57Z</time>
      </trkpt>
      <trkpt lat="45.07085" lon="3.53695">
        <ele>572.12</ele>
        <time>2021-10-31T14:52:11Z</time>
      </trkpt>
      <trkpt lat="45.07097" lon="3.53664">
        <ele>570.68</ele>
        <time>2021-10-31T14:52:28Z</time>
      </trkpt>
      <trkpt lat="45.0711" lon="3.53627">
        <ele>569.72</ele>
        <time>2021-10-31T14:52:48Z</time>
      </trkpt>
      <trkpt lat="45.07127" lon="3.53587">
        <ele>568.28</ele>
        <time>2021-10-31T14:53:10Z</time>
      </trkpt>
      <trkpt lat="45.0714" lon="3.5356">
        <ele>567.8</ele>
        <time>2021-10-31T14:53:25Z</time>
      </trkpt>
      <trkpt lat="45.07147" lon="3.53548">
        <ele>568.76</ele>
        <time>2021-10-31T14:53:33Z</time>
      </trkpt>
      <trkpt lat="45.07164" lon="3.53517">
        <ele>567.8</ele>
        <time>2021-10-31T14:53:51Z</time>
      </trkpt>
      <trkpt lat="45.07177" lon="3.53478">
        <ele>562.99</ele>
        <time>2021-10-31T14:54:11Z</time>
      </trkpt>
      <trkpt lat="45.07196" lon="3.53446">
        <ele>561.07</ele>
        <time>2021-10-31T14:54:31Z</time>
      </trkpt>
      <trkpt lat="45.07217" lon="3.53433">
        <ele>558.66</ele>
        <time>2021-10-31T14:54:48Z</time>
      </trkpt>
      <trkpt lat="45.07239" lon="3.53447">
        <ele>557.7</ele>
        <time>2021-10-31T14:55:06Z</time>
      </trkpt>
      <trkpt lat="45.07261" lon="3.53448">
        <ele>557.7</ele>
        <time>2021-10-31T14:55:20Z</time>
      </trkpt>
      <trkpt lat="45.07285" lon="3.53428">
        <ele>554.82</ele>
        <time>2021-10-31T14:55:39Z</time>
      </trkpt>
      <trkpt lat="45.07304" lon="3.53409">
        <ele>554.82</ele>
        <time>2021-10-31T14:55:55Z</time>
      </trkpt>
      <trkpt lat="45.07328" lon="3.53389">
        <ele>553.38</ele>
        <time>2021-10-31T14:56:14Z</time>
      </trkpt>
      <trkpt lat="45.07336" lon="3.53377">
        <ele>553.38</ele>
        <time>2021-10-31T14:56:24Z</time>
      </trkpt>
      <trkpt lat="45.07354" lon="3.53357">
        <ele>552.41</ele>
        <time>2021-10-31T14:56:42Z</time>
      </trkpt>
      <trkpt lat="45.07366" lon="3.53336">
        <ele>552.41</ele>
        <time>2021-10-31T14:56:56Z</time>
      </trkpt>
      <trkpt lat="45.07379" lon="3.53313">
        <ele>553.86</ele>
        <time>2021-10-31T14:57:13Z</time>
      </trkpt>
      <trkpt lat="45.07394" lon="3.5329">
        <ele>555.78</ele>
        <time>2021-10-31T14:57:31Z</time>
      </trkpt>
      <trkpt lat="45.07398" lon="3.53283">
        <ele>556.26</ele>
        <time>2021-10-31T14:57:36Z</time>
      </trkpt>
      <trkpt lat="45.074" lon="3.53271">
        <ele>557.7</ele>
        <time>2021-10-31T14:57:48Z</time>
      </trkpt>
      <trkpt lat="45.074" lon="3.53267">
        <ele>558.18</ele>
        <time>2021-10-31T14:57:52Z</time>
      </trkpt>
      <trkpt lat="45.07404" lon="3.53255">
        <ele>560.59</ele>
        <time>2021-10-31T14:58:01Z</time>
      </trkpt>
      <trkpt lat="45.07402" lon="3.53246">
        <ele>562.03</ele>
        <time>2021-10-31T14:58:07Z</time>
      </trkpt>
      <trkpt lat="45.07402" lon="3.53239">
        <ele>562.03</ele>
        <time>2021-10-31T14:58:12Z</time>
      </trkpt>
      <trkpt lat="45.07403" lon="3.53229">
        <ele>563.47</ele>
        <time>2021-10-31T14:58:20Z</time>
      </trkpt>
      <trkpt lat="45.07386" lon="3.5324">
        <ele>566.35</ele>
        <time>2021-10-31T14:58:36Z</time>
      </trkpt>
      <trkpt lat="45.0737" lon="3.53257">
        <ele>568.76</ele>
        <time>2021-10-31T14:58:52Z</time>
      </trkpt>
      <trkpt lat="45.07368" lon="3.53259">
        <ele>568.76</ele>
        <time>2021-10-31T14:58:54Z</time>
      </trkpt>
      <trkpt lat="45.07353" lon="3.53276">
        <ele>569.72</ele>
        <time>2021-10-31T14:59:11Z</time>
      </trkpt>
      <trkpt lat="45.07346" lon="3.53292">
        <ele>569.72</ele>
        <time>2021-10-31T14:59:24Z</time>
      </trkpt>
      <trkpt lat="45.07338" lon="3.53306">
        <ele>570.2</ele>
        <time>2021-10-31T14:59:37Z</time>
      </trkpt>
      <trkpt lat="45.07327" lon="3.53319">
        <ele>571.64</ele>
        <time>2021-10-31T14:59:53Z</time>
      </trkpt>
      <trkpt lat="45.07323" lon="3.53317">
        <ele>570.2</ele>
        <time>2021-10-31T15:00:03Z</time>
      </trkpt>
      <trkpt lat="45.07323" lon="3.53316">
        <ele>569.24</ele>
        <time>2021-10-31T15:00:12Z</time>
      </trkpt>
      <trkpt lat="45.07324" lon="3.53317">
        <ele>568.76</ele>
        <time>2021-10-31T15:00:25Z</time>
      </trkpt>
      <trkpt lat="45.07323" lon="3.53318">
        <ele>568.76</ele>
        <time>2021-10-31T15:00:39Z</time>
      </trkpt>
      <trkpt lat="45.07323" lon="3.53319">
        <ele>568.76</ele>
        <time>2021-10-31T15:00:56Z</time>
      </trkpt>
      <trkpt lat="45.07323" lon="3.53318">
        <ele>569.24</ele>
        <time>2021-10-31T15:01:09Z</time>
      </trkpt>
      <trkpt lat="45.07323" lon="3.53318">
        <ele>569.24</ele>
        <time>2021-10-31T15:01:16Z</time>
      </trkpt>
      <trkpt lat="45.07325" lon="3.53308">
        <ele>568.28</ele>
        <time>2021-10-31T15:01:29Z</time>
      </trkpt>
      <trkpt lat="45.07324" lon="3.53307">
        <ele>568.28</ele>
        <time>2021-10-31T15:01:46Z</time>
      </trkpt>
      <trkpt lat="45.07324" lon="3.53306">
        <ele>568.28</ele>
        <time>2021-10-31T15:02:05Z</time>
      </trkpt>
      <trkpt lat="45.07324" lon="3.53306">
        <ele>568.28</ele>
        <time>2021-10-31T15:02:21Z</time>
      </trkpt>
      <trkpt lat="45.07324" lon="3.53306">
        <ele>567.8</ele>
        <time>2021-10-31T15:02:39Z</time>
      </trkpt>
      <trkpt lat="45.07324" lon="3.53305">
        <ele>567.32</ele>
        <time>2021-10-31T15:02:57Z</time>
      </trkpt>
      <trkpt lat="45.07324" lon="3.53306">
        <ele>566.83</ele>
        <time>2021-10-31T15:03:12Z</time>
      </trkpt>
      <trkpt lat="45.07325" lon="3.53306">
        <ele>566.83</ele>
        <time>2021-10-31T15:03:26Z</time>
      </trkpt>
      <trkpt lat="45.07325" lon="3.53307">
        <ele>566.35</ele>
        <time>2021-10-31T15:03:41Z</time>
      </trkpt>
      <trkpt lat="45.07325" lon="3.53307">
        <ele>566.35</ele>
        <time>2021-10-31T15:03:53Z</time>
      </trkpt>
      <trkpt lat="45.07322" lon="3.53315">
        <ele>567.32</ele>
        <time>2021-10-31T15:04:06Z</time>
      </trkpt>
      <trkpt lat="45.07317" lon="3.53322">
        <ele>566.83</ele>
        <time>2021-10-31T15:04:22Z</time>
      </trkpt>
      <trkpt lat="45.07317" lon="3.53322">
        <ele>565.87</ele>
        <time>2021-10-31T15:04:35Z</time>
      </trkpt>
      <trkpt lat="45.07318" lon="3.5332">
        <ele>565.39</ele>
        <time>2021-10-31T15:04:51Z</time>
      </trkpt>
      <trkpt lat="45.07319" lon="3.5332">
        <ele>564.91</ele>
        <time>2021-10-31T15:05:08Z</time>
      </trkpt>
      <trkpt lat="45.07322" lon="3.53331">
        <ele>564.43</ele>
        <time>2021-10-31T15:05:23Z</time>
      </trkpt>
      <trkpt lat="45.0732" lon="3.5333">
        <ele>563.47</ele>
        <time>2021-10-31T15:05:37Z</time>
      </trkpt>
      <trkpt lat="45.07319" lon="3.53335">
        <ele>563.47</ele>
        <time>2021-10-31T15:05:51Z</time>
      </trkpt>
    </trkseg>
  </trk>
</gpx>